[[{"header":{"parameterUnit":"m.s-1","parameterCategory":1,"la1":31.0,"la2":29.5877,"lo1":-88.7671,"lo2":-86.6584,"dx":0.0162,"dy":0.0185,"nx":115,"ny":88,"refTime":"2022-11-15T06:00:00:Z","depth":0,"parameterNumber":2,"parameterNumberName":"U-component_of_WINDS"},"data":[0.0,0.0,0.0,0.0,0.0,0.0,0.0,0.0,0.0,0.0,0.0,0.0,0.0,0.0,0.0,0.0,0.0,0.0,0.0,0.0,0.0,0.0,0.0,0.0,0.0,0.0,0.0,0.0,0.0,0.0,0.0,0.0,0.0,0.0,0.0,0.0,0.0,0.0,0.0,0.0,0.0,0.0,0.0,0.0,0.0,0.0,0.0,0.0,0.0,0.0,0.0,0.0,0.0,0.0,0.0,0.0,0.0,0.0,0.0,0.0,0.0,0.0,0.0,0.0,0.0,0.0,0.0,0.0,0.0,0.0,0.0,0.0,0.0,0.0,0.0,0.0,0.0,0.0,0.0,0.0,0.0,0.0,0.0,0.0,0.0,0.0,0.0,0.0,0.0,0.0,0.0,0.0,0.0,0.0,0.0,0.0,0.0,0.0,0.0,0.0,0.0,0.0,0.0,0.0,0.0,0.0,0.0,0.0,0.0,0.0,0.0,0.0,0.0,0.0,0.0,0.0,0.0,0.0,0.0,0.0,0.0,0.0,0.0,0.0,0.0,0.0,0.0,0.0,0.0,0.0,0.0,0.0,0.0,0.0,0.0,0.0,0.0,0.0,0.0,0.0,0.0,0.0,0.0,0.0,0.0,0.0,0.0,0.0,0.0,0.0,0.0,0.0,0.0,0.0,0.0,0.0,0.0,0.0,0.0,0.0,0.0,0.0,0.0,0.0,0.0,0.0,0.0,0.0,0.0,0.0,0.0,0.0,0.0,0.0,0.0,0.0,0.0,0.0,0.0,0.0,0.0,0.0,0.0,0.0,0.0,0.0,0.0,0.0,0.0,0.0,0.0,0.0,0.0,0.0,0.0,0.0,0.0,0.0,0.0,0.0,0.0,0.0,0.0,0.0,0.0,0.0,0.0,0.0,0.0,0.0,0.0,0.0,0.0,0.0,0.0,0.0,0.0,0.0,0.0,0.0,0.0,0.0,0.0,0.0,0.0,0.0,0.0,0.0,0.0,0.0,0.0,0.0,0.0,0.0,0.0,0.0,0.0,0.0,0.0,0.0,0.0,0.0,0.0,0.0,0.0,0.0,0.0,0.0,0.0,0.0,0.0,0.0,0.0,0.0,0.0,0.0,0.0,0.0,0.0,0.0,0.0,0.0,0.0,0.0,0.0,0.0,0.0,0.0,0.0,0.0,0.0,0.0,0.0,0.0,0.0,0.0,0.0,0.0,0.0,0.0,0.0,0.0,0.0,0.0,0.0,0.0,0.0,0.0,0.0,0.0,0.0,0.0,0.0,0.0,0.0,0.0,0.0,0.0,0.0,0.0,0.0,0.0,0.0,0.0,0.0,0.0,0.0,0.0,0.0,0.0,0.0,0.0,0.0,0.0,0.0,0.0,0.0,0.0,0.0,0.0,0.0,0.0,0.0,0.0,0.0,0.0,0.0,0.0,0.0,0.0,0.0,0.0,0.0,0.0,0.0,0.0,0.0,0.0,0.0,0.0,0.0,0.0,0.0,0.0,0.0,0.0,0.0,0.0,0.0,0.0,0.0,0.0,0.0,0.0,0.0,0.0,0.0,0.0,0.0,0.0,0.0,0.0,0.0,0.0,0.0,0.0,0.0,0.0,0.0,0.0,0.0,0.0,0.0,0.0,0.0,0.0,0.0,0.0,0.0,0.0,0.0,0.0,0.0,0.0,0.0,0.0,0.0,0.0,0.0,0.0,0.0,0.0,0.0,0.0,0.0,0.0,0.0,0.0,0.0,0.0,0.0,0.0,0.0,0.0,0.0,0.0,0.0,0.0,0.0,0.0,0.0,0.0,0.0,0.0,0.0,0.0,0.0,0.0,0.0,0.0,0.0,0.0,0.0,0.0,0.0,0.0,0.0,0.0,0.0,0.0,0.0,0.0,0.0,0.0,0.0,0.0,0.0,0.0,0.0,0.0,0.0,0.0,0.0,0.0,0.0,0.0,0.0,0.0,0.0,0.0,0.0,0.0,0.0,0.0,0.0,0.0,0.0,0.0,0.0,0.0,0.0,0.0,0.0,0.0,0.0,0.0,0.0,0.0,0.0,0.0,0.0,0.0,0.0,0.0,0.0,0.0,0.0,0.0,0.0,0.0,0.0,0.0,0.0,0.0,0.0,0.0,0.0,0.0,0.0,0.0,0.0,0.0,0.0,0.0,0.0,0.0,0.0,0.0,0.0,0.0,0.0,0.0,0.0,0.0,0.0,0.0,0.0,0.0,0.0,0.0,0.0,0.0,0.0,0.0,0.0,0.0,0.0,0.0,0.0,0.0,0.0,0.0,0.0,0.0,0.0,0.0,0.0,0.0,0.0,0.0,0.0,0.0,0.0,0.0,0.0,0.0,0.0,0.0,0.0,0.0,0.0,0.0,0.0,0.0,0.0,0.0,0.0,0.0,0.0,0.0,0.0,0.0,0.0,0.0,0.0,0.0,0.0,0.0,0.0,0.0,0.0,0.0,0.0,0.0,0.0,0.0,0.0,0.0,0.0,0.0,0.0,0.0,0.0,0.0,0.0,0.0,0.0,0.0,0.0,0.0,0.0,0.0,0.0,0.0,0.0,0.0,0.0,0.0,0.0,0.0,0.0,0.0,0.0,0.0,0.0,0.0,0.0,0.0,0.0,0.0,0.0,0.0,0.0,0.0,0.0,0.0,0.0,0.0,0.0,0.0,0.0,0.0,0.0,0.0,0.0,0.0,0.0,0.0,0.0,0.0,0.0,0.0,0.0,0.0,0.0,0.0,0.0,0.0,0.0,0.0,0.0,0.0,0.0,0.0,0.0,0.0,0.0,0.0,0.0,0.0,0.0,0.0,0.0,0.0,0.0,0.0,0.0,0.0,0.0,0.0,0.0,0.0,0.0,0.0,0.0,0.0,0.0,0.0,0.0,0.0,0.0,0.0,0.0,0.0,0.0,0.0,0.0,0.0,0.0,0.0,0.0,0.0,0.0,0.0,0.0,0.0,0.0,0.0,0.0,0.0,0.0,0.0,0.0,0.0,0.0,0.0,0.0,0.0,0.0,0.0,0.0,0.0,0.0,0.0,0.0,0.0,0.0,0.0,0.0,0.0,0.0,0.0,0.0,0.0,0.0,0.0,0.0,0.0,0.0,0.0,0.0,0.0,0.0,0.0,0.0,0.0,0.0,0.0,0.0,0.0,0.0,0.0,0.0,0.0,0.0,0.0,0.0,0.0,0.0,0.0,0.0,0.0,0.0,0.0,0.0,0.0,0.0,0.0,0.0,0.0,0.0,0.0,0.0,0.0,0.0,0.0,0.0,0.0,0.0,0.0,0.0,0.0,0.0,0.0,0.0,0.0,0.0,0.0,0.0,0.0,0.0,0.0,0.0,0.0,0.0,0.0,0.0,0.0,0.0,0.0,0.0,0.0,0.0,0.0,0.0,0.0,0.0,0.0,0.0,0.0,0.0,0.0,0.0,0.0,0.0,0.0,0.0,0.0,0.0,0.0,0.0,0.0,0.0,0.0,0.0,0.0,0.0,0.0,0.0,0.0,0.0,0.0,0.0,0.0,0.0,0.0,0.0,0.0,0.0,0.0,0.0,0.0,0.0,0.0,0.0,0.0,0.0,0.0,0.0,0.0,0.0,0.0,0.0,0.0,0.0,0.0,0.0,0.0,0.0,0.0,0.0,0.0,0.0,0.0,0.0,0.0,0.0,0.0,0.0,0.0,0.0,0.0,0.0,0.0,0.0,0.0,0.0,0.0,0.0,0.0,0.0,0.0,0.0,0.0,0.0,0.0,0.0,0.0,0.0,0.0,0.0,0.0,0.0,0.0,0.0,0.0,0.0,0.0,0.0,0.0,0.0,0.0,0.0,0.0,0.0,0.0,0.0,0.0,0.0,0.0,0.0,0.0,0.0,0.0,0.0,0.0,0.0,0.0,0.0,0.0,0.0,0.0,0.0,0.0,0.0,0.0,0.0,0.0,0.0,0.0,0.0,0.0,0.0,0.0,0.0,0.0,0.0,0.0,0.0,0.0,0.0,0.0,0.0,0.0,0.0,0.0,0.0,0.0,0.0,0.0,0.0,0.0,0.0,0.0,0.0,0.0,0.0,0.0,0.0,0.0,0.0,0.0,0.0,0.0,0.0,0.0,0.0,0.0,0.0,0.0,0.0,0.0,0.0,0.0,0.0,0.0,0.0,0.0,0.0,0.0,0.0,0.0,0.0,0.0,0.0,0.0,0.0,0.0,0.0,0.0,0.0,0.0,4.7773,0.0,0.0,0.0,4.7474,0.0,0.0,0.0,0.0,0.0,0.0,0.0,0.0,0.0,0.0,0.0,0.0,0.0,0.0,0.0,0.0,0.0,0.0,0.0,0.0,0.0,0.0,0.0,0.0,0.0,0.0,0.0,0.0,0.0,0.0,0.0,0.0,0.0,0.0,0.0,0.0,0.0,0.0,0.0,0.0,0.0,0.0,0.0,0.0,0.0,0.0,0.0,0.0,0.0,0.0,0.0,0.0,0.0,0.0,0.0,0.0,0.0,0.0,0.0,0.0,0.0,0.0,0.0,0.0,0.0,0.0,0.0,0.0,0.0,0.0,0.0,0.0,0.0,0.0,0.0,0.0,0.0,0.0,0.0,0.0,0.0,0.0,0.0,0.0,0.0,0.0,0.0,0.0,0.0,0.0,0.0,0.0,0.0,0.0,0.0,0.0,0.0,0.0,0.0,0.0,0.0,0.0,0.0,0.0,0.0,0.0,0.0,0.0,0.0,0.0,4.8007,4.8858,4.8883,4.8486,4.7627,0.0,0.0,0.0,0.0,0.0,0.0,0.0,0.0,0.0,0.0,0.0,0.0,0.0,0.0,0.0,0.0,0.0,0.0,0.0,0.0,0.0,0.0,0.0,0.0,0.0,0.0,0.0,0.0,0.0,0.0,0.0,0.0,0.0,0.0,0.0,0.0,0.0,0.0,0.0,0.0,0.0,0.0,0.0,0.0,0.0,0.0,0.0,0.0,0.0,0.0,0.0,0.0,0.0,0.0,0.0,0.0,0.0,0.0,0.0,0.0,0.0,0.0,0.0,0.0,0.0,0.0,0.0,0.0,0.0,0.0,0.0,0.0,0.0,0.0,0.0,0.0,0.0,0.0,0.0,0.0,0.0,0.0,0.0,0.0,0.0,0.0,0.0,0.0,0.0,0.0,0.0,0.0,0.0,0.0,0.0,0.0,0.0,0.0,0.0,0.0,0.0,0.0,0.0,0.0,0.0,0.0,0.0,0.0,0.0,0.0,0.0,0.0,4.9466,4.8951,4.7897,0.0,0.0,0.0,0.0,0.0,0.0,0.0,0.0,0.0,0.0,0.0,0.0,0.0,0.0,0.0,0.0,0.0,0.0,0.0,0.0,0.0,0.0,0.0,0.0,0.0,0.0,0.0,0.0,0.0,0.0,0.0,0.0,0.0,0.0,0.0,0.0,0.0,0.0,0.0,0.0,0.0,0.0,0.0,0.0,0.0,0.0,0.0,0.0,0.0,0.0,0.0,0.0,0.0,0.0,0.0,0.0,0.0,0.0,0.0,0.0,0.0,0.0,0.0,0.0,0.0,0.0,0.0,0.0,0.0,0.0,0.0,0.0,0.0,0.0,0.0,0.0,0.0,0.0,0.0,0.0,0.0,0.0,0.0,0.0,0.0,0.0,0.0,0.0,0.0,0.0,0.0,0.0,0.0,0.0,0.0,0.0,0.0,0.0,0.0,0.0,0.0,0.0,0.0,0.0,0.0,0.0,0.0,0.0,0.0,0.0,5.0351,5.1132,5.1157,0.0,4.8763,0.0,0.0,0.0,0.0,0.0,0.0,0.0,0.0,0.0,0.0,0.0,0.0,0.0,0.0,0.0,0.0,0.0,0.0,0.0,0.0,0.0,0.0,0.0,0.0,0.0,0.0,0.0,0.0,0.0,0.0,0.0,0.0,0.0,0.0,0.0,0.0,0.0,0.0,0.0,0.0,0.0,0.0,0.0,0.0,0.0,0.0,0.0,0.0,0.0,0.0,0.0,0.0,0.0,0.0,0.0,0.0,0.0,0.0,0.0,0.0,0.0,0.0,0.0,0.0,0.0,0.0,0.0,0.0,0.0,0.0,0.0,0.0,0.0,0.0,0.0,0.0,0.0,0.0,0.0,0.0,0.0,0.0,0.0,0.0,0.0,0.0,0.0,0.0,0.0,0.0,0.0,0.0,0.0,0.0,0.0,0.0,0.0,0.0,0.0,0.0,0.0,0.0,0.0,0.0,0.0,0.0,0.0,0.0,0.0,0.0,5.0586,5.1367,5.0923,5.0048,0.0,0.0,0.0,0.0,0.0,0.0,0.0,0.0,0.0,0.0,0.0,0.0,0.0,0.0,0.0,0.0,0.0,0.0,0.0,0.0,0.0,0.0,0.0,0.0,0.0,0.0,0.0,0.0,0.0,0.0,0.0,0.0,0.0,0.0,0.0,0.0,0.0,0.0,0.0,0.0,0.0,0.0,0.0,0.0,0.0,0.0,0.0,0.0,0.0,0.0,0.0,0.0,0.0,0.0,0.0,0.0,0.0,0.0,0.0,0.0,0.0,0.0,0.0,0.0,0.0,0.0,0.0,0.0,0.0,0.0,0.0,0.0,0.0,0.0,0.0,0.0,0.0,0.0,0.0,0.0,0.0,0.0,0.0,0.0,0.0,0.0,0.0,0.0,0.0,0.0,0.0,0.0,0.0,0.0,0.0,0.0,0.0,0.0,0.0,0.0,0.0,0.0,0.0,0.0,0.0,0.0,0.0,0.0,0.0,0.0,5.0428,5.1172,5.168,5.0923,4.993,4.8837,0.0,0.0,0.0,0.0,0.0,0.0,0.0,0.0,0.0,0.0,0.0,0.0,0.0,0.0,0.0,0.0,0.0,0.0,0.0,0.0,0.0,0.0,0.0,0.0,0.0,0.0,0.0,0.0,0.0,0.0,0.0,0.0,0.0,0.0,0.0,0.0,0.0,0.0,0.0,0.0,0.0,0.0,0.0,0.0,0.0,0.0,0.0,0.0,0.0,0.0,0.0,0.0,0.0,0.0,0.0,0.0,0.0,0.0,0.0,0.0,0.0,0.0,0.0,0.0,0.0,0.0,0.0,0.0,0.0,0.0,0.0,0.0,0.0,0.0,0.0,0.0,0.0,0.0,0.0,0.0,0.0,0.0,0.0,0.0,0.0,0.0,0.0,0.0,0.0,0.0,0.0,0.0,0.0,0.0,0.0,0.0,0.0,0.0,0.0,0.0,0.0,0.0,0.0,0.0,0.0,0.0,0.0,0.0,5.1222,5.2106,5.2578,5.2656,5.1823,5.0555,0.0,0.0,0.0,0.0,0.0,0.0,0.0,0.0,0.0,0.0,0.0,0.0,0.0,0.0,0.0,0.0,0.0,0.0,0.0,0.0,0.0,0.0,0.0,0.0,0.0,0.0,0.0,0.0,0.0,0.0,0.0,0.0,0.0,0.0,0.0,0.0,0.0,0.0,0.0,0.0,0.0,0.0,0.0,0.0,0.0,0.0,0.0,0.0,0.0,0.0,0.0,0.0,0.0,0.0,0.0,0.0,0.0,0.0,0.0,0.0,0.0,0.0,0.0,0.0,0.0,0.0,0.0,0.0,0.0,0.0,0.0,0.0,0.0,0.0,0.0,0.0,0.0,0.0,0.0,0.0,0.0,0.0,0.0,0.0,0.0,0.0,0.0,0.0,0.0,0.0,0.0,0.0,0.0,0.0,0.0,0.0,0.0,0.0,0.0,0.0,0.0,0.0,0.0,0.0,0.0,0.0,0.0,0.0,0.0,5.1382,5.277,5.3828,5.4297,5.2967,5.1435,0.0,0.0,0.0,0.0,0.0,0.0,0.0,0.0,0.0,0.0,0.0,0.0,0.0,0.0,0.0,0.0,0.0,0.0,0.0,0.0,0.0,0.0,0.0,0.0,0.0,0.0,0.0,0.0,0.0,0.0,0.0,0.0,0.0,0.0,0.0,0.0,0.0,0.0,0.0,0.0,0.0,0.0,0.0,0.0,0.0,0.0,0.0,0.0,0.0,0.0,0.0,0.0,0.0,0.0,0.0,0.0,0.0,0.0,0.0,0.0,0.0,0.0,0.0,0.0,0.0,0.0,0.0,0.0,0.0,0.0,0.0,0.0,0.0,0.0,0.0,0.0,0.0,0.0,0.0,0.0,0.0,0.0,0.0,0.0,0.0,0.0,0.0,0.0,0.0,0.0,0.0,0.0,0.0,0.0,0.0,0.0,0.0,0.0,0.0,0.0,0.0,0.0,0.0,0.0,0.0,0.0,0.0,0.0,0.0,5.3029,5.4802,5.5703,5.5664,5.4297,5.2458,0.0,0.0,0.0,0.0,0.0,0.0,0.0,0.0,0.0,0.0,0.0,0.0,0.0,0.0,0.0,0.0,0.0,0.0,0.0,0.0,0.0,0.0,0.0,0.0,0.0,0.0,0.0,0.0,0.0,0.0,0.0,0.0,0.0,0.0,0.0,0.0,0.0,0.0,0.0,0.0,0.0,0.0,0.0,0.0,0.0,0.0,0.0,0.0,0.0,0.0,0.0,0.0,0.0,0.0,0.0,0.0,0.0,0.0,0.0,0.0,0.0,0.0,0.0,0.0,0.0,0.0,0.0,0.0,0.0,0.0,0.0,0.0,0.0,0.0,0.0,0.0,0.0,0.0,0.0,0.0,0.0,0.0,0.0,0.0,0.0,0.0,0.0,0.0,0.0,0.0,0.0,0.0,0.0,0.0,0.0,0.0,0.0,0.0,0.0,0.0,0.0,0.0,0.0,0.0,0.0,0.0,0.0,0.0,5.3178,5.6517,5.828,5.8359,5.6719,5.582,5.3747,0.0,0.0,0.0,0.0,0.0,0.0,0.0,0.0,0.0,0.0,0.0,0.0,0.0,0.0,0.0,0.0,0.0,0.0,0.0,0.0,0.0,0.0,0.0,0.0,0.0,0.0,0.0,0.0,0.0,0.0,0.0,0.0,0.0,0.0,0.0,0.0,0.0,0.0,0.0,0.0,0.0,0.0,0.0,0.0,0.0,0.0,0.0,0.0,0.0,0.0,0.0,0.0,0.0,0.0,0.0,0.0,0.0,0.0,0.0,0.0,0.0,0.0,0.0,0.0,0.0,0.0,0.0,0.0,0.0,0.0,0.0,0.0,0.0,0.0,0.0,0.0,0.0,0.0,0.0,0.0,0.0,0.0,0.0,0.0,0.0,0.0,0.0,0.0,0.0,0.0,0.0,0.0,0.0,0.0,0.0,0.0,0.0,0.0,0.0,0.0,0.0,0.0,0.0,0.0,0.0,0.0,0.0,0.0,0.0,5.9173,6.0312,6.0664,6.0078,5.8164,5.5742,0.0,0.0,0.0,0.0,0.0,0.0,0.0,0.0,0.0,0.0,0.0,0.0,0.0,0.0,0.0,0.0,0.0,0.0,0.0,0.0,0.0,0.0,0.0,0.0,0.0,0.0,0.0,0.0,0.0,0.0,0.0,0.0,0.0,0.0,0.0,0.0,0.0,0.0,0.0,0.0,0.0,0.0,0.0,0.0,0.0,0.0,0.0,0.0,0.0,0.0,0.0,0.0,0.0,0.0,0.0,0.0,0.0,0.0,0.0,0.0,0.0,0.0,0.0,0.0,0.0,0.0,0.0,0.0,0.0,0.0,0.0,0.0,0.0,0.0,0.0,0.0,0.0,0.0,0.0,0.0,0.0,0.0,0.0,0.0,0.0,0.0,0.0,0.0,0.0,0.0,0.0,0.0,0.0,0.0,0.0,0.0,0.0,0.0,0.0,0.0,0.0,0.0,0.0,0.0,0.0,0.0,0.0,0.0,0.0,6.3664,6.3671,6.3476,6.3164,6.0664,5.7812,5.4609,0.0,0.0,0.0,0.0,0.0,0.0,0.0,0.0,0.0,0.0,0.0,0.0,0.0,0.0,0.0,0.0,0.0,0.0,0.0,0.0,0.0,0.0,0.0,0.0,0.0,0.0,0.0,0.0,0.0,0.0,0.0,0.0,0.0,0.0,0.0,0.0,0.0,0.0,0.0,0.0,0.0,0.0,0.0,0.0,0.0,0.0,0.0,0.0,0.0,0.0,0.0,0.0,0.0,0.0,0.0,0.0,0.0,0.0,0.0,0.0,0.0,0.0,0.0,0.0,0.0,0.0,0.0,0.0,0.0,0.0,0.0,0.0,0.0,0.0,0.0,0.0,0.0,0.0,0.0,0.0,0.0,0.0,0.0,0.0,0.0,0.0,0.0,0.0,0.0,0.0,0.0,0.0,0.0,0.0,0.0,0.0,0.0,0.0,0.0,0.0,0.0,0.0,0.0,0.0,0.0,0.0,0.0,0.0,6.9562,6.8202,6.6992,6.5898,6.332,5.9922,0.0,0.0,0.0,0.0,0.0,0.0,0.0,0.0,0.0,0.0,0.0,0.0,0.0,0.0,0.0,0.0,0.0,0.0,0.0,0.0,0.0,0.0,0.0,0.0,0.0,0.0,0.0,0.0,0.0,0.0,0.0,0.0,0.0,0.0,0.0,0.0,0.0,0.0,0.0,0.0,0.0,0.0,0.0,0.0,0.0,0.0,0.0,0.0,0.0,0.0,0.0,0.0,0.0,0.0,0.0,0.0,0.0,0.0,0.0,0.0,0.0,0.0,0.0,0.0,0.0,0.0,0.0,0.0,0.0,0.0,0.0,0.0,0.0,0.0,0.0,0.0,0.0,0.0,0.0,0.0,0.0,0.0,0.0,0.0,0.0,0.0,0.0,0.0,0.0,0.0,0.0,0.0,0.0,0.0,0.0,0.0,0.0,0.0,0.0,0.0,0.0,0.0,0.0,0.0,0.0,0.0,0.0,0.0,0.0,7.214,7.371,7.2851,6.9453,6.625,6.2851,0.0,0.0,0.0,0.0,0.0,0.0,0.0,0.0,0.0,0.0,0.0,0.0,0.0,0.0,0.0,0.0,0.0,0.0,0.0,0.0,0.0,0.0,0.0,0.0,0.0,0.0,0.0,0.0,0.0,0.0,0.0,0.0,0.0,0.0,0.0,0.0,0.0,0.0,0.0,0.0,0.0,0.0,0.0,0.0,0.0,0.0,0.0,0.0,0.0,0.0,0.0,0.0,0.0,0.0,0.0,0.0,0.0,0.0,0.0,0.0,0.0,0.0,0.0,0.0,0.0,0.0,0.0,0.0,0.0,0.0,0.0,0.0,0.0,0.0,0.0,0.0,0.0,0.0,0.0,0.0,0.0,0.0,0.0,0.0,0.0,0.0,0.0,0.0,0.0,0.0,0.0,0.0,0.0,0.0,0.0,0.0,0.0,0.0,0.0,0.0,0.0,0.0,0.0,0.0,0.0,0.0,0.0,0.0,7.0943,7.4865,7.7108,7.707,7.4531,7.0117,6.5781,0.0,0.0,0.0,0.0,0.0,0.0,0.0,0.0,0.0,0.0,0.0,0.0,0.0,0.0,0.0,0.0,0.0,0.0,0.0,0.0,0.0,0.0,0.0,0.0,0.0,0.0,0.0,0.0,0.0,0.0,0.0,0.0,0.0,0.0,0.0,0.0,0.0,0.0,0.0,0.0,0.0,0.0,0.0,0.0,0.0,0.0,0.0,0.0,0.0,0.0,0.0,0.0,0.0,0.0,0.0,0.0,0.0,0.0,0.0,0.0,0.0,0.0,0.0,0.0,0.0,0.0,0.0,0.0,0.0,0.0,0.0,0.0,0.0,0.0,0.0,0.0,0.0,0.0,0.0,0.0,0.0,0.0,0.0,0.0,0.0,0.0,0.0,0.0,0.0,0.0,0.0,0.0,0.0,0.0,0.0,0.0,0.0,0.0,0.0,0.0,0.0,0.0,0.0,0.0,0.0,0.0,0.0,0.0,7.3989,7.7508,7.9333,8.0156,7.9805,7.4062,6.8515,0.0,0.0,0.0,0.0,0.0,0.0,0.0,0.0,0.0,0.0,0.0,0.0,0.0,0.0,0.0,0.0,0.0,0.0,0.0,0.0,0.0,0.0,0.0,0.0,0.0,0.0,0.0,0.0,0.0,0.0,0.0,0.0,0.0,0.0,0.0,0.0,0.0,0.0,0.0,0.0,0.0,0.0,0.0,0.0,0.0,0.0,0.0,0.0,0.0,0.0,0.0,0.0,0.0,0.0,0.0,0.0,0.0,0.0,0.0,0.0,0.0,0.0,0.0,0.0,0.0,0.0,0.0,0.0,0.0,0.0,0.0,0.0,0.0,0.0,0.0,0.0,0.0,0.0,0.0,0.0,0.0,0.0,0.0,0.0,0.0,0.0,0.0,0.0,0.0,0.0,0.0,0.0,0.0,0.0,0.0,0.0,0.0,0.0,0.0,0.0,0.0,0.0,0.0,0.0,0.0,0.0,0.0,0.0,7.605,8.0105,8.2537,8.3125,8.1758,7.5234,6.9922,0.0,0.0,0.0,0.0,0.0,0.0,0.0,0.0,0.0,0.0,0.0,0.0,0.0,0.0,0.0,0.0,0.0,0.0,0.0,0.0,0.0,0.0,0.0,0.0,0.0,0.0,0.0,0.0,0.0,0.0,0.0,0.0,0.0,0.0,0.0,0.0,0.0,0.0,0.0,0.0,0.0,0.0,0.0,0.0,0.0,0.0,0.0,0.0,5.2234,0.0,0.0,0.0,0.0,0.0,0.0,0.0,0.0,0.0,0.0,0.0,0.0,0.0,0.0,0.0,0.0,0.0,0.0,0.0,0.0,0.0,0.0,0.0,0.0,0.0,0.0,0.0,0.0,0.0,0.0,0.0,0.0,0.0,0.0,0.0,0.0,0.0,0.0,0.0,0.0,0.0,0.0,0.0,0.0,0.0,0.0,0.0,0.0,0.0,0.0,0.0,0.0,0.0,0.0,0.0,0.0,0.0,0.0,0.0,7.7686,8.152,8.3789,8.4258,8.2812,7.7812,7.2851,0.0,0.0,0.0,0.0,0.0,0.0,0.0,0.0,0.0,0.0,0.0,0.0,0.0,0.0,0.0,0.0,0.0,0.0,0.0,0.0,0.0,0.0,0.0,0.0,0.0,0.0,0.0,0.0,0.0,0.0,0.0,0.0,0.0,0.0,0.0,0.0,0.0,0.0,0.0,0.0,0.0,0.0,0.0,0.0,0.0,0.0,0.0,0.0,0.0,0.0,0.0,0.0,0.0,0.0,0.0,0.0,0.0,0.0,0.0,0.0,0.0,0.0,0.0,0.0,0.0,0.0,0.0,0.0,0.0,0.0,0.0,0.0,0.0,0.0,0.0,0.0,0.0,0.0,0.0,0.0,0.0,0.0,0.0,0.0,0.0,0.0,0.0,0.0,0.0,0.0,0.0,0.0,0.0,0.0,0.0,0.0,0.0,0.0,0.0,0.0,0.0,0.0,0.0,0.0,0.0,0.0,0.0,7.4987,7.9387,8.2967,8.4765,8.5195,8.4179,8.0898,7.6211,7.0234,0.0,0.0,0.0,0.0,0.0,0.0,0.0,0.0,0.0,0.0,0.0,0.0,0.0,0.0,0.0,0.0,0.0,0.0,0.0,0.0,0.0,0.0,0.0,0.0,0.0,0.0,0.0,0.0,0.0,0.0,0.0,0.0,0.0,0.0,0.0,0.0,0.0,0.0,5.1547,5.3338,0.0,0.0,0.0,0.0,0.0,0.0,0.0,0.0,5.2585,0.0,0.0,0.0,0.0,0.0,0.0,0.0,0.0,0.0,0.0,0.0,0.0,0.0,0.0,0.0,0.0,0.0,0.0,0.0,0.0,0.0,0.0,0.0,0.0,0.0,0.0,0.0,0.0,0.0,0.0,0.0,0.0,0.0,0.0,0.0,0.0,0.0,0.0,0.0,0.0,0.0,0.0,0.0,0.0,0.0,0.0,0.0,0.0,0.0,0.0,0.0,0.0,0.0,0.0,0.0,0.0,7.2576,7.7044,8.1636,8.6449,8.8278,8.8437,8.6836,8.3476,7.8867,7.2812,0.0,0.0,0.0,0.0,0.0,0.0,0.0,0.0,0.0,0.0,0.0,0.0,0.0,0.0,0.0,0.0,0.0,0.0,0.0,0.0,0.0,0.0,0.0,0.0,0.0,0.0,0.0,0.0,0.0,0.0,0.0,0.0,0.0,0.0,0.0,0.0,0.0,0.0,0.0,5.5769,5.6276,0.0,0.0,0.0,0.0,0.0,0.0,0.0,0.0,5.4732,0.0,0.0,0.0,0.0,0.0,0.0,0.0,0.0,0.0,0.0,0.0,0.0,0.0,0.0,0.0,0.0,0.0,0.0,0.0,0.0,0.0,0.0,0.0,0.0,0.0,0.0,0.0,0.0,0.0,0.0,0.0,0.0,0.0,0.0,0.0,0.0,0.0,0.0,0.0,0.0,0.0,0.0,0.0,0.0,0.0,0.0,0.0,0.0,0.0,0.0,0.0,0.0,0.0,0.0,0.0,7.3856,7.8621,8.3105,8.7258,8.9096,8.9179,8.75,8.414,7.9453,0.0,0.0,0.0,0.0,0.0,0.0,0.0,0.0,0.0,0.0,0.0,0.0,0.0,0.0,0.0,0.0,0.0,0.0,0.0,0.0,0.0,0.0,0.0,0.0,0.0,0.0,0.0,0.0,0.0,0.0,0.0,0.0,0.0,0.0,0.0,0.0,0.0,0.0,0.0,0.0,5.736,5.8172,5.9641,0.0,0.0,0.0,0.0,0.0,0.0,5.6528,5.5981,0.0,0.0,0.0,0.0,0.0,0.0,0.0,0.0,0.0,0.0,0.0,0.0,0.0,0.0,0.0,0.0,0.0,0.0,0.0,0.0,0.0,0.0,0.0,0.0,0.0,0.0,0.0,0.0,0.0,0.0,0.0,0.0,0.0,0.0,0.0,0.0,0.0,0.0,0.0,0.0,0.0,0.0,0.0,0.0,0.0,0.0,0.0,0.0,0.0,0.0,0.0,0.0,0.0,0.0,0.0,7.4804,8.0112,8.4567,8.806,8.9723,8.9804,8.8242,8.457,7.9805,0.0,0.0,0.0,0.0,0.0,0.0,0.0,0.0,0.0,0.0,0.0,0.0,0.0,0.0,0.0,0.0,0.0,0.0,0.0,0.0,0.0,0.0,0.0,0.0,0.0,0.0,0.0,0.0,0.0,0.0,0.0,0.0,0.0,0.0,0.0,0.0,0.0,0.0,0.0,0.0,0.0,6.013,6.1949,6.1017,0.0,0.0,0.0,0.0,5.887,5.8441,0.0,0.0,0.0,0.0,0.0,0.0,0.0,0.0,0.0,0.0,0.0,0.0,0.0,0.0,0.0,0.0,0.0,0.0,0.0,0.0,0.0,0.0,0.0,0.0,0.0,0.0,0.0,0.0,0.0,0.0,0.0,0.0,0.0,0.0,0.0,0.0,0.0,0.0,0.0,0.0,0.0,0.0,0.0,0.0,0.0,0.0,0.0,0.0,0.0,0.0,0.0,0.0,0.0,0.0,0.0,0.0,7.5696,8.1597,8.664,9.0663,9.1797,9.1836,9.082,8.6054,8.0976,0.0,0.0,0.0,0.0,0.0,0.0,0.0,0.0,0.0,0.0,0.0,0.0,0.0,0.0,0.0,0.0,0.0,0.0,0.0,0.0,0.0,0.0,0.0,0.0,0.0,0.0,0.0,0.0,0.0,0.0,0.0,0.0,0.0,0.0,0.0,0.0,0.0,0.0,0.0,0.0,0.0,6.1885,6.3745,6.3828,6.3438,0.0,0.0,6.3282,6.2501,6.2969,0.0,0.0,0.0,0.0,0.0,0.0,0.0,0.0,0.0,0.0,0.0,0.0,0.0,0.0,0.0,0.0,0.0,0.0,0.0,0.0,0.0,0.0,0.0,0.0,0.0,0.0,0.0,0.0,0.0,0.0,0.0,0.0,0.0,0.0,0.0,0.0,0.0,0.0,0.0,0.0,0.0,0.0,0.0,0.0,0.0,0.0,0.0,0.0,0.0,0.0,0.0,0.0,0.0,0.0,0.0,7.1285,7.7257,8.3237,8.8203,9.1914,9.3359,9.3437,9.207,8.7031,8.1914,0.0,0.0,0.0,0.0,0.0,0.0,0.0,0.0,0.0,0.0,0.0,0.0,0.0,0.0,0.0,0.0,0.0,0.0,0.0,0.0,0.0,0.0,0.0,0.0,0.0,0.0,0.0,0.0,0.0,0.0,0.0,0.0,0.0,0.0,0.0,0.0,0.0,0.0,0.0,0.0,0.0,0.0,6.6126,6.6444,0.0,0.0,0.0,6.6175,6.5273,0.0,0.0,0.0,0.0,0.0,0.0,0.0,0.0,0.0,0.0,0.0,0.0,0.0,0.0,0.0,0.0,0.0,0.0,0.0,0.0,0.0,0.0,0.0,0.0,0.0,0.0,0.0,0.0,0.0,0.0,0.0,0.0,0.0,0.0,0.0,0.0,0.0,0.0,0.0,0.0,0.0,0.0,0.0,0.0,0.0,0.0,0.0,0.0,0.0,0.0,0.0,0.0,0.0,0.0,0.0,0.0,0.0,7.8657,8.4682,8.9414,9.2812,9.4414,9.4492,9.289,8.8125,0.0,0.0,0.0,0.0,0.0,0.0,0.0,0.0,0.0,0.0,0.0,0.0,0.0,0.0,0.0,0.0,0.0,0.0,0.0,0.0,0.0,0.0,0.0,0.0,0.0,0.0,0.0,4.6261,0.0,0.0,0.0,0.0,0.0,0.0,0.0,0.0,0.0,0.0,0.0,0.0,0.0,0.0,6.5652,6.8078,6.8786,6.9372,0.0,0.0,6.8752,6.7927,6.7459,6.6327,0.0,0.0,0.0,0.0,0.0,0.0,0.0,0.0,0.0,0.0,0.0,0.0,0.0,0.0,0.0,0.0,0.0,0.0,0.0,0.0,0.0,0.0,0.0,0.0,0.0,0.0,0.0,0.0,0.0,0.0,0.0,0.0,0.0,0.0,0.0,0.0,0.0,0.0,0.0,0.0,0.0,0.0,0.0,0.0,0.0,0.0,0.0,0.0,0.0,0.0,0.0,0.0,0.0,0.0,0.0,7.9561,8.5542,9.0312,9.3672,9.4726,9.4765,9.3789,8.9609,8.4883,0.0,0.0,0.0,0.0,0.0,0.0,0.0,0.0,0.0,0.0,0.0,0.0,0.0,0.0,0.0,0.0,0.0,0.0,0.0,0.0,0.0,0.0,0.0,0.0,0.0,0.0,0.0,0.0,0.0,0.0,0.0,0.0,0.0,0.0,0.0,0.0,0.0,0.0,0.0,0.0,0.0,6.7258,6.9059,7.0699,7.2065,0.0,0.0,7.1446,7.0582,7.105,6.9918,6.4999,0.0,0.0,0.0,0.0,0.0,0.0,0.0,0.0,0.0,0.0,0.0,0.0,0.0,0.0,0.0,0.0,0.0,0.0,0.0,0.0,0.0,0.0,0.0,0.0,0.0,0.0,0.0,0.0,0.0,0.0,0.0,0.0,0.0,0.0,0.0,0.0,0.0,0.0,0.0,0.0,0.0,0.0,0.0,0.0,0.0,0.0,0.0,0.0,0.0,0.0,0.0,0.0,0.0,7.4999,8.047,8.6987,9.1719,9.4609,9.6015,9.6094,9.4726,9.1054,8.6601,0.0,0.0,0.0,0.0,0.0,0.0,0.0,0.0,0.0,0.0,0.0,0.0,0.0,0.0,0.0,0.0,0.0,0.0,0.0,0.0,0.0,0.0,0.0,0.0,0.0,0.0,0.0,0.0,5.2117,5.2195,5.2195,0.0,0.0,0.0,0.0,0.0,0.0,0.0,0.0,0.0,0.0,7.0191,7.2963,7.4369,0.0,0.0,7.5233,7.4062,7.3236,7.2026,7.0152,6.7146,6.4609,0.0,0.0,0.0,0.0,0.0,0.0,0.0,0.0,0.0,0.0,0.0,0.0,0.0,0.0,0.0,0.0,0.0,0.0,0.0,0.0,0.0,0.0,0.0,0.0,0.0,0.0,0.0,0.0,0.0,0.0,0.0,0.0,0.0,0.0,0.0,0.0,0.0,0.0,0.0,0.0,0.0,0.0,0.0,0.0,0.0,0.0,0.0,0.0,0.0,0.0,0.0,0.0,7.6219,8.1351,8.7928,9.2578,9.5156,9.6836,9.7031,9.5586,9.2461,8.8594,0.0,0.0,0.0,0.0,0.0,0.0,0.0,0.0,0.0,0.0,0.0,0.0,0.0,0.0,0.0,0.0,0.0,0.0,0.0,0.0,0.0,0.0,0.0,0.0,0.0,0.0,0.0,0.0,5.3444,5.321,5.3444,0.0,0.0,0.0,0.0,0.0,0.0,0.0,0.0,0.0,0.0,7.2924,7.5774,7.6917,7.7703,7.8323,7.7146,7.5819,7.4759,7.3041,7.1089,6.8864,0.0,0.0,0.0,0.0,0.0,0.0,0.0,0.0,0.0,0.0,0.0,0.0,0.0,0.0,0.0,0.0,0.0,0.0,0.0,0.0,0.0,0.0,0.0,0.0,0.0,0.0,0.0,0.0,0.0,0.0,5.0391,0.0,0.0,0.0,0.0,0.0,0.0,0.0,0.0,0.0,0.0,0.0,0.0,0.0,0.0,0.0,0.0,0.0,0.0,0.0,0.0,0.0,0.0,7.7169,8.2265,8.8281,9.2617,9.5156,9.6836,9.7304,9.6406,9.3906,9.0898,8.7304,0.0,0.0,0.0,0.0,0.0,0.0,0.0,0.0,0.0,0.0,0.0,0.0,0.0,0.0,0.0,0.0,0.0,0.0,0.0,0.0,0.0,0.0,0.0,0.0,0.0,0.0,5.3947,5.399,5.4303,0.0,0.0,0.0,0.0,0.0,0.0,0.0,0.0,0.0,0.0,7.1792,7.5116,7.6873,7.7829,7.85,7.8497,7.7703,7.6516,7.4876,7.4525,7.3354,0.0,0.0,0.0,0.0,0.0,0.0,0.0,0.0,0.0,0.0,0.0,0.0,0.0,0.0,0.0,0.0,0.0,0.0,0.0,0.0,0.0,0.0,0.0,0.0,0.0,0.0,0.0,5.75,5.6992,0.0,0.0,0.0,0.0,0.0,0.0,0.0,0.0,0.0,0.0,0.0,6.8594,6.9453,0.0,0.0,0.0,0.0,0.0,0.0,0.0,0.0,0.0,0.0,0.0,0.0,7.9412,8.4062,8.9961,9.4023,9.6015,9.7148,9.7304,9.6484,9.4531,9.0508,8.4219,0.0,0.0,0.0,0.0,0.0,0.0,0.0,0.0,0.0,0.0,0.0,0.0,0.0,0.0,0.0,0.0,0.0,0.0,0.0,0.0,0.0,0.0,0.0,0.0,0.0,5.4533,0.0,0.0,0.0,0.0,0.0,0.0,0.0,0.0,0.0,0.0,0.0,6.7688,7.1123,7.429,7.6878,7.8571,8.009,8.1183,0.0,0.0,0.0,0.0,0.0,0.0,0.0,0.0,0.0,0.0,0.0,0.0,0.0,0.0,6.4219,6.1369,6.133,6.172,6.172,0.0,0.0,0.0,0.0,0.0,0.0,0.0,0.0,0.0,0.0,0.0,0.0,0.0,0.0,6.2118,0.0,6.1286,0.0,0.0,0.0,0.0,0.0,0.0,0.0,0.0,7.043,7.25,7.3828,7.4726,7.4961,0.0,7.4375,7.1797,0.0,0.0,0.0,0.0,0.0,0.0,0.0,0.0,8.1289,8.539,9.1015,9.4765,9.6445,9.7304,9.7461,9.6875,9.4961,9.082,8.4336,8.0234,7.5469,0.0,0.0,0.0,0.0,0.0,0.0,0.0,0.0,0.0,0.0,0.0,0.0,0.0,0.0,0.0,0.0,0.0,0.0,0.0,0.0,0.0,0.0,0.0,5.7192,0.0,0.0,0.0,0.0,0.0,0.0,0.0,0.0,0.0,6.4786,6.7746,7.1178,7.4603,7.7023,7.9109,8.0808,0.0,0.0,0.0,0.0,0.0,0.0,0.0,7.6599,7.4892,7.3447,7.2505,7.2495,7.1753,7.1167,7.1167,0.0,0.0,6.6014,6.5702,6.6053,6.6092,6.6795,6.7381,6.7381,6.8279,6.9372,0.0,0.0,0.0,0.0,0.0,0.0,0.0,0.0,6.6966,6.6521,0.0,6.5581,0.0,0.0,0.0,0.0,0.0,6.8476,0.0,0.0,7.6953,7.9062,7.9844,8.0742,8.0742,7.9922,7.918,7.8281,7.7109,7.2461,0.0,0.0,0.0,0.0,0.0,0.0,8.2851,8.6445,9.1445,9.4844,9.6484,9.7304,9.7695,9.7578,9.5195,9.1875,8.7734,8.4179,8.0,7.4883,6.9062,0.0,0.0,0.0,0.0,0.0,0.0,0.0,0.0,0.0,0.0,0.0,0.0,0.0,0.0,0.0,0.0,0.0,0.0,0.0,0.0,5.9495,0.0,0.0,0.0,0.0,0.0,0.0,0.0,0.0,0.0,0.0,6.8586,7.1356,7.463,7.7888,0.0,0.0,0.0,0.0,8.4648,8.3867,8.3031,8.1903,8.0302,7.9951,7.9338,7.7602,0.0,0.0,7.6248,7.5305,7.4798,7.4759,7.5462,7.4681,7.0699,6.984,6.9723,6.9723,7.0465,7.0933,7.1089,7.2495,7.3666,7.5353,0.0,0.0,0.0,0.0,7.0416,7.1682,7.3201,7.3168,7.3025,7.2816,7.2153,0.0,0.0,0.0,0.0,0.0,0.0,7.5156,7.7187,8.0547,8.2578,8.3437,8.4961,8.5508,8.5273,8.5039,8.414,8.2695,8.1836,7.8672,7.3398,0.0,0.0,0.0,0.0,8.6406,8.9844,9.375,9.6289,9.7344,9.7578,9.7422,9.6875,9.4922,9.2461,8.9375,8.6562,8.2695,7.7617,7.3359,0.0,0.0,0.0,0.0,0.0,0.0,0.0,0.0,0.0,0.0,0.0,0.0,0.0,0.0,0.0,0.0,0.0,0.0,0.0,6.031,6.2175,6.2766,0.0,0.0,0.0,0.0,0.0,0.0,0.0,0.0,0.0,7.5273,7.5775,7.6583,0.0,0.0,8.211,8.2604,8.449,8.5937,8.625,8.6092,0.0,8.5267,8.4675,8.3711,8.2019,8.1422,8.0816,7.9678,7.9834,8.0068,8.0068,8.0263,7.999,7.8858,7.6516,7.5032,7.4954,7.5579,7.6399,7.7023,7.8038,7.9131,8.2238,7.7983,7.5508,7.4525,7.4724,7.5527,7.6708,7.8096,7.8098,7.793,7.7659,7.714,7.604,7.4496,7.4552,0.0,0.0,0.0,7.9883,8.1679,8.4375,8.6094,8.6953,8.8008,8.8476,8.8515,8.8476,8.7969,8.6914,8.6758,8.4804,8.1015,0.0,0.0,8.2304,8.5898,8.9219,9.2304,9.5078,9.6875,9.7695,9.7695,9.7304,9.6484,9.5156,9.3359,9.1094,8.8554,8.5273,8.1211,7.707,7.2578,0.0,0.0,0.0,0.0,0.0,0.0,0.0,0.0,0.0,0.0,0.0,5.1418,5.2108,0.0,0.0,0.0,5.9694,6.1651,6.3578,6.4721,0.0,0.0,0.0,0.0,0.0,0.0,0.0,7.1005,7.4139,7.7109,7.9648,8.0115,8.0495,8.1362,8.3113,8.4453,8.478,0.0,8.8398,8.8867,8.8942,8.8811,8.8468,8.7993,8.7191,8.5854,8.4624,8.3699,8.3152,8.3191,8.3308,8.3308,8.3308,8.3269,8.3308,8.1786,8.0263,7.9405,7.9834,8.0576,8.1122,8.2176,8.3347,8.7693,8.6494,8.1774,7.9748,7.9709,8.0528,8.1342,8.2017,8.2064,8.1735,8.105,8.0948,8.0206,7.9019,7.9111,0.0,8.039,8.2851,8.4844,8.6445,8.8125,8.9336,9.0078,9.0156,9.0195,9.0234,9.0192,9.0151,9.0,8.8594,8.8203,8.8828,8.664,8.5859,8.6601,8.8945,9.1445,9.3945,9.5664,9.6875,9.7656,9.7695,9.7344,9.6601,9.5703,9.4414,9.2734,9.0273,8.7734,8.5117,8.039,7.6094,7.2539,0.0,0.0,0.0,0.0,0.0,0.0,0.0,0.0,0.0,0.0,0.0,0.0,0.0,0.0,0.0,6.4497,0.0,6.7304,6.7497,0.0,0.0,0.0,6.9254,7.0937,7.1942,7.3462,7.5937,0.0,0.0,8.2304,8.4179,8.5622,8.6405,8.7102,8.7804,8.8663,9.0185,9.1445,9.1445,9.1545,9.1318,9.0693,9.0303,8.9813,8.8865,8.7565,8.6522,8.636,8.5807,8.5299,8.5338,8.5221,8.526,8.5221,8.5768,8.569,8.3386,8.3386,8.3816,8.4011,8.5143,8.6197,9.0228,8.9356,8.7538,8.6094,8.4945,8.508,8.5715,8.6597,8.5924,8.5899,8.6362,8.5744,8.5258,8.4926,8.4974,8.5137,8.5508,8.6758,8.7617,8.8203,8.9883,9.0781,9.1015,9.1679,9.1992,9.1953,9.1871,9.1506,9.0866,9.1116,9.0976,9.0547,9.0664,9.0195,8.9219,9.1015,9.2929,9.4883,9.5937,9.6875,9.7656,9.7695,9.7617,9.7422,9.5976,9.4687,9.3633,9.1719,8.9531,8.6992,8.3789,8.0234,7.6133,7.168,0.0,0.0,0.0,0.0,0.0,0.0,0.0,0.0,0.0,5.7793,5.8241,0.0,6.1647,0.0,6.8205,7.0839,7.1718,7.2382,0.0,0.0,7.3164,7.3476,7.4531,7.6015,7.7421,7.8633,8.1484,8.3867,8.5117,8.7344,8.9101,8.9918,8.9076,8.8702,8.96,9.1189,9.2535,9.3203,9.382,9.4157,9.3806,9.279,9.1666,9.082,8.9765,8.9096,8.9084,8.8909,8.8774,8.8774,8.8774,8.8774,8.8657,8.8969,8.8852,8.8227,8.729,8.6666,8.7329,8.7798,8.8266,9.2248,9.1427,9.103,9.013,8.8919,8.8106,8.8106,8.866,8.8091,8.8207,8.8759,8.8306,8.8145,8.8147,8.8147,8.82,8.8338,8.9162,8.9648,8.9844,9.1172,9.1836,9.1875,9.2383,9.2578,9.2578,9.2529,9.2249,9.181,9.2265,9.242,9.2344,9.3281,9.3281,9.2383,9.289,9.3828,9.5195,9.5972,9.6792,9.7656,9.7656,9.7461,9.7148,9.5508,9.4219,9.3359,9.1289,8.914,8.6992,8.4804,8.1836,7.7969,7.4765,7.1484,0.0,0.0,0.0,0.0,0.0,0.0,0.0,0.0,0.0,0.0,0.0,6.6227,6.8796,7.1897,7.3939,7.4414,7.5234,7.6055,7.6797,7.7226,7.793,7.918,8.0195,8.1406,8.2969,8.4883,8.6679,8.8242,8.9687,9.0898,9.1758,9.1388,9.1194,9.1787,9.3224,9.449,9.5,9.5775,9.6153,9.5793,9.4274,9.3039,9.25,9.1406,9.0586,9.0582,9.0263,8.9978,9.0003,8.9997,8.9997,9.003,9.0687,9.1155,9.1116,9.1038,9.0452,8.9516,8.9594,9.0101,9.381,9.3145,9.3012,9.2567,9.1754,9.0168,8.9522,8.9532,8.9494,8.9571,8.9687,8.9831,8.987,8.987,8.987,8.9908,8.9964,9.0713,9.1158,9.1353,9.2068,9.2461,9.2578,9.2578,9.2576,9.2564,9.2533,9.2596,9.2672,9.2689,9.3162,9.4005,9.4763,9.5154,9.5102,9.4373,9.4373,9.5138,9.5864,9.6582,9.7442,9.726,9.6873,9.625,9.4726,9.3476,9.2578,9.0312,8.8242,8.6601,8.4883,8.2539,7.9492,7.7578,7.5117,0.0,7.0156,0.0,0.0,0.0,0.0,0.0,0.0,0.0,0.0,6.9358,7.1395,7.3764,7.5542,7.664,7.6875,7.7578,7.8633,8.0195,8.1054,8.2109,8.3554,8.3945,8.4961,8.7265,8.7773,8.8867,9.0859,9.1367,9.1797,9.2461,9.315,9.3589,9.3973,9.5181,9.6287,9.6601,9.7142,9.693,9.6049,9.4777,9.3781,9.3554,9.2461,9.1484,9.1445,9.0898,9.035,9.0377,9.0442,9.0471,9.0459,9.1787,9.2724,9.2886,9.3862,9.3817,9.1624,9.1389,9.1975,9.491,9.4768,9.3377,9.278,9.2672,9.1638,9.1251,9.1251,9.1251,9.1251,9.129,9.129,9.129,9.129,9.1329,9.1445,9.1638,9.181,9.2022,9.2338,9.2482,9.2578,9.2578,9.2578,9.2546,9.2438,9.2284,9.2554,9.3214,9.3239,9.3707,9.4535,9.4817,9.4888,9.4807,0.0,0.0,0.0,9.5763,9.6255,9.6276,9.5596,9.5169,9.5039,9.4179,0.0,9.2461,9.1406,9.0,8.8281,8.664,0.0,0.0,0.0,0.0,0.0,0.0,0.0,0.0,0.0,0.0,0.0,7.4574,7.3833,7.2349,7.4329,7.621,7.7421,7.9062,8.0625,8.1992,8.2265,8.2812,8.3789,8.4062,8.4336,8.4687,8.5898,8.6992,8.7422,8.9297,9.0742,9.125,9.1914,9.2383,9.2578,9.3359,9.3856,9.3895,9.5307,9.6622,9.7304,9.6949,9.611,9.463,9.4147,9.3661,9.3008,9.2656,9.2344,9.2304,9.2226,9.207,9.2031,9.213,9.2294,9.2958,9.3483,9.3845,9.4513,9.4903,9.4894,9.4246,9.4239,9.4434,9.5576,0.0,9.4428,9.3901,0.0,9.3137,9.2943,9.2866,9.2064,9.1716,9.1716,9.1716,9.1716,9.1716,9.1716,9.1754,9.1898,9.1921,9.2032,9.2268,9.2685,9.2929,9.3007,9.3437,9.359,9.3534,9.3434,9.3589,9.4016,9.4018,9.4465,9.5342,9.5418,9.5632,9.5961,9.5982,9.5827,9.5438,9.5777,9.6155,9.6609,9.6136,9.569,9.5328,9.4666,0.0,0.0,0.0,0.0,0.0,0.0,0.0,0.0,0.0,0.0,8.0469,7.957,7.871,7.7842,7.7781,7.8317,7.9611,8.0528,8.0108,7.792,7.9373,8.0742,8.1601,8.2461,8.3437,8.4726,8.5273,8.5859,8.6679,8.7148,8.7422,8.75,8.8203,8.8906,8.9375,9.0469,9.1445,9.1914,9.2304,9.2578,9.2656,9.3359,9.3902,9.4018,9.4981,9.5982,9.6405,9.6132,9.5536,9.4721,9.4136,9.381,9.332,9.289,9.2617,9.2578,9.2578,9.2578,9.2578,9.2611,9.2873,9.37,9.422,9.4782,9.5538,9.6085,9.6352,9.6334,9.5697,9.5254,9.6043,9.5489,9.5438,9.4991,9.4413,9.4259,9.422,9.4104,0.0,0.0,0.0,9.2141,9.2141,9.2141,9.2141,9.2141,9.2169,9.219,9.2276,9.2432,9.3162,9.3528,9.3667,9.4341,9.4704,9.4665,9.4655,9.4733,9.4878,9.491,9.5317,9.6116,9.6203,9.6512,9.717,9.7209,9.686,9.6164,9.5825,9.6125,9.6958,9.6658,9.6232,9.568,9.5138,9.4426,9.3594,9.2383,9.125,9.0273,8.9375,8.832,8.6953,8.6054,8.4922,8.3554,8.2734,8.2304,8.2148,8.2136,8.2823,8.4385,8.5307,8.4961,8.2929,8.3711,8.457,8.5312,8.5625,8.6094,8.6797,8.75,8.8203,8.8867,8.957,8.9961,8.9961,9.0156,9.0469,9.1172,9.1406,9.1797,9.2461,9.2578,9.2578,9.2695,9.3164,9.367,9.3801,9.4571,9.5211,9.5077,9.5,9.492,9.4626,9.409,9.3718,9.3515,9.3008,9.2617,9.2578,9.2578,9.2578,9.2578,9.2578,9.3047,9.394,9.4669,9.5514,9.6444,9.7185,9.7684,9.7563,9.6607,9.5879,9.632,9.6261,9.5566,9.5316,9.5274,9.4501,9.423,9.4201,9.3959,9.3843,9.3843,9.3843,9.3843,9.3843,9.3843,9.3921,9.4104,9.411,9.4163,9.4318,9.4433,9.4511,9.4538,9.4646,9.4665,9.4549,9.4549,9.4926,9.5574,9.5631,9.6057,9.6744,9.686,9.686,9.686,9.686,9.6822,9.6667,9.6125,9.5777,9.5739,9.5004,9.4539,9.4491,9.4568,9.4212,9.3476,9.332,9.2617,9.1172,9.0312,8.9687,8.9453,8.8633,8.8047,8.7812,8.7695,8.7304,8.664,8.6601,8.6991,8.7929,8.8789,8.7929,8.4922,8.6015,8.7031,8.7187,8.832,8.9336,8.9453,8.9531,8.9687,8.9804,8.9922,9.0,9.0117,9.0703,9.1172,9.1367,9.1992,9.2383,9.2539,9.2578,9.2578,9.2617,9.289,9.2851,9.3164,9.4179,9.4765,9.4297,9.4101,9.3789,9.3317,9.2907,9.2868,9.2772,9.2734,9.2578,9.2578,9.2578,9.2578,9.2578,9.2578,9.3203,9.4565,9.5098,9.5709,9.6873,9.7421,9.7615,9.7606,9.731,9.7245,9.6361,9.6425,9.6073,9.605,9.6125,9.5777,9.5623,9.5593,9.5623,9.5042,9.424,9.423,9.4191,9.4191,9.4191,9.423,9.4336,9.4336,9.4375,9.4491,9.4955,9.5158,9.5168,9.5593,9.5825,9.5709,9.5739,9.5971,9.6319,9.6358,9.6512,9.6899,9.6899,9.686,9.6822,9.6822,9.7054,9.7449,9.6744,9.628,9.6203,9.5816,9.5623,9.5623,9.5777,9.5752,9.5525,9.5196,9.4726,9.414,9.2851,9.2109,9.207,9.0859,9.0117,9.0078,8.9648,8.9219,8.8867,8.8867,8.9023,8.9375,8.9765,8.9375,8.7812,8.8398,8.8867,8.8867,8.9609,9.0195,9.0625,9.0703,9.0898,9.1367,9.1406,9.1406,9.1445,9.1719,9.1992,9.2031,9.2344,9.2578,9.2578,9.2578,9.2578,9.2617,9.2969,9.3281,9.332,9.4336,9.4687,9.3476,9.3164,9.3047,9.2656,9.2574,9.2611,9.2578,9.2578,9.2578,9.2578,9.2578,9.2578,9.2578,9.2578,9.3086,9.4309,9.448,9.5045,9.5926,9.6757,9.6951,9.702,9.7349,9.7675,9.6361,9.6394,9.6459,9.659,9.6706,9.6783,9.6822,9.6822,9.6783,9.6018,9.4897,9.481,9.4772,9.4772,9.4772,9.4772,9.4772,9.4772,9.4772,9.4849,9.5506,9.5786,9.5825,9.6512,9.6822,9.6822,9.6822,9.6822,9.6822,9.6976,9.717,9.7325,9.7363,9.7363,9.7363,9.7363,9.7711,9.83,9.7711,9.7363,9.7363,9.7363,9.7286,9.7092,9.717,9.7247,9.719,9.6714,9.6445,9.6367,9.5195,9.4336,9.3867,9.2617,9.1797,9.1562,9.0976,9.0586,9.0586,9.0586,9.0586,9.0586,9.0586,9.0586,9.0586,9.0586,9.0508,9.0351,9.0508,9.0898,9.1445,9.1601,9.1875,9.25,9.2578,9.25,9.2578,9.2578,9.2578,9.2578,9.2578,9.2578,9.2578,9.2578,9.2695,9.2969,9.3633,9.414,9.4258,9.4804,9.4531,9.3672,9.3047,9.2851,9.2656,9.2578,9.2578,9.2578,9.2578,9.2578,9.2578,9.2578,9.2578,9.2578,9.2578,9.2969,9.3703,9.3952,9.4331,9.5094,9.5775,9.6171,9.616,9.6763,9.744,9.6361,9.6394,9.6536,9.6629,9.686,9.686,9.686,9.686,9.6822,9.6744,9.659,9.659,9.6551,9.6551,9.6551,9.6512,9.6551,9.6551,9.6551,9.6551,9.6628,9.6667,9.6744,9.6822,9.6822,9.686,9.686,9.6938,9.7015,9.7634,9.8322,9.8979,9.9057,9.9018,9.9018,9.9018,9.9095,9.9181,9.9112,9.9073,9.9065,9.9065,9.8717,9.8012,9.8012,9.7702,9.7122,9.7143,9.6875,9.6328,9.625,9.5547,9.414,9.375,9.3281,9.2539,9.2383,9.2344,9.2344,9.2344,9.2265,9.2344,9.2265,9.2265,9.2265,9.2304,9.1992,9.1484,9.1875,9.2265,9.2461,9.2422,9.2422,9.2539,9.2578,9.2578,9.2578,9.2578,9.2578,9.2578,9.2578,9.2578,9.2578,9.2656,9.2969,9.3711,9.4531,9.5078,9.5117,9.5312,9.5351,9.4883,9.4336,9.3515,9.2929,9.2578,9.2578,9.2578,9.2578,9.2578,9.2578,9.2578,9.2578,9.2578,9.2578,9.2929,9.3473,9.3931,9.4129,9.4526,9.5024,9.5311,9.534,9.5982,9.6777,9.7825,9.7824,9.7858,9.8025,9.8214,9.8253,9.8253,9.8283,9.8283,9.8253,9.8292,9.8292,9.8021,9.7557,9.7595,9.7827,9.8253,9.8283,9.8283,9.8283,9.8283,9.8283,9.8283,9.8292,9.8292,9.8292,9.8292,9.8253,9.833,9.864,9.8988,9.9259,9.9297,9.9297,9.9297,9.9297,9.9568,10.004,10.0079,10.0272,10.0651,9.9839,9.9143,9.8794,9.836,9.8012,9.777,9.7476,9.7187,9.6953,9.6679,9.6211,9.5469,9.4492,9.375,9.3359,9.289,9.2578,9.2578,9.2578,9.2578,9.2578,9.2578,9.2578,9.2578,9.2578,9.2422,9.2187,9.2383,9.2578,9.2578,9.2578,9.2578,9.2578,9.2578,9.2578,9.2578,9.2617,9.2578,9.2578,9.2578,9.2617,9.2695,9.3047,9.3711,9.457,9.5429,9.5937,9.5976,9.6367,9.6445,9.6054,9.5625,9.4844,9.3711,9.289,9.2695,9.2617,9.2578,9.2578,9.2656,9.2617,9.2578,9.2617,9.2578,9.2695,9.2969,9.3137,9.3302,9.3745,9.4243,9.453,9.4989,9.5787,9.6511,9.8788,9.8826,9.8937,9.9068,9.9173,9.9228,9.9297,9.9289,9.9289,9.9259,9.9336,9.9297,9.9143,9.8794,9.8562,9.8756,9.9259,9.9328,9.9289,9.9289,9.9328,9.9289,9.9328,9.9297,9.9305,9.9305,9.9259,9.9413,9.9645,9.9645,9.9762,9.9955,10.0001,10.0001,10.0001,10.004,10.0311,10.0891,10.0929,10.127,10.1657,10.0651,9.9916,9.9645,9.9065,9.867,9.8244,9.7818,9.7517,9.7422,9.6992,9.6679,9.6445,9.5312,9.4414,9.3867,9.3086,9.2578,9.2578,9.2578,9.2578,9.2578,9.2578,9.2578,9.2578,9.2578,9.2578,9.2578,9.2578,9.2578,9.2578,9.2578,9.2578,9.2578,9.2578,9.2578,9.2578,9.2773,9.2969,9.2969,9.332,9.332,9.3437,9.4101,9.4922,9.5508,9.6289,9.6836,9.6875,9.7265,9.7422,9.6914,9.664,9.5859,9.4531,9.3867,9.3359,9.332,9.3437,9.3359,9.3047,9.2969,9.2695,9.2773,9.2656,9.2617,9.2734,9.2677,9.2736,9.2775,9.3228,9.3983,9.452,9.5436,9.6042,9.8788,9.8865,9.9046,9.9216,9.9112,9.9243,9.9243,9.939,9.9305,9.9305,9.946,9.9421,9.9769,10.038,9.9684,9.9297,9.9375,9.9452,9.9452,9.9452,9.9421,9.9344,9.9305,9.9305,9.9383,9.9537,9.9568,9.9839,10.0535,10.0535,10.0961,10.1657,10.1657,10.1696,10.1657,10.1618,10.1773,10.1734,10.1734,10.1812,10.1889,10.1812,10.1309,10.0581,10.0465,9.9684,9.8438,9.8244,9.7984,9.7343,9.7383,9.7148,9.6601,9.6406,9.5586,9.4101,9.3125,9.2656,9.2656,9.2656,9.2656,9.2578,9.2578,9.2617,9.2734,9.2734,9.2773,9.2656,9.2812,9.2773,9.2773,9.2695,9.2656,9.2695,9.2656,9.2656,9.2695,9.3476,9.3789,9.3945,9.4414,9.4804,9.5,9.5859,9.6172,9.6523,9.7109,9.7578,9.7539,9.7656,9.7617,9.7461,9.6992,9.6211,9.5351,9.4765,9.4804,9.4726,9.4453,9.4648,9.4219,9.375,9.3359,9.3008,9.3047,9.2969,9.2695,9.2693,9.288,9.2958,9.308,9.3592,9.4442,9.4811,9.5456,10.0404,10.0404,10.0627,10.0694,10.0645,10.0756,10.0771,10.082,10.0827,10.0883,10.0929,10.0929,10.1154,10.1425,10.1115,10.0961,10.0961,10.0961,10.0961,10.0961,10.0961,10.0929,10.0929,10.0929,10.0968,10.0999,10.0961,10.1115,10.1386,10.1425,10.158,10.1812,10.1889,10.1889,10.1889,10.1889,10.1889,10.1889,10.1889,10.1889,10.1889,10.1889,10.1734,10.1425,10.0883,10.0342,9.9723,9.8825,9.8208,9.8083,9.7721,9.7461,9.7265,9.6758,9.5976,9.4883,9.4453,9.4023,9.3515,9.3437,9.3164,9.2656,9.2578,9.2929,9.332,9.3437,9.3672,9.4101,9.4258,9.4258,9.4023,9.332,9.2812,9.332,9.3437,9.3633,9.4179,9.457,9.4726,9.4765,9.5039,9.539,9.5976,9.6289,9.6679,9.7187,9.7539,9.7656,9.7695,9.7695,9.7695,9.7656,9.7461,9.7148,9.6914,9.5781,9.5195,9.5156,9.5078,9.5078,9.4765,9.4726,9.4414,9.4179,9.3984,9.3945,9.3906,9.3906,9.3945,9.3984,9.4023,9.3982,9.4637,9.5241,9.5808,10.1289,10.1328,10.1514,10.1546,10.1431,10.1616,10.1665,10.1635,10.1693,10.171,10.185,10.1889,10.1889,10.1889,10.1889,10.1889,10.1889,10.1889,10.1889,10.1889,10.1889,10.1889,10.1889,10.1889,10.1889,10.1889,10.1889,10.1889,10.1889,10.1889,10.1889,10.1889,10.1889,10.1889,10.1889,10.1889,10.1889,10.1889,10.1889,10.1889,10.1889,10.1889,10.1889,10.1812,10.1309,10.0883,10.0581,9.9568,9.8825,9.8503,9.8045,9.7801,9.7656,9.6953,9.625,9.5703,9.5351,9.4961,9.4453,9.4297,9.4062,9.3515,9.3476,9.375,9.4258,9.4297,9.4648,9.5039,9.5195,9.5195,9.5,9.414,9.3711,9.4219,9.4336,9.4531,9.5117,9.5429,9.5742,9.5976,9.6094,9.6367,9.6758,9.6875,9.7148,9.7656,9.7695,9.7695,9.7695,9.7695,9.7695,9.7695,9.7695,9.7617,9.7461,9.6719,9.6328,9.6289,9.6094,9.5898,9.5625,9.5625,9.5508,9.5312,9.5234,9.5195,9.5195,9.5195,9.5234,9.5273,9.5,9.4804,9.5379,9.5904,9.6393,10.1289,10.1328,10.1552,10.1508,10.1392,10.1508,10.1593,10.152,10.1591,10.165,10.1773,10.185,10.1889,10.1889,10.1889,10.1889,10.1889,10.1889,10.1889,10.1889,10.1889,10.1889,10.1889,10.1889,10.1889,10.1889,10.1889,10.1889,10.1889,10.1889,10.1889,10.1889,10.1889,10.1889,10.1889,10.1966,10.1966,10.1928,10.1966,10.1966,10.1889,10.1889,10.1889,10.1889,10.1812,10.1464,10.0697,10.0535,9.9878,9.8806,9.853,9.8217,9.7695,9.7031,9.6523,9.6406,9.5781,9.5312,9.5195,9.5195,9.5195,9.4922,9.5039,9.5,9.5156,9.5195,9.5312,9.5469,9.5469,9.5351,9.5429,9.5273,9.5195,9.5234,9.5195,9.5273,9.5508,9.6015,9.6797,9.7344,9.7422,9.7617,9.7656,9.7578,9.7617,9.7656,9.7695,9.7695,9.7695,9.7695,9.7695,9.7695,9.7695,9.7695,9.7695,9.7695,9.7695,9.7617,9.7383,9.7148,9.664,9.6484,9.6289,9.6094,9.5976,9.5976,9.5976,9.5976,9.5859,9.582,9.5625,9.5742,9.6199,9.6685,9.6901,10.1289,10.1289,10.1479,10.1475,10.1434,10.1514,10.1558,10.1635,10.1595,10.1693,10.1819,10.1889,10.1889,10.1889,10.1889,10.1889,10.1889,10.1889,10.1889,10.1889,10.1889,10.1889,10.1889,10.1889,10.1889,10.1889,10.1889,10.1889,10.1889,10.1889,10.1889,10.1889,10.1928,10.1889,10.2005,10.2438,10.2554,10.2044,10.2508,10.2547,10.1966,10.1928,10.1928,10.1889,10.1889,10.1734,10.1502,10.0922,10.0496,10.0226,9.9132,9.8246,9.7773,9.7461,9.7344,9.7304,9.7109,9.664,9.6172,9.6054,9.582,9.539,9.5234,9.5508,9.5976,9.6094,9.6328,9.6758,9.6914,9.6914,9.6914,9.6914,9.664,9.6133,9.6094,9.6289,9.6719,9.7109,9.7422,9.7617,9.7695,9.7695,9.7695,9.7695,9.7695,9.7695,9.7695,9.7695,9.7695,9.7695,9.7695,9.7695,9.7695,9.7812,9.7929,9.8281,9.8594,9.8515,9.832,9.8242,9.7773,9.75,9.7265,9.707,9.6953,9.6836,9.6836,9.6719,9.6601,9.6719,9.6836,9.6992,9.7226,9.7355,9.7415,10.2289,10.2289,10.2405,10.2441,10.2362,10.2057,10.202,10.1982,10.1747,10.1693,10.1819,10.1889,10.1889,10.1889,10.1889,10.1889,10.1889,10.1889,10.1889,10.1889,10.1889,10.1889,10.1889,10.1889,10.1889,10.1889,10.1889,10.1889,10.1889,10.1928,10.2082,10.2315,10.2353,10.2547,10.2817,10.3327,10.3327,10.294,10.3398,10.3243,10.2547,10.2392,10.2237,10.1966,10.1889,10.1889,10.185,10.1348,10.1077,10.0838,9.9557,9.8548,9.8203,9.789,9.7695,9.7695,9.7656,9.7422,9.6992,9.6953,9.6758,9.625,9.6133,9.6328,9.6836,9.6953,9.7226,9.7578,9.7656,9.7695,9.7656,9.7656,9.7461,9.7031,9.6914,9.7187,9.7617,9.7695,9.7695,9.7695,9.7695,9.7695,9.7695,9.7695,9.7695,9.7695,9.7695,9.7695,9.7695,9.7695,9.7695,9.7851,9.8125,9.8242,9.832,9.8789,9.9414,9.9336,9.9179,9.914,9.8906,9.8906,9.875,9.8554,9.8437,9.8008,9.7969,9.7539,9.7344,9.7656,9.7773,9.7617,9.75,9.7539,9.7604,10.3866,10.3905,10.3945,10.383,10.3676,10.3059,10.279,10.2675,10.2054,10.1804,10.1858,10.1889,10.1889,10.1889,10.1889,10.1889,10.1889,10.1889,10.1889,10.1889,10.1889,10.1889,10.1889,10.1889,10.1889,10.1889,10.1889,10.1966,10.2121,10.2121,10.2392,10.3197,10.3274,10.3584,10.4087,10.4371,10.441,10.4216,10.4371,10.4055,10.3236,10.3127,10.274,10.1966,10.1889,10.1889,10.1889,10.1812,10.1611,10.1022,9.9804,9.9062,9.8828,9.8164,9.7695,9.7695,9.7695,9.7695,9.7656,9.7578,9.7539,9.7461,9.7422,9.7695,9.7578,9.7539,9.7578,9.7695,9.7695,9.7695,9.7695,9.7695,9.7656,9.7695,9.7539,9.7617,9.7656,9.7695,9.7695,9.7695,9.7695,9.7695,9.7695,9.7695,9.7695,9.7695,9.7695,9.7695,9.7695,9.7695,9.7734,9.8047,9.8515,9.8828,9.8984,9.9765,10.0351,10.039,10.0234,10.0234,9.9922,9.9844,9.9804,9.9687,9.9609,9.9258,9.8867,9.8437,9.8086,9.8086,9.8008,9.7812,9.7695,9.7695,9.7682,10.3905,10.3905,10.3944,10.3944,10.3944,10.3675,10.3676,10.3599,10.2902,10.2576,10.2585,10.2121,10.2005,10.1928,10.1928,10.1889,10.1966,10.1928,10.1889,10.1889,10.1889,10.1889,10.1889,10.1928,10.1928,10.1966,10.2082,10.2199,10.2817,10.2856,10.3313,10.4048,10.4087,10.421,10.441,10.5067,10.499,10.4603,10.5106,10.4603,10.3436,10.3243,10.2779,10.2005,10.1889,10.1889,10.1928,10.2005,10.1736,10.1098,10.0312,9.9531,9.9023,9.8242,9.7734,9.7695,9.7695,9.7695,9.7695,9.7695,9.7695,9.7695,9.7695,9.7695,9.7695,9.7695,9.7695,9.7695,9.7695,9.7695,9.7695,9.7695,9.7695,9.7695,9.7695,9.7695,9.7695,9.7695,9.7695,9.7695,9.7695,9.7695,9.7695,9.7695,9.7695,9.7695,9.7695,9.7695,9.7695,9.7851,9.7969,9.8515,9.8984,9.9375,9.9883,10.0703,10.125,10.1406,10.1406,10.1445,10.0898,10.0312,10.0273,10.0156,10.0234,10.0,9.9648,9.9297,9.8984,9.8474,9.8086,9.7773,9.7695,9.7687,9.7701,10.4943,10.4943,10.4943,10.4982,10.4943,10.4597,10.4482,10.4446,10.3789,10.3465,10.3404,10.3166,10.2933,10.2933,10.2624,10.2431,10.2431,10.2082,10.1889,10.1966,10.2276,10.2431,10.2469,10.2469,10.2624,10.2933,10.2933,10.3243,10.363,10.3707,10.4133,10.4783,10.4938,10.5138,10.557,10.5879,10.6028,10.5686,10.5957,10.5448,10.3868,10.3707,10.2972,10.2199,10.1889,10.1889,10.1928,10.1966,10.1835,10.1486,10.0976,10.0273,9.9492,9.8711,9.8086,9.7773,9.7695,9.7695,9.7695,9.7695,9.7695,9.7695,9.7695,9.7695,9.7695,9.7695,9.7695,9.7695,9.7695,9.7695,9.7695,9.7695,9.7695,9.7695,9.7695,9.7695,9.7695,9.7695,9.7695,9.7695,9.7695,9.7695,9.7695,9.7695,9.7695,9.7695,9.7695,9.7695,9.7695,9.8008,9.8437,9.9023,9.9765,10.0351,10.0781,10.1523,10.1914,10.2109,10.2109,10.2226,10.1875,10.1133,10.1289,10.125,10.1015,10.0781,10.0547,10.0038,9.9133,9.8614,9.8121,9.7812,9.7733,9.7693,9.7676,10.6405,10.6405,10.6405,10.6405,10.6213,10.5556,10.5287,10.5251,10.4561,10.4314,10.4332,10.4403,10.4133,10.4326,10.3552,10.3282,10.3127,10.2469,10.2199,10.2353,10.2779,10.3204,10.3584,10.3398,10.3636,10.4094,10.4365,10.4442,10.4519,10.4558,10.5022,10.5635,10.5828,10.6221,10.657,10.6879,10.6956,10.6802,10.6763,10.5989,10.4565,10.4178,10.3475,10.2121,10.1889,10.1889,10.1889,10.1928,10.192,10.2075,10.162,10.0937,10.0156,9.9492,9.8711,9.8008,9.7812,9.7695,9.7695,9.7695,9.7695,9.7695,9.7695,9.7695,9.7695,9.7695,9.7695,9.7695,9.7695,9.7695,9.7695,9.7695,9.7695,9.7695,9.7695,9.7695,9.7695,9.7695,9.7695,9.7695,9.7695,9.7695,9.7695,9.7695,9.7695,9.7695,9.7734,9.7851,9.8047,9.8437,9.8984,9.9648,10.0508,10.1484,10.1875,10.2344,10.2539,10.2734,10.2656,10.2695,10.2656,10.2344,10.2617,10.2578,10.1992,10.1719,10.1601,10.0847,9.962,9.8899,9.8496,9.8043,9.7695,9.7693,9.7687,10.6405,10.6405,10.6405,10.6405,10.6367,10.6213,10.6136,10.6059,10.5409,10.5132,10.5073,10.4674,10.4519,10.4442,10.4249,10.3823,10.332,10.2972,10.2933,10.294,10.3056,10.4055,10.4713,10.4526,10.4294,10.4526,10.4442,10.479,10.5254,10.5487,10.5835,10.657,10.6608,10.6802,10.6956,10.6995,10.6995,10.6995,10.6956,10.6067,10.4758,10.4294,10.3552,10.2082,10.1889,10.1889,10.1889,10.1889,10.1928,10.1826,10.1518,10.1221,10.082,9.9844,9.9023,9.8594,9.8047,9.7734,9.7695,9.7695,9.7695,9.7695,9.7695,9.7695,9.7695,9.7695,9.7695,9.7695,9.7695,9.7695,9.7695,9.7695,9.7695,9.7695,9.7695,9.7695,9.7695,9.7695,9.7695,9.7695,9.7695,9.7695,9.7695,9.7695,9.7695,9.7695,9.7812,9.8047,9.8437,9.8867,9.9609,10.0312,10.1133,10.1992,10.2344,10.2656,10.2734,10.289,10.289,10.289,10.289,10.289,10.289,10.289,10.2773,10.2578,10.2304,10.1171,9.9874,9.939,9.8827,9.8149,9.7691,9.7691,9.7691,10.6405,10.6405,10.6405,10.6405,10.6405,10.6405,10.6405,10.6328,10.614,10.6022,10.5962,10.568,10.5641,10.5564,10.5177,10.4558,10.3823,10.3352,10.3398,10.3784,10.4178,10.5106,10.5951,10.5912,10.5609,10.557,10.5641,10.5951,10.6221,10.6299,10.6492,10.6956,10.6995,10.6956,10.6995,10.6995,10.6995,10.6879,10.6531,10.5719,10.4603,10.4017,10.332,10.216,10.1889,10.1889,10.1889,10.1889,10.1889,10.185,10.1765,10.1541,10.127,10.0586,9.9922,9.9023,9.8633,9.8047,9.7851,9.7695,9.7695,9.7695,9.7695,9.7695,9.7695,9.7695,9.7695,9.7695,9.7695,9.7695,9.7695,9.7695,9.7695,9.7695,9.7695,9.7695,9.7695,9.7695,9.7695,9.7695,9.7695,9.7695,9.7695,9.7695,9.7695,9.7695,9.7773,9.8008,9.8828,9.9336,10.0234,10.1015,10.1758,10.2383,10.2695,10.2851,10.2851,10.289,10.289,10.289,10.289,10.289,10.289,10.289,10.2851,10.289,10.25,10.1289,10.0273,9.9762,9.909,9.8234,9.7684,9.7684,9.7689,10.6405,10.6405,10.6405,10.6405,10.6405,10.6405,10.6405,10.6444,10.66,10.6601,10.673,10.6918,10.6724,10.6763,10.6221,10.537,10.4365,10.3623,10.3514,10.4255,10.5067,10.5951,10.6647,10.6763,10.6763,10.6995,10.6802,10.6879,10.6879,10.6995,10.6879,10.6995,10.6995,10.6995,10.6995,10.6995,10.6995,10.6918,10.6221,10.537,10.4448,10.3707,10.2856,10.2082,10.1889,10.1889,10.1889,10.1889,10.1889,10.1928,10.2199,10.1957,10.1572,10.1328,10.1094,9.9492,9.9179,9.8633,9.8125,9.7812,9.7695,9.7695,9.7695,9.7695,9.7695,9.7695,9.7695,9.7695,9.7695,9.7695,9.7695,9.7695,9.7695,9.7695,9.7695,9.7695,9.7695,9.7695,9.7695,9.7695,9.7695,9.7695,9.7695,9.7695,9.7695,9.7734,9.7812,9.8164,9.9023,9.9922,10.0859,10.1562,10.2265,10.2578,10.2812,10.289,10.289,10.289,10.289,10.289,10.289,10.289,10.289,10.289,10.289,10.2851,10.2383,10.1211,10.039,10.0039,9.9132,9.8023,9.7706,9.7711,9.768,10.6405,10.6405,10.6405,10.6405,10.6405,10.6405,10.6405,10.6446,10.6642,10.6673,10.6691,10.6918,10.6995,10.6918,10.6918,10.5912,10.4597,10.3855,10.3784,10.4565,10.5415,10.6299,10.684,10.6995,10.6995,10.6995,10.6995,10.6995,10.6995,10.6995,10.6995,10.6995,10.6995,10.6995,10.6995,10.6995,10.6956,10.6724,10.5989,10.5138,10.4326,10.3475,10.274,10.1966,10.1889,10.1889,10.1889,10.1889,10.1889,10.1928,10.2082,10.2151,10.2045,10.1834,10.1445,10.0859,9.9765,9.9023,9.8633,9.8047,9.7773,9.7695,9.7695,9.7695,9.7695,9.7695,9.7695,9.7695,9.7695,9.7695,9.7695,9.7695,9.7695,9.7695,9.7695,9.7695,9.7695,9.7695,9.7695,9.7695,9.7695,9.7695,9.7695,9.7695,9.7695,9.789,9.8242,9.8789,9.9687,10.0586,10.1562,10.2187,10.2734,10.2812,10.289,10.289,10.289,10.289,10.289,10.289,10.289,10.289,10.289,10.289,10.2773,10.2617,10.1914,10.0976,10.0195,9.957,9.8672,9.7695,9.7689,9.7695,9.7701,10.6405,10.6405,10.6405,10.6405,10.6405,10.6405,10.6405,10.6446,10.6601,10.6663,10.673,10.6879,10.6995,10.6995,10.6995,10.6221,10.5177,10.4706,10.4745,10.5261,10.5957,10.6531,10.6956,10.6995,10.6995,10.6995,10.6995,10.6995,10.6995,10.6995,10.6995,10.6995,10.6995,10.6995,10.6995,10.6995,10.6724,10.6338,10.5487,10.4636,10.3784,10.2972,10.2315,10.2044,10.1889,10.1889,10.1928,10.1966,10.1966,10.1966,10.2121,10.23,10.2321,10.2226,10.1953,10.1484,10.039,9.9414,9.8984,9.8203,9.7734,9.7695,9.7695,9.7695,9.7695,9.7695,9.7695,9.7695,9.7695,9.7695,9.7695,9.7695,9.7695,9.7695,9.7695,9.7695,9.7695,9.7695,9.7695,9.7695,9.7695,9.7695,9.7695,9.7695,9.7695,9.8008,9.8554,9.9375,10.0273,10.1172,10.207,10.2461,10.289,10.289,10.289,10.289,10.289,10.289,10.289,10.289,10.289,10.289,10.289,10.289,10.2734,10.2578,10.1758,10.0898,10.0039,9.914,9.8359,9.774,9.7728,9.7682,9.7689,10.6405,10.6405,10.6405,10.6405,10.6405,10.6405,10.6405,10.6448,10.6596,10.6691,10.6724,10.6918,10.6995,10.6918,10.6724,10.6299,10.568,10.5635,10.5596,10.5796,10.6492,10.6995,10.6995,10.6995,10.6995,10.6995,10.6995,10.6995,10.6995,10.6995,10.6995,10.6995,10.6995,10.6995,10.6995,10.6995,10.6454,10.5719,10.4829,10.3978,10.3011,10.2315,10.1889,10.1889,10.1889,10.1889,10.1928,10.1966,10.2005,10.2005,10.2121,10.2346,10.2445,10.2517,10.2344,10.1836,10.1054,10.0195,9.9336,9.8515,9.8008,9.7734,9.7695,9.7695,9.7695,9.7695,9.7695,9.7695,9.7695,9.7695,9.7695,9.7695,9.7695,9.7695,9.7695,9.7695,9.7695,9.7695,9.7695,9.7695,9.7695,9.7695,9.7695,9.7773,9.7773,9.8515,9.9062,9.9883,10.0742,10.1562,10.2304,10.2656,10.289,10.289,10.289,10.289,10.289,10.289,10.289,10.289,10.289,10.289,10.289,10.289,10.289,10.2617,10.1719,10.0742,9.9804,9.8945,9.8203,9.7793,9.7728,9.7682,9.7682,10.6448,10.6405,10.6448,10.6448,10.6405,10.6405,10.6405,10.6407,10.6601,10.6701,10.6686,10.684,10.6918,10.6724,10.6183,10.5835,10.5719,10.5796,10.5835,10.6028,10.6647,10.6995,10.6995,10.6995,10.6995,10.6995,10.6995,10.6995,10.6995,10.6995,10.6995,10.6995,10.6995,10.6995,10.6995,10.6995,10.6531,10.568,10.4783,10.3623,10.2392,10.1966,10.1928,10.1889,10.1889,10.1889,10.1928,10.1966,10.1966,10.2044,10.2005,10.2199,10.2475,10.2498,10.2607,10.2422,10.1953,10.1054,10.0117,9.9179,9.8359,9.7851,9.7695,9.7695,9.7695,9.7695,9.7695,9.7695,9.7695,9.7695,9.7695,9.7695,9.7695,9.7695,9.7695,9.7695,9.7695,9.7695,9.7695,9.7695,9.7695,9.7695,9.7695,9.7812,9.7969,9.8789,9.9609,10.039,10.1172,10.1953,10.2461,10.2773,10.289,10.289,10.289,10.289,10.289,10.289,10.289,10.289,10.289,10.289,10.289,10.289,10.289,10.2344,10.1172,10.0234,9.9453,9.8696,9.7945,9.774,9.7682,9.7675,9.7675,10.6526,10.6405,10.6487,10.6448,10.6405,10.6405,10.6405,10.6405,10.6603,10.6676,10.6614,10.6338,10.6028,10.5641,10.5564,10.5719,10.5835,10.6144,10.6415,10.6415,10.6802,10.6995,10.6995,10.6995,10.6995,10.6995,10.6995,10.6995,10.6995,10.6995,10.6995,10.6995,10.6995,10.6995,10.6995,10.6995,10.6144,10.4984,10.3707,10.2663,10.2082,10.1889,10.1889,10.1889,10.1889,10.1889,10.1928,10.2005,10.2005,10.2082,10.2044,10.2199,10.2465,10.2516,10.2539,10.2812,10.2578,10.1679,10.0429,9.9531,9.8672,9.7969,9.7695,9.7695,9.7695,9.7695,9.7695,9.7695,9.7695,9.7695,9.7695,9.7695,9.7695,9.7695,9.7695,9.7695,9.7695,9.7695,9.7695,9.7695,9.7695,9.7695,9.7695,9.7734,9.8125,9.9023,9.9804,10.0547,10.1406,10.2187,10.2617,10.2851,10.289,10.289,10.289,10.289,10.289,10.289,10.289,10.289,10.289,10.289,10.289,10.289,10.289,10.2031,10.0664,10.0039,9.9609,9.8692,9.7689,9.7682,9.7675,9.7675,9.7675,10.6565,10.6407,10.6488,10.6526,10.6405,10.6444,10.6405,10.6444,10.6597,10.668,10.6542,10.6028,10.5254,10.4674,10.51,10.5409,10.5757,10.6376,10.6802,10.6918,10.6995,10.6995,10.6995,10.6995,10.6995,10.6995,10.6995,10.6995,10.6995,10.6995,10.6995,10.6995,10.6995,10.6995,10.6995,10.6879,10.6221,10.4519,10.2895,10.2082,10.1889,10.1889,10.1889,10.1889,10.1889,10.1889,10.1928,10.1966,10.2044,10.216,10.2121,10.2276,10.26,10.2589,10.262,10.2734,10.2578,10.1719,10.0625,9.9687,9.8789,9.8086,9.7695,9.7695,9.7695,9.7695,9.7695,9.7695,9.7695,9.7695,9.7695,9.7695,9.7695,9.7695,9.7695,9.7695,9.7695,9.7695,9.7695,9.7695,9.7695,9.7695,9.7695,9.7695,9.8203,9.9179,10.0,10.0781,10.1601,10.25,10.2695,10.289,10.289,10.289,10.289,10.289,10.289,10.289,10.289,10.289,10.289,10.289,10.289,10.289,10.289,10.1914,10.0703,10.0273,9.9804,9.8618,9.7695,9.7682,9.7675,9.7675,9.7675,10.6603,10.6526,10.6641,10.6603,10.6482,10.6444,10.6405,10.6405,10.6597,10.6642,10.6382,10.5912,10.51,10.4519,10.4403,10.4906,10.5647,10.5725,10.6338,10.6802,10.6995,10.6995,10.6995,10.6995,10.6995,10.6995,10.6995,10.6995,10.6995,10.6995,10.6995,10.6995,10.6995,10.6995,10.6879,10.6647,10.5906,10.4319,10.274,10.1966,10.1889,10.1889,10.1889,10.1889,10.1889,10.1889,10.1889,10.1928,10.2044,10.2276,10.2199,10.2281,10.2639,10.261,10.2654,10.25,10.2187,10.1328,10.0312,9.9844,9.9219,9.8242,9.7695,9.7695,9.7695,9.7695,9.7695,9.7695,9.7695,9.7695,9.7695,9.7695,9.7695,9.7695,9.7695,9.7695,9.7695,9.7695,9.7695,9.7695,9.7695,9.7695,9.789,9.7929,9.8633,9.9609,10.0664,10.1445,10.207,10.2773,10.2812,10.289,10.289,10.289,10.289,10.289,10.289,10.289,10.289,10.289,10.289,10.289,10.289,10.289,10.2812,10.1758,10.0898,10.0429,9.9683,9.8383,9.7706,9.7689,9.7675,9.7675,9.7675,10.6641,10.6641,10.6716,10.6642,10.6521,10.6444,10.6405,10.6444,10.6597,10.6102,10.5332,10.4984,10.4133,10.332,10.3514,10.4133,10.4906,10.5493,10.6183,10.6763,10.6995,10.6995,10.6995,10.6995,10.6995,10.6995,10.6995,10.6995,10.6995,10.6995,10.6995,10.6995,10.6995,10.6995,10.6802,10.6067,10.5061,10.428,10.2887,10.1928,10.1889,10.1889,10.1889,10.1889,10.1889,10.1889,10.1889,10.1889,10.2044,10.216,10.216,10.2367,10.2565,10.2561,10.2362,10.207,10.164,10.082,9.9804,9.9492,9.8906,9.8125,9.7695,9.7695,9.7695,9.7695,9.7695,9.7695,9.7695,9.7695,9.7695,9.7695,9.7695,9.7695,9.7695,9.7695,9.7695,9.7695,9.7695,9.7695,9.7695,9.7695,9.7969,9.8242,9.914,10.0078,10.1133,10.207,10.2578,10.289,10.289,10.289,10.289,10.289,10.289,10.289,10.289,10.289,10.289,10.289,10.289,10.289,10.289,10.289,10.2734,10.1914,10.1172,10.0586,9.9562,9.8227,9.774,9.7682,9.7675,9.7675,9.7675,10.6716,10.6714,10.6678,10.6642,10.6563,10.6484,10.6405,10.6444,10.6636,10.5832,10.4442,10.4365,10.3475,10.2469,10.2508,10.3282,10.4094,10.4906,10.5796,10.6376,10.6802,10.6956,10.6995,10.6995,10.6995,10.6995,10.6995,10.6995,10.6995,10.6995,10.6995,10.6995,10.6995,10.6995,10.6608,10.5377,10.4326,10.3739,10.281,10.1928,10.1889,10.1889,10.1889,10.1889,10.1889,10.1889,10.1889,10.1928,10.1966,10.2082,10.2174,10.2268,10.2327,10.2222,10.1914,10.1484,10.0898,10.0156,9.9336,9.8633,9.8359,9.7773,9.7695,9.7695,9.7695,9.7695,9.7695,9.7695,9.7695,9.7695,9.7695,9.7695,9.7695,9.7695,9.7695,9.7695,9.7695,9.7695,9.7695,9.7695,9.7695,9.7851,9.8711,9.9179,10.0039,10.0898,10.1719,10.2383,10.2656,10.289,10.289,10.289,10.289,10.289,10.289,10.289,10.289,10.289,10.289,10.289,10.289,10.289,10.289,10.289,10.2617,10.207,10.1445,10.0742,9.9444,9.8032,9.7818,9.7675,9.7675,9.7675,9.7675,10.6753,10.6786,10.6753,10.6678,10.6642,10.6486,10.6405,10.6405,10.6561,10.5831,10.4487,10.4403,10.3475,10.2237,10.2082,10.2624,10.3436,10.421,10.5061,10.5912,10.6686,10.6956,10.6995,10.6995,10.6995,10.6995,10.6995,10.6995,10.6995,10.6995,10.6995,10.6918,10.6879,10.6802,10.6763,10.5222,10.4023,10.3236,10.2353,10.2005,10.1889,10.1889,10.1889,10.1889,10.1889,10.1889,10.1889,10.1889,10.1966,10.2044,10.2199,10.2306,10.2282,10.1802,10.1484,10.1211,9.9804,9.9101,9.8867,9.8164,9.7851,9.7734,9.7695,9.7695,9.7695,9.7695,9.7695,9.7695,9.7695,9.7695,9.7695,9.7695,9.7695,9.7695,9.7695,9.7695,9.7695,9.7695,9.7695,9.7812,9.7851,9.8086,9.9258,10.0234,10.1054,10.1797,10.2422,10.2773,10.289,10.289,10.289,10.289,10.289,10.289,10.289,10.289,10.289,10.289,10.289,10.289,10.289,10.289,10.289,10.289,10.2695,10.2344,10.1601,10.0859,9.9366,9.8032,9.7812,9.7675,9.7675,9.7675,9.7675,10.6751,10.6783,10.6714,10.6679,10.668,10.6486,10.6405,10.6407,10.6486,10.5851,10.4603,10.4403,10.3475,10.2353,10.1966,10.2353,10.3166,10.4048,10.4899,10.5719,10.657,10.6918,10.6995,10.6995,10.6995,10.6995,10.6995,10.6995,10.6995,10.6995,10.6995,10.6918,10.6376,10.6144,10.5686,10.4565,10.3404,10.3088,10.2392,10.1889,10.1889,10.1889,10.1889,10.1889,10.1889,10.1889,10.1889,10.1889,10.1928,10.2005,10.216,10.2194,10.2035,10.1533,10.0894,10.0426,9.9219,9.8594,9.8281,9.7812,9.7734,9.7695,9.7695,9.7695,9.7695,9.7695,9.7695,9.7695,9.7695,9.7695,9.7695,9.7695,9.7695,9.7695,9.7695,9.7695,9.7695,9.7695,9.7734,9.7929,9.8047,9.9258,10.0429,10.0976,10.1719,10.2187,10.2695,10.2812,10.289,10.289,10.289,10.289,10.289,10.289,10.289,10.289,10.289,10.289,10.289,10.289,10.289,10.2926,10.289,10.289,10.2812,10.2617,10.1562,10.0502,9.9174,9.8191,9.7851,9.7675,9.7675,9.7675,9.7675,10.6789,10.6856,10.6751,10.6755,10.6681,10.6446,10.6444,10.6446,10.629,10.5537,10.4558,10.4133,10.3243,10.2199,10.1966,10.2082,10.2856,10.3932,10.4513,10.5409,10.6492,10.6879,10.6995,10.6995,10.6995,10.6995,10.6995,10.6995,10.6995,10.6995,10.6802,10.6338,10.568,10.51,10.4597,10.3714,10.3056,10.2701,10.2082,10.1889,10.1889,10.1889,10.1889,10.1889,10.1889,10.1889,10.1889,10.1889,10.1889,10.1928,10.2005,10.2044,10.1812,10.1077,10.0458,9.9759,9.8828,9.8203,9.7812,9.7734,9.7695,9.7695,9.7695,9.7695,9.7695,9.7695,9.7695,9.7695,9.7695,9.7695,9.7695,9.7695,9.7773,9.7773,9.7812,9.7851,9.8203,9.8242,9.8437,9.8594,9.9023,10.0273,10.1328,10.1797,10.2304,10.2617,10.289,10.289,10.289,10.289,10.289,10.289,10.289,10.289,10.289,10.289,10.289,10.289,10.289,10.289,10.291,10.2905,10.2921,10.289,10.2851,10.2461,10.1289,10.0147,9.9168,9.8375,9.7812,9.7682,9.7675,9.7675,9.7675,10.6825,10.6962,10.6856,10.6753,10.6681,10.6486,10.6521,10.66,10.5794,10.5087,10.4365,10.363,10.2779,10.2044,10.1889,10.1966,10.2353,10.37,10.428,10.5022,10.626,10.6724,10.6995,10.6995,10.6995,10.6995,10.6995,10.6995,10.6995,10.6763,10.6376,10.5641,10.4822,10.4087,10.3475,10.3056,10.2592,10.2199,10.2044,10.1889,10.1889,10.1889,10.1889,10.1889,10.1889,10.1889,10.1889,10.1889,10.1889,10.1928,10.2005,10.2044,10.158,10.0496,9.9994,9.9229,9.8146,9.7851,9.7695,9.7695,9.7695,9.7695,9.7695,9.7695,9.7695,9.7695,9.7695,9.7695,9.7695,9.7695,9.7695,9.7812,9.7929,9.8008,9.8086,9.8398,9.8906,9.9179,9.9453,9.9726,10.0078,10.0937,10.1719,10.2304,10.2617,10.2734,10.289,10.289,10.289,10.289,10.289,10.289,10.289,10.289,10.289,10.289,10.289,10.289,10.289,10.2927,10.291,10.292,10.29,10.2914,10.29,10.2269,10.103,10.0171,9.9507,9.871,9.7799,9.7682,9.7675,9.7675,9.7675,10.6786,10.6995,10.6825,10.6716,10.6679,10.6486,10.6521,10.66,10.5794,10.501,10.4358,10.3552,10.2663,10.1966,10.1889,10.1889,10.2508,10.3429,10.4164,10.5061,10.6183,10.6763,10.6995,10.6995,10.6995,10.6995,10.6995,10.6995,10.684,10.6531,10.5686,10.4758,10.4087,10.3197,10.2624,10.2315,10.2121,10.2005,10.1928,10.1889,10.1889,10.1889,10.1889,10.1889,10.1889,10.1889,10.1889,10.1889,10.1889,10.1928,10.1928,10.1966,10.185,10.034,9.9226,9.8088,9.7617,9.7578,9.7656,9.7695,9.7695,9.7695,9.7695,9.7695,9.7695,9.7695,9.7695,9.7695,9.7695,9.7734,9.7969,9.8164,9.8437,9.8672,9.8867,9.9336,9.9804,10.0,10.0273,10.0625,10.0976,10.1484,10.2265,10.2539,10.2773,10.2851,10.289,10.289,10.289,10.289,10.289,10.289,10.289,10.289,10.289,10.289,10.289,10.289,10.289,10.289,10.2914,10.2894,10.2927,10.2894,10.2905,10.1996,10.0656,10.0031,9.9686,9.8587,9.7675,9.7675,9.7675,9.7675,9.7675,10.6825,10.6962,10.6825,10.6714,10.6602,10.6448,10.6521,10.6446,10.5409,10.4662,10.428,10.3166,10.2392,10.1966,10.1889,10.1928,10.2044,10.3545,10.4396,10.4829,10.6183,10.6724,10.6995,10.6995,10.6995,10.6995,10.6995,10.6995,10.6763,10.6144,10.5261,10.4448,10.3591,10.274,10.2199,10.2005,10.1966,10.1928,10.1889,10.1889,10.1889,10.1889,10.1889,10.1889,10.1889,10.1889,10.1889,10.1889,10.1889,10.1889,10.1889,10.1928,10.1688,10.0379,9.8711,9.7704,9.7383,9.7461,9.7578,9.7656,9.7695,9.7695,9.7695,9.7695,9.7695,9.7695,9.7695,9.7695,9.7734,9.7851,9.8281,9.8672,9.9062,9.9492,9.9922,10.039,10.0586,10.0781,10.1094,10.1406,10.1836,10.2265,10.2656,10.2812,10.289,10.289,10.289,10.289,10.289,10.289,10.289,10.289,10.289,10.289,10.289,10.289,10.289,10.289,10.289,10.289,10.289,10.29,10.2927,10.2905,10.2921,10.1816,10.0656,10.0298,9.9829,9.8612,9.7675,9.7675,9.7675,9.7675,9.7675,10.6825,10.6962,10.6856,10.6676,10.6525,10.6448,10.6521,10.6523,10.4947,10.4202,10.4055,10.2624,10.1966,10.1889,10.1889,10.1889,10.2353,10.3584,10.4396,10.4519,10.6183,10.6956,10.6995,10.6995,10.6995,10.6995,10.6995,10.6995,10.6724,10.5989,10.4984,10.4365,10.3359,10.2547,10.2005,10.1928,10.1889,10.1889,10.1889,10.1889,10.1889,10.1889,10.1889,10.1889,10.1889,10.1889,10.1889,10.1889,10.1889,10.1889,10.1928,10.1966,10.1146,10.0402,9.8708,9.7742,9.7316,9.7383,9.7539,9.7656,9.7695,9.7695,9.7695,9.7695,9.7695,9.7695,9.7695,9.7695,9.7734,9.8125,9.8515,9.914,9.9648,10.0273,10.0859,10.1289,10.1601,10.1719,10.1875,10.2148,10.2344,10.2734,10.2773,10.289,10.289,10.289,10.289,10.289,10.289,10.289,10.289,10.289,10.289,10.289,10.289,10.289,10.289,10.289,10.289,10.289,10.289,10.2894,10.292,10.291,10.2845,10.1859,10.0864,10.05,9.9744,9.8377,9.7675,9.7675,9.7675,9.7675,9.7675,10.6751,10.6856,10.6751,10.6603,10.6486,10.6487,10.6602,10.6638,10.4985,10.4314,10.4055,10.2771,10.1889,10.1889,10.1889,10.1928,10.2353,10.3584,10.428,10.4984,10.626,10.6956,10.6995,10.6995,10.6995,10.6995,10.6995,10.6956,10.6686,10.568,10.4636,10.4249,10.3127,10.2121,10.1928,10.1889,10.1889,10.1889,10.1889,10.1889,10.1889,10.1889,10.1889,10.1889,10.1889,10.1889,10.1889,10.1889,10.1889,10.1889,10.1889,10.1309,10.0226,9.9645,9.8678,9.7567,9.7285,9.7316,9.7461,9.7578,9.7656,9.7695,9.7695,9.7695,9.7695,9.7695,9.7734,9.7734,9.7929,9.8359,9.8984,9.9648,10.0312,10.1054,10.1758,10.2148,10.25,10.2578,10.2656,10.2734,10.289,10.289,10.289,10.289,10.289,10.289,10.289,10.289,10.289,10.289,10.289,10.289,10.289,10.289,10.289,10.289,10.289,10.289,10.289,10.289,10.289,10.292,10.292,10.2871,10.2647,10.1781,10.1025,10.05,9.9588,9.8221,9.7675,9.7675,9.7675,9.7675,9.7675,10.6678,10.6751,10.6641,10.6565,10.6484,10.6487,10.6603,10.6448,10.5021,10.4353,10.4164,10.2771,10.1889,10.1889,10.1889,10.2199,10.2585,10.3777,10.459,10.5364,10.6144,10.6802,10.6995,10.6995,10.6995,10.6995,10.6995,10.6879,10.6686,10.5409,10.4403,10.4133,10.2817,10.1889,10.1889,10.1889,10.1889,10.1889,10.1889,10.1889,10.1889,10.1889,10.1889,10.1889,10.1889,10.1889,10.1889,10.1889,10.1889,10.1889,10.1889,10.1309,10.0393,9.9656,9.8789,9.7915,9.7429,9.7198,9.733,9.7461,9.7617,9.7617,9.7695,9.7695,9.8359,9.8398,9.8398,9.8398,9.8398,9.8828,10.0,10.082,10.1367,10.2031,10.2304,10.2617,10.2734,10.2773,10.2812,10.2812,10.289,10.289,10.289,10.289,10.289,10.289,10.289,10.289,10.289,10.289,10.289,10.289,10.289,10.289,10.289,10.289,10.289,10.289,10.289,10.289,10.291,10.2927,10.292,10.2861,10.2601,10.1902,10.1226,10.0539,9.9431,9.8104,9.7753,9.7675,9.7675,9.7675,9.7675,10.6526,10.6641,10.6526,10.6448,10.6446,10.6487,10.6637,10.6465,10.5013,10.4353,10.4164,10.2624,10.2005,10.1889,10.1928,10.2547,10.3204,10.401,10.4783,10.5673,10.6531,10.6879,10.6995,10.6995,10.6995,10.6995,10.6995,10.6995,10.6918,10.537,10.4326,10.4017,10.305,10.1889,10.1889,10.1889,10.1889,10.1889,10.1889,10.1889,10.1889,10.1889,10.1889,10.1889,10.1889,10.1889,10.1889,10.1889,10.1889,10.1889,10.185,10.1348,10.0596,9.9772,9.8932,9.8137,9.7363,9.7141,9.7106,9.7344,9.7422,9.7539,9.7617,9.7969,9.8633,9.8906,9.8906,9.914,9.914,9.9648,10.0859,10.1601,10.2109,10.2578,10.2773,10.289,10.289,10.289,10.289,10.289,10.289,10.289,10.289,10.289,10.289,10.289,10.289,10.289,10.289,10.289,10.289,10.289,10.289,10.289,10.289,10.2921,10.2905,10.289,10.289,10.289,10.2917,10.2894,10.2874,10.2881,10.2465,10.1933,10.1182,10.0415,9.9236,9.8026,9.7792,9.7675,9.7675,9.7675,9.7675,10.6488,10.6526,10.6488,10.6525,10.6638,10.6642,10.6786,10.6653,10.5112,10.4371,10.401,10.2771,10.1889,10.1889,10.1889,10.2431,10.3436,10.4171,10.4938,10.5751,10.6647,10.6918,10.6995,10.6995,10.6995,10.6995,10.6995,10.6995,10.6724,10.5332,10.4403,10.4287,10.2701,10.1928,10.1889,10.1889,10.1889,10.1889,10.1889,10.1889,10.1889,10.1889,10.1889,10.1889,10.1889,10.1889,10.1889,10.1889,10.1889,10.1889,10.185,10.1502,10.0798,9.9947,9.9067,9.8331,9.7557,9.7054,9.707,9.7215,9.7294,9.7461,9.7578,9.7734,9.832,9.8828,9.914,10.0,10.0156,10.0508,10.1406,10.164,10.207,10.2578,10.289,10.289,10.289,10.289,10.289,10.289,10.289,10.289,10.289,10.289,10.289,10.289,10.289,10.289,10.289,10.289,10.289,10.289,10.289,10.289,10.289,10.289,10.2927,10.2905,10.2917,10.2921,10.2917,10.2894,10.2881,10.2835,10.2576,10.208,10.1287,10.029,9.9275,9.8221,9.787,9.7675,9.7675,9.7675,9.7675]},{"header":{"parameterUnit":"m.s-1","parameterCategory":1,"la1":31.0,"la2":29.5877,"lo1":-88.7671,"lo2":-86.6584,"dx":0.0162,"dy":0.0185,"nx":115,"ny":88,"refTime":"2022-11-15T06:00:00:Z","depth":0,"parameterNumber":3,"parameterNumberName":"V-component_of_WINDS"},"data":[0.0,0.0,0.0,0.0,0.0,0.0,0.0,0.0,0.0,0.0,0.0,0.0,0.0,0.0,0.0,0.0,0.0,0.0,0.0,0.0,0.0,0.0,0.0,0.0,0.0,0.0,0.0,0.0,0.0,0.0,0.0,0.0,0.0,0.0,0.0,0.0,0.0,0.0,0.0,0.0,0.0,0.0,0.0,0.0,0.0,0.0,0.0,0.0,0.0,0.0,0.0,0.0,0.0,0.0,0.0,0.0,0.0,0.0,0.0,0.0,0.0,0.0,0.0,0.0,0.0,0.0,0.0,0.0,0.0,0.0,0.0,0.0,0.0,0.0,0.0,0.0,0.0,0.0,0.0,0.0,0.0,0.0,0.0,0.0,0.0,0.0,0.0,0.0,0.0,0.0,0.0,0.0,0.0,0.0,0.0,0.0,0.0,0.0,0.0,0.0,0.0,0.0,0.0,0.0,0.0,0.0,0.0,0.0,0.0,0.0,0.0,0.0,0.0,0.0,0.0,0.0,0.0,0.0,0.0,0.0,0.0,0.0,0.0,0.0,0.0,0.0,0.0,0.0,0.0,0.0,0.0,0.0,0.0,0.0,0.0,0.0,0.0,0.0,0.0,0.0,0.0,0.0,0.0,0.0,0.0,0.0,0.0,0.0,0.0,0.0,0.0,0.0,0.0,0.0,0.0,0.0,0.0,0.0,0.0,0.0,0.0,0.0,0.0,0.0,0.0,0.0,0.0,0.0,0.0,0.0,0.0,0.0,0.0,0.0,0.0,0.0,0.0,0.0,0.0,0.0,0.0,0.0,0.0,0.0,0.0,0.0,0.0,0.0,0.0,0.0,0.0,0.0,0.0,0.0,0.0,0.0,0.0,0.0,0.0,0.0,0.0,0.0,0.0,0.0,0.0,0.0,0.0,0.0,0.0,0.0,0.0,0.0,0.0,0.0,0.0,0.0,0.0,0.0,0.0,0.0,0.0,0.0,0.0,0.0,0.0,0.0,0.0,0.0,0.0,0.0,0.0,0.0,0.0,0.0,0.0,0.0,0.0,0.0,0.0,0.0,0.0,0.0,0.0,0.0,0.0,0.0,0.0,0.0,0.0,0.0,0.0,0.0,0.0,0.0,0.0,0.0,0.0,0.0,0.0,0.0,0.0,0.0,0.0,0.0,0.0,0.0,0.0,0.0,0.0,0.0,0.0,0.0,0.0,0.0,0.0,0.0,0.0,0.0,0.0,0.0,0.0,0.0,0.0,0.0,0.0,0.0,0.0,0.0,0.0,0.0,0.0,0.0,0.0,0.0,0.0,0.0,0.0,0.0,0.0,0.0,0.0,0.0,0.0,0.0,0.0,0.0,0.0,0.0,0.0,0.0,0.0,0.0,0.0,0.0,0.0,0.0,0.0,0.0,0.0,0.0,0.0,0.0,0.0,0.0,0.0,0.0,0.0,0.0,0.0,0.0,0.0,0.0,0.0,0.0,0.0,0.0,0.0,0.0,0.0,0.0,0.0,0.0,0.0,0.0,0.0,0.0,0.0,0.0,0.0,0.0,0.0,0.0,0.0,0.0,0.0,0.0,0.0,0.0,0.0,0.0,0.0,0.0,0.0,0.0,0.0,0.0,0.0,0.0,0.0,0.0,0.0,0.0,0.0,0.0,0.0,0.0,0.0,0.0,0.0,0.0,0.0,0.0,0.0,0.0,0.0,0.0,0.0,0.0,0.0,0.0,0.0,0.0,0.0,0.0,0.0,0.0,0.0,0.0,0.0,0.0,0.0,0.0,0.0,0.0,0.0,0.0,0.0,0.0,0.0,0.0,0.0,0.0,0.0,0.0,0.0,0.0,0.0,0.0,0.0,0.0,0.0,0.0,0.0,0.0,0.0,0.0,0.0,0.0,0.0,0.0,0.0,0.0,0.0,0.0,0.0,0.0,0.0,0.0,0.0,0.0,0.0,0.0,0.0,0.0,0.0,0.0,0.0,0.0,0.0,0.0,0.0,0.0,0.0,0.0,0.0,0.0,0.0,0.0,0.0,0.0,0.0,0.0,0.0,0.0,0.0,0.0,0.0,0.0,0.0,0.0,0.0,0.0,0.0,0.0,0.0,0.0,0.0,0.0,0.0,0.0,0.0,0.0,0.0,0.0,0.0,0.0,0.0,0.0,0.0,0.0,0.0,0.0,0.0,0.0,0.0,0.0,0.0,0.0,0.0,0.0,0.0,0.0,0.0,0.0,0.0,0.0,0.0,0.0,0.0,0.0,0.0,0.0,0.0,0.0,0.0,0.0,0.0,0.0,0.0,0.0,0.0,0.0,0.0,0.0,0.0,0.0,0.0,0.0,0.0,0.0,0.0,0.0,0.0,0.0,0.0,0.0,0.0,0.0,0.0,0.0,0.0,0.0,0.0,0.0,0.0,0.0,0.0,0.0,0.0,0.0,0.0,0.0,0.0,0.0,0.0,0.0,0.0,0.0,0.0,0.0,0.0,0.0,0.0,0.0,0.0,0.0,0.0,0.0,0.0,0.0,0.0,0.0,0.0,0.0,0.0,0.0,0.0,0.0,0.0,0.0,0.0,0.0,0.0,0.0,0.0,0.0,0.0,0.0,0.0,0.0,0.0,0.0,0.0,0.0,0.0,0.0,0.0,0.0,0.0,0.0,0.0,0.0,0.0,0.0,0.0,0.0,0.0,0.0,0.0,0.0,0.0,0.0,0.0,0.0,0.0,0.0,0.0,0.0,0.0,0.0,0.0,0.0,0.0,0.0,0.0,0.0,0.0,0.0,0.0,0.0,0.0,0.0,0.0,0.0,0.0,0.0,0.0,0.0,0.0,0.0,0.0,0.0,0.0,0.0,0.0,0.0,0.0,0.0,0.0,0.0,0.0,0.0,0.0,0.0,0.0,0.0,0.0,0.0,0.0,0.0,0.0,0.0,0.0,0.0,0.0,0.0,0.0,0.0,0.0,0.0,0.0,0.0,0.0,0.0,0.0,0.0,0.0,0.0,0.0,0.0,0.0,0.0,0.0,0.0,0.0,0.0,0.0,0.0,0.0,0.0,0.0,0.0,0.0,0.0,0.0,0.0,0.0,0.0,0.0,0.0,0.0,0.0,0.0,0.0,0.0,0.0,0.0,0.0,0.0,0.0,0.0,0.0,0.0,0.0,0.0,0.0,0.0,0.0,0.0,0.0,0.0,0.0,0.0,0.0,0.0,0.0,0.0,0.0,0.0,0.0,0.0,0.0,0.0,0.0,0.0,0.0,0.0,0.0,0.0,0.0,0.0,0.0,0.0,0.0,0.0,0.0,0.0,0.0,0.0,0.0,0.0,0.0,0.0,0.0,0.0,0.0,0.0,0.0,0.0,0.0,0.0,0.0,0.0,0.0,0.0,0.0,0.0,0.0,0.0,0.0,0.0,0.0,0.0,0.0,0.0,0.0,0.0,0.0,0.0,0.0,0.0,0.0,0.0,0.0,0.0,0.0,0.0,0.0,0.0,0.0,0.0,0.0,0.0,0.0,0.0,0.0,0.0,0.0,0.0,0.0,0.0,0.0,0.0,0.0,0.0,0.0,0.0,0.0,0.0,0.0,0.0,0.0,0.0,0.0,0.0,0.0,0.0,0.0,0.0,0.0,0.0,0.0,0.0,0.0,0.0,0.0,0.0,0.0,0.0,0.0,0.0,0.0,0.0,0.0,0.0,0.0,0.0,0.0,0.0,0.0,0.0,0.0,0.0,0.0,0.0,0.0,0.0,0.0,0.0,0.0,0.0,0.0,0.0,0.0,0.0,0.0,0.0,0.0,0.0,0.0,0.0,0.0,0.0,0.0,0.0,0.0,0.0,0.0,0.0,0.0,0.0,0.0,0.0,0.0,0.0,0.0,0.0,0.0,0.0,0.0,0.0,0.0,0.0,0.0,0.0,0.0,0.0,0.0,0.0,0.0,0.0,0.0,0.0,0.0,0.0,0.0,0.0,0.0,0.0,0.0,0.0,0.0,0.0,0.0,0.0,0.0,0.0,0.0,0.0,0.0,0.0,0.0,0.0,0.0,0.0,0.0,0.0,0.0,0.0,0.0,0.0,0.0,0.0,0.0,0.0,0.0,0.0,0.0,0.0,0.0,0.0,0.0,0.0,0.0,0.0,0.0,0.0,0.0,0.0,0.0,0.0,0.0,0.0,0.0,0.0,0.0,0.0,0.0,0.0,0.0,0.0,0.0,0.0,0.0,0.0,0.0,0.0,0.0,0.0,0.0,0.0,0.0,-0.0104,0.0,0.0,0.0,-0.1554,0.0,0.0,0.0,0.0,0.0,0.0,0.0,0.0,0.0,0.0,0.0,0.0,0.0,0.0,0.0,0.0,0.0,0.0,0.0,0.0,0.0,0.0,0.0,0.0,0.0,0.0,0.0,0.0,0.0,0.0,0.0,0.0,0.0,0.0,0.0,0.0,0.0,0.0,0.0,0.0,0.0,0.0,0.0,0.0,0.0,0.0,0.0,0.0,0.0,0.0,0.0,0.0,0.0,0.0,0.0,0.0,0.0,0.0,0.0,0.0,0.0,0.0,0.0,0.0,0.0,0.0,0.0,0.0,0.0,0.0,0.0,0.0,0.0,0.0,0.0,0.0,0.0,0.0,0.0,0.0,0.0,0.0,0.0,0.0,0.0,0.0,0.0,0.0,0.0,0.0,0.0,0.0,0.0,0.0,0.0,0.0,0.0,0.0,0.0,0.0,0.0,0.0,0.0,0.0,0.0,0.0,0.0,0.0,0.0,0.0,-0.0314,-0.0959,-0.1494,-0.1693,-0.1663,0.0,0.0,0.0,0.0,0.0,0.0,0.0,0.0,0.0,0.0,0.0,0.0,0.0,0.0,0.0,0.0,0.0,0.0,0.0,0.0,0.0,0.0,0.0,0.0,0.0,0.0,0.0,0.0,0.0,0.0,0.0,0.0,0.0,0.0,0.0,0.0,0.0,0.0,0.0,0.0,0.0,0.0,0.0,0.0,0.0,0.0,0.0,0.0,0.0,0.0,0.0,0.0,0.0,0.0,0.0,0.0,0.0,0.0,0.0,0.0,0.0,0.0,0.0,0.0,0.0,0.0,0.0,0.0,0.0,0.0,0.0,0.0,0.0,0.0,0.0,0.0,0.0,0.0,0.0,0.0,0.0,0.0,0.0,0.0,0.0,0.0,0.0,0.0,0.0,0.0,0.0,0.0,0.0,0.0,0.0,0.0,0.0,0.0,0.0,0.0,0.0,0.0,0.0,0.0,0.0,0.0,0.0,0.0,0.0,0.0,0.0,0.0,-0.1619,-0.1816,-0.1777,0.0,0.0,0.0,0.0,0.0,0.0,0.0,0.0,0.0,0.0,0.0,0.0,0.0,0.0,0.0,0.0,0.0,0.0,0.0,0.0,0.0,0.0,0.0,0.0,0.0,0.0,0.0,0.0,0.0,0.0,0.0,0.0,0.0,0.0,0.0,0.0,0.0,0.0,0.0,0.0,0.0,0.0,0.0,0.0,0.0,0.0,0.0,0.0,0.0,0.0,0.0,0.0,0.0,0.0,0.0,0.0,0.0,0.0,0.0,0.0,0.0,0.0,0.0,0.0,0.0,0.0,0.0,0.0,0.0,0.0,0.0,0.0,0.0,0.0,0.0,0.0,0.0,0.0,0.0,0.0,0.0,0.0,0.0,0.0,0.0,0.0,0.0,0.0,0.0,0.0,0.0,0.0,0.0,0.0,0.0,0.0,0.0,0.0,0.0,0.0,0.0,0.0,0.0,0.0,0.0,0.0,0.0,0.0,0.0,0.0,-0.011,-0.0223,-0.1228,0.0,-0.1596,0.0,0.0,0.0,0.0,0.0,0.0,0.0,0.0,0.0,0.0,0.0,0.0,0.0,0.0,0.0,0.0,0.0,0.0,0.0,0.0,0.0,0.0,0.0,0.0,0.0,0.0,0.0,0.0,0.0,0.0,0.0,0.0,0.0,0.0,0.0,0.0,0.0,0.0,0.0,0.0,0.0,0.0,0.0,0.0,0.0,0.0,0.0,0.0,0.0,0.0,0.0,0.0,0.0,0.0,0.0,0.0,0.0,0.0,0.0,0.0,0.0,0.0,0.0,0.0,0.0,0.0,0.0,0.0,0.0,0.0,0.0,0.0,0.0,0.0,0.0,0.0,0.0,0.0,0.0,0.0,0.0,0.0,0.0,0.0,0.0,0.0,0.0,0.0,0.0,0.0,0.0,0.0,0.0,0.0,0.0,0.0,0.0,0.0,0.0,0.0,0.0,0.0,0.0,0.0,0.0,0.0,0.0,0.0,0.0,0.0,0.0,0.0,-0.1222,-0.1748,0.0,0.0,0.0,0.0,0.0,0.0,0.0,0.0,0.0,0.0,0.0,0.0,0.0,0.0,0.0,0.0,0.0,0.0,0.0,0.0,0.0,0.0,0.0,0.0,0.0,0.0,0.0,0.0,0.0,0.0,0.0,0.0,0.0,0.0,0.0,0.0,0.0,0.0,0.0,0.0,0.0,0.0,0.0,0.0,0.0,0.0,0.0,0.0,0.0,0.0,0.0,0.0,0.0,0.0,0.0,0.0,0.0,0.0,0.0,0.0,0.0,0.0,0.0,0.0,0.0,0.0,0.0,0.0,0.0,0.0,0.0,0.0,0.0,0.0,0.0,0.0,0.0,0.0,0.0,0.0,0.0,0.0,0.0,0.0,0.0,0.0,0.0,0.0,0.0,0.0,0.0,0.0,0.0,0.0,0.0,0.0,0.0,0.0,0.0,0.0,0.0,0.0,0.0,0.0,0.0,0.0,0.0,0.0,0.0,0.0,-0.033,0.0,0.0,-0.1222,-0.1744,-0.1705,0.0,0.0,0.0,0.0,0.0,0.0,0.0,0.0,0.0,0.0,0.0,0.0,0.0,0.0,0.0,0.0,0.0,0.0,0.0,0.0,0.0,0.0,0.0,0.0,0.0,0.0,0.0,0.0,0.0,0.0,0.0,0.0,0.0,0.0,0.0,0.0,0.0,0.0,0.0,0.0,0.0,0.0,0.0,0.0,0.0,0.0,0.0,0.0,0.0,0.0,0.0,0.0,0.0,0.0,0.0,0.0,0.0,0.0,0.0,0.0,0.0,0.0,0.0,0.0,0.0,0.0,0.0,0.0,0.0,0.0,0.0,0.0,0.0,0.0,0.0,0.0,0.0,0.0,0.0,0.0,0.0,0.0,0.0,0.0,0.0,0.0,0.0,0.0,0.0,0.0,0.0,0.0,0.0,0.0,0.0,0.0,0.0,0.0,0.0,0.0,0.0,0.0,0.0,0.0,0.0,0.0,0.0,0.0,-0.1677,-0.0568,0.0,0.0,-0.1131,-0.1765,0.0,0.0,0.0,0.0,0.0,0.0,0.0,0.0,0.0,0.0,0.0,0.0,0.0,0.0,0.0,0.0,0.0,0.0,0.0,0.0,0.0,0.0,0.0,0.0,0.0,0.0,0.0,0.0,0.0,0.0,0.0,0.0,0.0,0.0,0.0,0.0,0.0,0.0,0.0,0.0,0.0,0.0,0.0,0.0,0.0,0.0,0.0,0.0,0.0,0.0,0.0,0.0,0.0,0.0,0.0,0.0,0.0,0.0,0.0,0.0,0.0,0.0,0.0,0.0,0.0,0.0,0.0,0.0,0.0,0.0,0.0,0.0,0.0,0.0,0.0,0.0,0.0,0.0,0.0,0.0,0.0,0.0,0.0,0.0,0.0,0.0,0.0,0.0,0.0,0.0,0.0,0.0,0.0,0.0,0.0,0.0,0.0,0.0,0.0,0.0,0.0,0.0,0.0,0.0,0.0,0.0,0.0,0.0,0.0,-0.157,-0.0576,0.0,0.0,-0.0462,-0.101,0.0,0.0,0.0,0.0,0.0,0.0,0.0,0.0,0.0,0.0,0.0,0.0,0.0,0.0,0.0,0.0,0.0,0.0,0.0,0.0,0.0,0.0,0.0,0.0,0.0,0.0,0.0,0.0,0.0,0.0,0.0,0.0,0.0,0.0,0.0,0.0,0.0,0.0,0.0,0.0,0.0,0.0,0.0,0.0,0.0,0.0,0.0,0.0,0.0,0.0,0.0,0.0,0.0,0.0,0.0,0.0,0.0,0.0,0.0,0.0,0.0,0.0,0.0,0.0,0.0,0.0,0.0,0.0,0.0,0.0,0.0,0.0,0.0,0.0,0.0,0.0,0.0,0.0,0.0,0.0,0.0,0.0,0.0,0.0,0.0,0.0,0.0,0.0,0.0,0.0,0.0,0.0,0.0,0.0,0.0,0.0,0.0,0.0,0.0,0.0,0.0,0.0,0.0,0.0,0.0,0.0,0.0,0.0,0.0,-0.1389,-0.0478,0.0,0.0,0.0,-0.0572,0.0,0.0,0.0,0.0,0.0,0.0,0.0,0.0,0.0,0.0,0.0,0.0,0.0,0.0,0.0,0.0,0.0,0.0,0.0,0.0,0.0,0.0,0.0,0.0,0.0,0.0,0.0,0.0,0.0,0.0,0.0,0.0,0.0,0.0,0.0,0.0,0.0,0.0,0.0,0.0,0.0,0.0,0.0,0.0,0.0,0.0,0.0,0.0,0.0,0.0,0.0,0.0,0.0,0.0,0.0,0.0,0.0,0.0,0.0,0.0,0.0,0.0,0.0,0.0,0.0,0.0,0.0,0.0,0.0,0.0,0.0,0.0,0.0,0.0,0.0,0.0,0.0,0.0,0.0,0.0,0.0,0.0,0.0,0.0,0.0,0.0,0.0,0.0,0.0,0.0,0.0,0.0,0.0,0.0,0.0,0.0,0.0,0.0,0.0,0.0,0.0,0.0,0.0,0.0,0.0,0.0,0.0,0.0,-0.1625,-0.0863,-0.0381,0.0,0.0,0.0,-0.0586,0.0,0.0,0.0,0.0,0.0,0.0,0.0,0.0,0.0,0.0,0.0,0.0,0.0,0.0,0.0,0.0,0.0,0.0,0.0,0.0,0.0,0.0,0.0,0.0,0.0,0.0,0.0,0.0,0.0,0.0,0.0,0.0,0.0,0.0,0.0,0.0,0.0,0.0,0.0,0.0,0.0,0.0,0.0,0.0,0.0,0.0,0.0,0.0,0.0,0.0,0.0,0.0,0.0,0.0,0.0,0.0,0.0,0.0,0.0,0.0,0.0,0.0,0.0,0.0,0.0,0.0,0.0,0.0,0.0,0.0,0.0,0.0,0.0,0.0,0.0,0.0,0.0,0.0,0.0,0.0,0.0,0.0,0.0,0.0,0.0,0.0,0.0,0.0,0.0,0.0,0.0,0.0,0.0,0.0,0.0,0.0,0.0,0.0,0.0,0.0,0.0,0.0,0.0,0.0,0.0,0.0,0.0,0.0,0.0,-0.0904,-0.0263,0.0,0.0,0.0,-0.0122,0.0,0.0,0.0,0.0,0.0,0.0,0.0,0.0,0.0,0.0,0.0,0.0,0.0,0.0,0.0,0.0,0.0,0.0,0.0,0.0,0.0,0.0,0.0,0.0,0.0,0.0,0.0,0.0,0.0,0.0,0.0,0.0,0.0,0.0,0.0,0.0,0.0,0.0,0.0,0.0,0.0,0.0,0.0,0.0,0.0,0.0,0.0,0.0,0.0,0.0,0.0,0.0,0.0,0.0,0.0,0.0,0.0,0.0,0.0,0.0,0.0,0.0,0.0,0.0,0.0,0.0,0.0,0.0,0.0,0.0,0.0,0.0,0.0,0.0,0.0,0.0,0.0,0.0,0.0,0.0,0.0,0.0,0.0,0.0,0.0,0.0,0.0,0.0,0.0,0.0,0.0,0.0,0.0,0.0,0.0,0.0,0.0,0.0,0.0,0.0,0.0,0.0,0.0,0.0,0.0,0.0,0.0,0.0,0.0,-0.0972,-0.0278,0.0,0.0,0.0,0.0,0.0,0.0,0.0,0.0,0.0,0.0,0.0,0.0,0.0,0.0,0.0,0.0,0.0,0.0,0.0,0.0,0.0,0.0,0.0,0.0,0.0,0.0,0.0,0.0,0.0,0.0,0.0,0.0,0.0,0.0,0.0,0.0,0.0,0.0,0.0,0.0,0.0,0.0,0.0,0.0,0.0,0.0,0.0,0.0,0.0,0.0,0.0,0.0,0.0,0.0,0.0,0.0,0.0,0.0,0.0,0.0,0.0,0.0,0.0,0.0,0.0,0.0,0.0,0.0,0.0,0.0,0.0,0.0,0.0,0.0,0.0,0.0,0.0,0.0,0.0,0.0,0.0,0.0,0.0,0.0,0.0,0.0,0.0,0.0,0.0,0.0,0.0,0.0,0.0,0.0,0.0,0.0,0.0,0.0,0.0,0.0,0.0,0.0,0.0,0.0,0.0,0.0,0.0,0.0,0.0,0.0,0.0,0.0,0.0,-0.1062,-0.0446,0.0,0.0,0.0,0.0,0.0,0.0,0.0,0.0,0.0,0.0,0.0,0.0,0.0,0.0,0.0,0.0,0.0,0.0,0.0,0.0,0.0,0.0,0.0,0.0,0.0,0.0,0.0,0.0,0.0,0.0,0.0,0.0,0.0,0.0,0.0,0.0,0.0,0.0,0.0,0.0,0.0,0.0,0.0,0.0,0.0,0.0,0.0,0.0,0.0,0.0,0.0,0.0,0.0,0.0,0.0,0.0,0.0,0.0,0.0,0.0,0.0,0.0,0.0,0.0,0.0,0.0,0.0,0.0,0.0,0.0,0.0,0.0,0.0,0.0,0.0,0.0,0.0,0.0,0.0,0.0,0.0,0.0,0.0,0.0,0.0,0.0,0.0,0.0,0.0,0.0,0.0,0.0,0.0,0.0,0.0,0.0,0.0,0.0,0.0,0.0,0.0,0.0,0.0,0.0,0.0,0.0,0.0,0.0,0.0,0.0,0.0,0.0,0.0,-0.1102,-0.0322,0.0,0.0,0.0,0.0,0.0,0.0,0.0,0.0,0.0,0.0,0.0,0.0,0.0,0.0,0.0,0.0,0.0,0.0,0.0,0.0,0.0,0.0,0.0,0.0,0.0,0.0,0.0,0.0,0.0,0.0,0.0,0.0,0.0,0.0,0.0,0.0,0.0,0.0,0.0,0.0,0.0,0.0,0.0,0.0,0.0,0.0,0.0,0.0,0.0,0.0,0.0,0.0,0.0,0.0,0.0,0.0,0.0,0.0,0.0,0.0,0.0,0.0,0.0,0.0,0.0,0.0,0.0,0.0,0.0,0.0,0.0,0.0,0.0,0.0,0.0,0.0,0.0,0.0,0.0,0.0,0.0,0.0,0.0,0.0,0.0,0.0,0.0,0.0,0.0,0.0,0.0,0.0,0.0,0.0,0.0,0.0,0.0,0.0,0.0,0.0,0.0,0.0,0.0,0.0,0.0,0.0,0.0,0.0,0.0,0.0,0.0,0.0,-0.2168,-0.1634,-0.0505,0.0,0.0,0.0,0.0,0.0,0.0,0.0,0.0,0.0,0.0,0.0,0.0,0.0,0.0,0.0,0.0,0.0,0.0,0.0,0.0,0.0,0.0,0.0,0.0,0.0,0.0,0.0,0.0,0.0,0.0,0.0,0.0,0.0,0.0,0.0,0.0,0.0,0.0,0.0,0.0,0.0,0.0,0.0,0.0,0.0,0.0,0.0,0.0,0.0,0.0,0.0,0.0,0.0,0.0,0.0,0.0,0.0,0.0,0.0,0.0,0.0,0.0,0.0,0.0,0.0,0.0,0.0,0.0,0.0,0.0,0.0,0.0,0.0,0.0,0.0,0.0,0.0,0.0,0.0,0.0,0.0,0.0,0.0,0.0,0.0,0.0,0.0,0.0,0.0,0.0,0.0,0.0,0.0,0.0,0.0,0.0,0.0,0.0,0.0,0.0,0.0,0.0,0.0,0.0,0.0,0.0,0.0,0.0,0.0,0.0,0.0,0.0,-0.2261,-0.2199,-0.0692,0.0,0.0,0.0,0.0,0.0,0.0,0.0,0.0,0.0,0.0,0.0,0.0,0.0,0.0,0.0,0.0,0.0,0.0,0.0,0.0,0.0,0.0,0.0,0.0,0.0,0.0,0.0,0.0,0.0,0.0,0.0,0.0,0.0,0.0,0.0,0.0,0.0,0.0,0.0,0.0,0.0,0.0,0.0,0.0,0.0,0.0,0.0,0.0,0.0,0.0,0.0,0.0,0.0,0.0,0.0,0.0,0.0,0.0,0.0,0.0,0.0,0.0,0.0,0.0,0.0,0.0,0.0,0.0,0.0,0.0,0.0,0.0,0.0,0.0,0.0,0.0,0.0,0.0,0.0,0.0,0.0,0.0,0.0,0.0,0.0,0.0,0.0,0.0,0.0,0.0,0.0,0.0,0.0,0.0,0.0,0.0,0.0,0.0,0.0,0.0,0.0,0.0,0.0,0.0,0.0,0.0,0.0,0.0,0.0,0.0,0.0,0.0,-0.083,-0.1398,-0.054,0.0,0.0,0.0,0.0,0.0,0.0,0.0,0.0,0.0,0.0,0.0,0.0,0.0,0.0,0.0,0.0,0.0,0.0,0.0,0.0,0.0,0.0,0.0,0.0,0.0,0.0,0.0,0.0,0.0,0.0,0.0,0.0,0.0,0.0,0.0,0.0,0.0,0.0,0.0,0.0,0.0,0.0,0.0,0.0,0.0,0.0,0.0,0.0,0.0,0.0,0.0,0.0,-0.1824,0.0,0.0,0.0,0.0,0.0,0.0,0.0,0.0,0.0,0.0,0.0,0.0,0.0,0.0,0.0,0.0,0.0,0.0,0.0,0.0,0.0,0.0,0.0,0.0,0.0,0.0,0.0,0.0,0.0,0.0,0.0,0.0,0.0,0.0,0.0,0.0,0.0,0.0,0.0,0.0,0.0,0.0,0.0,0.0,0.0,0.0,0.0,0.0,0.0,0.0,0.0,0.0,0.0,0.0,0.0,0.0,0.0,0.0,0.0,-0.1186,-0.0711,-0.0183,0.0,0.0,0.0,0.0,0.0,0.0,0.0,0.0,0.0,0.0,0.0,0.0,0.0,0.0,0.0,0.0,0.0,0.0,0.0,0.0,0.0,0.0,0.0,0.0,0.0,0.0,0.0,0.0,0.0,0.0,0.0,0.0,0.0,0.0,0.0,0.0,0.0,0.0,0.0,0.0,0.0,0.0,0.0,0.0,0.0,0.0,0.0,0.0,0.0,0.0,0.0,0.0,0.0,0.0,0.0,0.0,0.0,0.0,0.0,0.0,0.0,0.0,0.0,0.0,0.0,0.0,0.0,0.0,0.0,0.0,0.0,0.0,0.0,0.0,0.0,0.0,0.0,0.0,0.0,0.0,0.0,0.0,0.0,0.0,0.0,0.0,0.0,0.0,0.0,0.0,0.0,0.0,0.0,0.0,0.0,0.0,0.0,0.0,0.0,0.0,0.0,0.0,0.0,0.0,0.0,0.0,0.0,0.0,0.0,0.0,0.0,-0.2782,-0.2079,-0.0543,-0.0185,0.0,0.0,0.0,0.0,0.0,0.0,0.0,0.0,0.0,0.0,0.0,0.0,0.0,0.0,0.0,0.0,0.0,0.0,0.0,0.0,0.0,0.0,0.0,0.0,0.0,0.0,0.0,0.0,0.0,0.0,0.0,0.0,0.0,0.0,0.0,0.0,0.0,0.0,0.0,0.0,0.0,0.0,0.0,-0.5077,-0.3262,0.0,0.0,0.0,0.0,0.0,0.0,0.0,0.0,-0.1836,0.0,0.0,0.0,0.0,0.0,0.0,0.0,0.0,0.0,0.0,0.0,0.0,0.0,0.0,0.0,0.0,0.0,0.0,0.0,0.0,0.0,0.0,0.0,0.0,0.0,0.0,0.0,0.0,0.0,0.0,0.0,0.0,0.0,0.0,0.0,0.0,0.0,0.0,0.0,0.0,0.0,0.0,0.0,0.0,0.0,0.0,0.0,0.0,0.0,0.0,0.0,0.0,0.0,0.0,0.0,0.0,-0.0475,-0.2017,-0.2672,-0.2453,-0.077,0.0,0.0,0.0,0.0,0.0,0.0,0.0,0.0,0.0,0.0,0.0,0.0,0.0,0.0,0.0,0.0,0.0,0.0,0.0,0.0,0.0,0.0,0.0,0.0,0.0,0.0,0.0,0.0,0.0,0.0,0.0,0.0,0.0,0.0,0.0,0.0,0.0,0.0,0.0,0.0,0.0,0.0,0.0,0.0,-0.3167,-0.3196,0.0,0.0,0.0,0.0,0.0,0.0,0.0,0.0,-0.1911,0.0,0.0,0.0,0.0,0.0,0.0,0.0,0.0,0.0,0.0,0.0,0.0,0.0,0.0,0.0,0.0,0.0,0.0,0.0,0.0,0.0,0.0,0.0,0.0,0.0,0.0,0.0,0.0,0.0,0.0,0.0,0.0,0.0,0.0,0.0,0.0,0.0,0.0,0.0,0.0,0.0,0.0,0.0,0.0,0.0,0.0,0.0,0.0,0.0,0.0,0.0,0.0,0.0,0.0,0.0,-0.1289,-0.1372,-0.1813,-0.2857,-0.0972,0.0,0.0,0.0,0.0,0.0,0.0,0.0,0.0,0.0,0.0,0.0,0.0,0.0,0.0,0.0,0.0,0.0,0.0,0.0,0.0,0.0,0.0,0.0,0.0,0.0,0.0,0.0,0.0,0.0,0.0,0.0,0.0,0.0,0.0,0.0,0.0,0.0,0.0,0.0,0.0,0.0,0.0,0.0,0.0,-0.4011,-0.3558,-0.2343,0.0,0.0,0.0,0.0,0.0,0.0,-0.1974,-0.1955,0.0,0.0,0.0,0.0,0.0,0.0,0.0,0.0,0.0,0.0,0.0,0.0,0.0,0.0,0.0,0.0,0.0,0.0,0.0,0.0,0.0,0.0,0.0,0.0,0.0,0.0,0.0,0.0,0.0,0.0,0.0,0.0,0.0,0.0,0.0,0.0,0.0,0.0,0.0,0.0,0.0,0.0,0.0,0.0,0.0,0.0,0.0,0.0,0.0,0.0,0.0,0.0,0.0,0.0,0.0,-0.2449,-0.0874,-0.0738,-0.2114,-0.0783,0.0,0.0,0.0,0.0,0.0,0.0,0.0,0.0,0.0,0.0,0.0,0.0,0.0,0.0,0.0,0.0,0.0,0.0,0.0,0.0,0.0,0.0,0.0,0.0,0.0,0.0,0.0,0.0,0.0,0.0,0.0,0.0,0.0,0.0,0.0,0.0,0.0,0.0,0.0,0.0,0.0,0.0,0.0,0.0,0.0,-0.3546,-0.2299,-0.2131,0.0,0.0,0.0,0.0,-0.2056,-0.2041,0.0,0.0,0.0,0.0,0.0,0.0,0.0,0.0,0.0,0.0,0.0,0.0,0.0,0.0,0.0,0.0,0.0,0.0,0.0,0.0,0.0,0.0,0.0,0.0,0.0,0.0,0.0,0.0,0.0,0.0,0.0,0.0,0.0,0.0,0.0,0.0,0.0,0.0,0.0,0.0,0.0,0.0,0.0,0.0,0.0,0.0,0.0,0.0,0.0,0.0,0.0,0.0,0.0,0.0,0.0,0.0,-0.2643,-0.089,0.0,-0.0396,0.0,0.0,0.0,0.0,0.0,0.0,0.0,0.0,0.0,0.0,0.0,0.0,0.0,0.0,0.0,0.0,0.0,0.0,0.0,0.0,0.0,0.0,0.0,0.0,0.0,0.0,0.0,0.0,0.0,0.0,0.0,0.0,0.0,0.0,0.0,0.0,0.0,0.0,0.0,0.0,0.0,0.0,0.0,0.0,0.0,0.0,-0.365,-0.2365,-0.2229,-0.2215,0.0,0.0,-0.221,-0.2183,-0.2199,0.0,0.0,0.0,0.0,0.0,0.0,0.0,0.0,0.0,0.0,0.0,0.0,0.0,0.0,0.0,0.0,0.0,0.0,0.0,0.0,0.0,0.0,0.0,0.0,0.0,0.0,0.0,0.0,0.0,0.0,0.0,0.0,0.0,0.0,0.0,0.0,0.0,0.0,0.0,0.0,0.0,0.0,0.0,0.0,0.0,0.0,0.0,0.0,0.0,0.0,0.0,0.0,0.0,0.0,0.0,-0.2489,-0.2698,-0.0908,0.0,0.0,0.0,0.0,0.0,0.0,0.0,0.0,0.0,0.0,0.0,0.0,0.0,0.0,0.0,0.0,0.0,0.0,0.0,0.0,0.0,0.0,0.0,0.0,0.0,0.0,0.0,0.0,0.0,0.0,0.0,0.0,0.0,0.0,0.0,0.0,0.0,0.0,0.0,0.0,0.0,0.0,0.0,0.0,0.0,0.0,0.0,0.0,0.0,-0.2454,-0.232,0.0,0.0,0.0,-0.2166,-0.2279,0.0,0.0,0.0,0.0,0.0,0.0,0.0,0.0,0.0,0.0,0.0,0.0,0.0,0.0,0.0,0.0,0.0,0.0,0.0,0.0,0.0,0.0,0.0,0.0,0.0,0.0,0.0,0.0,0.0,0.0,0.0,0.0,0.0,0.0,0.0,0.0,0.0,0.0,0.0,0.0,0.0,0.0,0.0,0.0,0.0,0.0,0.0,0.0,0.0,0.0,0.0,0.0,0.0,0.0,0.0,0.0,0.0,-0.2919,-0.0924,0.0,0.0,0.0,0.0,0.0,0.0,0.0,0.0,0.0,0.0,0.0,0.0,0.0,0.0,0.0,0.0,0.0,0.0,0.0,0.0,0.0,0.0,0.0,0.0,0.0,0.0,0.0,0.0,0.0,0.0,0.0,0.0,0.0,-0.1615,0.0,0.0,0.0,0.0,0.0,0.0,0.0,0.0,0.0,0.0,0.0,0.0,0.0,0.0,-0.3441,-0.2526,-0.2402,-0.2423,0.0,0.0,-0.2251,-0.2372,-0.2356,-0.2316,0.0,0.0,0.0,0.0,0.0,0.0,0.0,0.0,0.0,0.0,0.0,0.0,0.0,0.0,0.0,0.0,0.0,0.0,0.0,0.0,0.0,0.0,0.0,0.0,0.0,0.0,0.0,0.0,0.0,0.0,0.0,0.0,0.0,0.0,0.0,0.0,0.0,0.0,0.0,0.0,0.0,0.0,0.0,0.0,0.0,0.0,0.0,0.0,0.0,0.0,0.0,0.0,0.0,0.0,0.0,-0.2778,-0.0933,0.0,0.0,0.0,0.0,0.0,0.0,0.0,0.0,0.0,0.0,0.0,0.0,0.0,0.0,0.0,0.0,0.0,0.0,0.0,0.0,0.0,0.0,0.0,0.0,0.0,0.0,0.0,0.0,0.0,0.0,0.0,0.0,0.0,0.0,0.0,0.0,0.0,0.0,0.0,0.0,0.0,0.0,0.0,0.0,0.0,0.0,0.0,0.0,-0.2496,-0.2412,-0.2469,-0.2517,0.0,0.0,-0.2339,-0.2465,-0.2481,-0.2442,-0.227,0.0,0.0,0.0,0.0,0.0,0.0,0.0,0.0,0.0,0.0,0.0,0.0,0.0,0.0,0.0,0.0,0.0,0.0,0.0,0.0,0.0,0.0,0.0,0.0,0.0,0.0,0.0,0.0,0.0,0.0,0.0,0.0,0.0,0.0,0.0,0.0,0.0,0.0,0.0,0.0,0.0,0.0,0.0,0.0,0.0,0.0,0.0,0.0,0.0,0.0,0.0,0.0,0.0,-0.2455,-0.2459,-0.0949,0.0,0.0,0.0,0.0,0.0,0.0,0.0,0.0,0.0,0.0,0.0,0.0,0.0,0.0,0.0,0.0,0.0,0.0,0.0,0.0,0.0,0.0,0.0,0.0,0.0,0.0,0.0,0.0,0.0,0.0,0.0,0.0,0.0,0.0,0.0,-0.182,-0.1823,-0.1823,0.0,0.0,0.0,0.0,0.0,0.0,0.0,0.0,0.0,0.0,-0.2451,-0.2548,-0.2597,0.0,0.0,-0.2463,-0.2425,-0.2557,-0.2515,-0.245,-0.2345,-0.2256,0.0,0.0,0.0,0.0,0.0,0.0,0.0,0.0,0.0,0.0,0.0,0.0,0.0,0.0,0.0,0.0,0.0,0.0,0.0,0.0,0.0,0.0,0.0,0.0,0.0,0.0,0.0,0.0,0.0,0.0,0.0,0.0,0.0,0.0,0.0,0.0,0.0,0.0,0.0,0.0,0.0,0.0,0.0,0.0,0.0,0.0,0.0,0.0,0.0,0.0,0.0,0.0,-0.2162,-0.1598,-0.0575,0.0,0.0,0.0,0.0,0.0,0.0,0.0,0.0,0.0,0.0,0.0,0.0,0.0,0.0,0.0,0.0,0.0,0.0,0.0,0.0,0.0,0.0,0.0,0.0,0.0,0.0,0.0,0.0,0.0,0.0,0.0,0.0,0.0,0.0,0.0,-0.1866,-0.1858,-0.1866,0.0,0.0,0.0,0.0,0.0,0.0,0.0,0.0,0.0,0.0,-0.2547,-0.2646,-0.235,-0.2204,-0.2393,-0.2525,-0.2482,-0.2611,-0.2551,-0.2482,-0.2405,0.0,0.0,0.0,0.0,0.0,0.0,0.0,0.0,0.0,0.0,0.0,0.0,0.0,0.0,0.0,0.0,0.0,0.0,0.0,0.0,0.0,0.0,0.0,0.0,0.0,0.0,0.0,0.0,0.0,0.0,0.0,0.0,0.0,0.0,0.0,0.0,0.0,0.0,0.0,0.0,0.0,0.0,0.0,0.0,0.0,0.0,0.0,0.0,0.0,0.0,0.0,0.0,0.0,-0.1684,-0.0,0.0,0.0,0.0,0.0,0.0,0.0,0.0,0.0,0.0,0.0,0.0,0.0,0.0,0.0,0.0,0.0,0.0,0.0,0.0,0.0,0.0,0.0,0.0,0.0,0.0,0.0,0.0,0.0,0.0,0.0,0.0,0.0,0.0,0.0,0.0,-0.2002,-0.1885,-0.1896,0.0,0.0,0.0,0.0,0.0,0.0,0.0,0.0,0.0,0.0,-0.2507,-0.2459,-0.2517,-0.1868,-0.1542,-0.1713,-0.2204,-0.2672,-0.2615,-0.2602,-0.2562,0.0,0.0,0.0,0.0,0.0,0.0,0.0,0.0,0.0,0.0,0.0,0.0,0.0,0.0,0.0,0.0,0.0,0.0,0.0,0.0,0.0,0.0,0.0,0.0,0.0,0.0,0.0,0.0,0.0,0.0,0.0,0.0,0.0,0.0,0.0,0.0,0.0,0.0,0.0,0.0,0.0,0.0,0.0,0.0,0.0,0.0,0.0,0.0,0.0,0.0,0.0,0.0,0.0,0.0,-0.052,0.0,0.0,0.0,0.0,0.0,0.0,0.0,0.0,0.0,0.0,0.0,0.0,0.0,0.0,0.0,0.0,0.0,0.0,0.0,0.0,0.0,0.0,0.0,0.0,0.0,0.0,0.0,0.0,0.0,0.0,0.0,0.0,0.0,0.0,0.0,-0.2023,0.0,0.0,0.0,0.0,0.0,0.0,0.0,0.0,0.0,0.0,0.0,-0.2512,-0.2639,-0.2594,-0.2349,-0.1886,-0.2097,-0.2126,0.0,0.0,0.0,0.0,0.0,0.0,0.0,0.0,0.0,0.0,0.0,0.0,0.0,0.0,-0.2243,-0.2143,-0.2142,-0.2155,-0.2155,0.0,0.0,0.0,0.0,0.0,0.0,0.0,0.0,0.0,0.0,0.0,0.0,0.0,0.0,0.3663,0.0,0.2274,0.0,0.0,0.0,0.0,0.0,0.0,0.0,0.0,0.0,0.0,0.0,0.0,0.0,0.0,0.0,0.0,0.0,0.0,0.0,0.0,0.0,0.0,0.0,0.0,0.0,0.0,0.0,0.0,0.0,0.0,0.0,0.0,0.0,0.0,0.0,0.0,0.0,0.0,0.0,0.0,0.0,0.0,0.0,0.0,0.0,0.0,0.0,0.0,0.0,0.0,0.0,0.0,0.0,0.0,0.0,0.0,0.0,0.0,0.0,0.0,-0.1997,0.0,0.0,0.0,0.0,0.0,0.0,0.0,0.0,0.0,-0.1555,-0.1922,-0.2175,-0.2605,-0.269,-0.2244,-0.1411,0.0,0.0,0.0,0.0,0.0,0.0,0.0,-0.2508,-0.2125,-0.2084,-0.2215,-0.2532,-0.2506,-0.2485,-0.2485,0.0,0.0,-0.2305,-0.2294,-0.2307,-0.2308,-0.2333,-0.2353,-0.2353,-0.2384,-0.2423,0.0,0.0,0.0,0.0,0.0,0.0,0.0,0.0,0.7482,1.0239,0.0,0.6459,0.0,0.0,0.0,0.0,0.0,0.0,0.0,0.0,0.0,0.0,0.0,0.0,0.0,0.0,0.0,0.0,0.0,0.0,0.0,0.0,0.0,0.0,0.0,0.0,0.0,0.0,0.0,0.0,0.0,0.0,0.0,0.0,0.0,0.0,0.0,0.0,0.0,0.0,0.0,0.0,0.0,0.0,0.0,0.0,0.0,0.0,0.0,0.0,0.0,0.0,0.0,0.0,0.0,0.0,0.0,0.0,0.0,0.0,0.0,-0.2078,0.0,0.0,0.0,0.0,0.0,0.0,0.0,0.0,0.0,0.0,-0.1047,-0.1246,-0.1628,-0.255,0.0,0.0,0.0,0.0,0.0,0.0,-0.1631,-0.286,-0.2804,-0.2792,-0.2424,-0.1524,0.0,0.0,-0.2496,-0.263,-0.2612,-0.2611,-0.2635,-0.2608,-0.2469,-0.2439,-0.2435,-0.2435,-0.2461,-0.2477,-0.2482,-0.2532,-0.2572,1.059,0.0,0.0,0.0,0.0,0.7556,0.4698,0.0479,0.7529,1.0588,1.0396,0.9179,0.0,0.0,0.0,0.0,0.0,0.0,0.0,0.0,0.0,0.0,0.0,0.0,0.0,0.0,0.0,0.0,0.0,0.0,0.0,0.0,0.0,0.0,0.0,0.0,0.0,0.0,0.0,0.0,0.0,0.0,0.0,0.0,0.0,0.0,0.0,0.0,0.0,0.0,0.0,0.0,0.0,0.0,0.0,0.0,0.0,0.0,0.0,0.0,0.0,0.0,0.0,0.0,0.0,0.0,0.0,0.0,0.0,0.0,-0.2238,-0.1221,-0.0959,0.0,0.0,0.0,0.0,0.0,0.0,0.0,0.0,0.0,-0.0328,-0.0992,-0.1671,0.0,0.0,-0.2509,-0.1442,-0.0553,0.0,0.0,-0.0563,0.0,-0.2791,-0.2957,-0.2558,-0.1432,-0.1954,-0.2646,-0.2782,-0.2788,-0.2796,-0.2796,-0.2803,-0.2793,-0.2754,-0.2672,-0.262,-0.2617,-0.2639,-0.2668,-0.269,-0.2725,-0.2763,1.1558,1.096,1.0612,1.0308,1.0003,0.8939,0.7048,0.4777,0.7692,0.9569,1.0742,1.0498,1.018,0.9642,0.2929,0.0,0.0,0.0,0.0,0.0,0.0,0.0,0.0,0.0,0.0,0.0,0.0,0.0,0.0,0.0,0.0,0.0,0.0,0.0,0.0,0.0,0.0,0.0,0.0,0.0,0.0,0.0,0.0,0.0,0.0,0.0,0.0,0.0,0.0,0.0,0.0,0.0,0.0,0.0,0.0,0.0,0.0,0.0,0.0,0.0,0.0,0.0,0.0,-0.1683,-0.2047,0.0,0.0,0.0,-0.1954,-0.1884,-0.1387,-0.0847,0.0,0.0,0.0,0.0,0.0,0.0,0.0,-0.1239,-0.0485,0.0,0.0,-0.0524,-0.1405,-0.2664,-0.2902,-0.258,-0.2035,0.0,0.0,0.0,-0.0776,-0.1744,-0.2896,-0.3073,-0.2474,-0.0937,-0.2031,-0.2923,-0.2904,-0.2905,-0.2909,-0.2909,-0.2909,-0.2908,-0.2909,-0.2856,-0.2803,-0.2773,-0.2788,-0.2814,-0.2833,-0.287,-0.2911,1.2324,1.2156,1.1493,1.1031,1.014,0.6868,0.7832,1.1162,0.8083,0.823,1.103,1.1196,1.0559,0.9352,0.3281,0.0,0.0,0.0,0.0,0.0,0.0,0.0,0.0,0.0,0.0,0.0,0.0787,0.0983,0.0,0.0,0.0,0.0,0.0,0.0,0.0,0.0,0.0,0.0,0.0,0.0,0.0,0.0,0.0,0.0,0.0,0.0,0.0,0.0,0.0,0.0,0.0,0.0,0.0,0.0,0.0,0.0,0.0,0.0,0.0,0.0,0.0,0.0,0.0,0.0,0.0,0.0,0.0,0.0,-0.2111,0.0,-0.0147,-0.0589,0.0,0.0,0.0,-0.0755,-0.0,-0.1256,-0.1443,-0.0166,0.0,0.0,0.0,0.0,-0.0747,-0.264,-0.2851,-0.2874,-0.2903,-0.1377,-0.02,0.0,-0.1798,-0.2989,-0.2969,-0.2956,-0.2352,-0.0582,-0.1528,-0.2643,-0.2827,-0.2996,-0.2979,-0.298,-0.2976,-0.2977,-0.2976,-0.2995,-0.2992,-0.2912,-0.2912,-0.2927,-0.2934,-0.2973,-0.301,1.3082,1.2558,1.2303,1.1908,1.1372,1.0635,1.0904,1.1978,1.1121,1.1309,1.2522,1.2432,1.0468,0.7243,0.5569,0.3159,0.0,0.0,0.0,0.0,0.0,0.0,0.0,0.0,0.0,0.0,0.6626,0.982,0.955,0.3182,0.0,0.0,0.0,0.0,0.0,0.0,0.0,0.0,0.0,0.0,0.0,0.0,0.0,0.0,0.0,0.0,0.0,0.0,0.0,0.0,0.0,0.0,0.0,0.0,0.0,0.0,0.0,0.0,0.0,0.0,0.0,0.0,0.0,-0.1513,-0.2161,0.0,-0.2018,0.0,-0.2233,-0.17,-0.0156,-0.0158,0.0,0.0,-0.016,-0.016,-0.0,-0.0332,-0.0338,0.0,0.0,0.0,0.0,0.0,-0.0194,-0.0785,-0.2138,-0.2904,-0.2933,-0.199,-0.0808,-0.0203,-0.1228,-0.2055,-0.2047,-0.2025,-0.16,-0.0198,0.0,-0.0972,-0.1749,-0.2522,-0.31,-0.31,-0.31,-0.31,-0.3096,-0.3107,-0.3103,-0.3081,-0.3048,-0.3026,-0.305,-0.3066,-0.3082,1.3581,1.3256,1.2996,1.2667,1.2299,1.2187,1.2187,1.246,1.2576,1.2593,1.2869,1.3,1.1605,0.9265,0.9265,0.791,0.5596,0.1751,0.0,0.0,0.0,0.0,0.0,0.0,0.0,0.0,0.4849,0.9086,1.2495,0.8072,0.3833,0.0,0.0,0.0,0.0,0.0,0.0,0.0,0.398,0.4014,0.0,0.0,0.0,0.0,0.0,0.0,0.0,0.0,0.0,0.0,0.0,0.0,0.0,0.0,0.0,0.0,0.0,0.0,0.0,0.0,0.0,0.0,0.0,0.0,0.0,0.0,-0.1734,-0.2102,-0.1569,-0.0968,-0.0,0.0,0.0,0.0,0.0,0.0,0.0,0.0,0.0,0.0,0.0,0.0,0.0,0.0,0.0,0.0,-0.1795,-0.3185,-0.3005,-0.1831,-0.0618,-0.0207,-0.1045,-0.1888,-0.2299,-0.2057,-0.1218,0.0,0.0,-0.0198,-0.079,-0.1379,-0.1963,-0.2553,-0.275,-0.275,-0.2947,-0.3167,-0.3183,-0.3182,-0.3179,-0.3159,-0.3126,-0.3129,-0.3146,1.4229,1.3921,1.3486,1.3009,1.2895,1.2672,1.2781,1.2982,1.2976,1.2987,1.3004,1.2825,1.283,1.283,1.283,1.2836,1.2443,0.5151,0.1591,0.1595,0.0603,0.0,0.0,0.0,0.0606,0.1616,0.1009,0.5055,1.2818,1.2408,0.856,0.1846,0.062,0.0623,0.166,0.0618,0.0618,0.1868,0.9442,0.9725,0.1914,0.1061,0.0634,0.0,0.0,0.0,0.0,0.0,0.0,0.0,0.0,0.0,0.0,0.0,0.0,0.0,0.0,0.0,0.0,0.0,0.0,0.0,0.0,0.0,0.0,-0.1513,-0.1246,-0.1932,-0.0824,0.0,0.0,0.0,0.0,0.0,0.0,0.0,0.0,0.0,0.0,0.0,0.0,0.0,0.0,0.0,0.0,0.0,-0.1626,-0.2859,-0.3076,-0.1661,-0.063,-0.0211,-0.106,-0.2115,-0.2935,-0.2275,-0.1228,0.0,0.0,0.0,0.0,0.0,-0.0394,-0.1578,-0.2171,-0.2567,-0.2961,-0.3005,-0.3035,-0.2838,-0.2868,-0.3071,-0.32,-0.3191,-0.3212,1.5032,1.4163,1.3955,1.3452,1.2818,1.2879,1.2825,1.2825,1.2825,1.2825,1.283,1.283,1.283,1.283,1.2835,1.2852,1.2879,1.1273,1.0485,1.0113,0.323,0.0,0.0,0.0,0.3636,0.992,0.6858,0.7894,1.2893,0.9389,0.861,1.0145,0.3518,0.3728,1.0174,0.0,0.0,0.0,1.2395,1.2245,1.0757,0.7104,0.3531,0.0,0.0,0.0,0.0,0.0,0.0,0.0,0.0,0.0,0.0,0.0,0.0,0.0,0.0,0.0,0.0,0.0,0.0,0.0,-0.2278,-0.2256,-0.221,-0.0973,-0.0333,-0.0338,-0.0172,0.0,0.0,0.0,0.0,0.0,0.0,0.0,0.0,0.0,0.0,0.0,0.0,0.0,0.0,0.0,0.0,0.0,0.0,-0.1433,-0.3074,-0.2912,-0.1897,-0.0425,-0.0846,-0.2097,-0.3305,-0.2465,-0.143,0.0,0.0,0.0,0.0,0.0,0.0,0.0,-0.1809,-0.3021,-0.3043,-0.2448,-0.2048,-0.1856,-0.1864,-0.2278,-0.3085,-0.3291,-0.3298,1.5566,0.0,1.4323,1.3615,0.0,1.2882,1.2856,1.2845,1.2939,1.289,1.289,1.289,1.289,1.289,1.289,1.2895,1.2711,1.0676,0.9673,0.9291,0.3034,0.0,0.0203,0.4692,0.9012,1.3145,1.0852,1.087,1.2795,0.8639,0.8888,1.3187,0.8768,0.8998,1.3273,0.9031,0.9016,1.3625,1.3461,1.33,1.3148,1.0953,0.8793,0.6457,0.6412,0.0,0.0,0.0,0.0,0.0,0.0,0.0,0.0,0.0,0.0,0.0,0.0,-0.0343,-0.1189,-0.2207,-0.2564,-0.2432,-0.1757,-0.1223,-0.119,-0.052,0.0,0.0,0.0,0.0,0.0,0.0,0.0,0.0,0.0,0.0,0.0,0.0,0.0,0.0,0.0,0.0,0.0,0.0,0.0,0.0,0.0,-0.0819,-0.2873,-0.3317,-0.2513,-0.0421,-0.0419,-0.1459,-0.2894,-0.2876,-0.1842,0.0,0.0,0.0,0.0,0.0,0.0,0.0,-0.101,-0.1824,-0.3067,-0.2673,-0.2068,-0.1251,-0.1258,-0.1682,-0.2523,-0.2924,-0.3326,1.5857,1.5124,1.4689,1.3985,1.3059,1.3038,1.3032,1.3016,0.0,0.0,0.0,1.295,1.295,1.295,1.295,1.295,1.2749,0.9283,0.7465,0.7478,0.3864,0.2245,0.2862,1.0124,1.352,1.3515,1.3303,1.3314,1.3123,0.9557,0.9808,1.3294,1.352,1.3564,1.3656,1.3662,1.3613,1.3515,1.3681,1.351,1.3195,1.3369,1.3311,1.3022,1.2948,0.8884,0.0,0.0,0.0,0.0,0.0,0.0,0.0,0.0,0.0,0.0,0.0,0.0,0.0,-0.1434,-0.2169,-0.221,-0.0931,0.0,0.0,0.0,0.0,0.0,0.0,0.0,0.0,0.0,0.0,0.0,0.0,0.0,0.0,0.0,0.0,0.0,0.0,0.0,0.0,0.0,0.0,0.0,0.0,-0.0613,-0.2251,-0.2683,-0.2078,-0.0415,0.0,-0.0621,-0.2065,-0.308,-0.2454,0.0,0.0,0.0,0.0,0.0,0.0,0.0,0.0,0.0,-0.287,-0.3306,-0.2501,-0.0421,-0.0636,-0.1492,-0.1703,-0.253,-0.3348,1.6335,1.5246,1.5136,1.4458,1.339,1.3281,1.3243,1.3449,1.3205,1.3189,1.3189,1.3189,1.3189,1.3189,1.3189,1.32,1.3016,1.239,1.1979,1.1999,1.1386,1.1395,1.1817,1.3091,1.3515,1.3498,1.3498,1.3341,1.322,1.2802,1.2859,1.3597,1.3613,1.3613,1.3613,1.3613,1.3607,1.3586,1.351,1.3461,1.3455,1.3352,1.3287,1.307,1.308,0.9072,0.0,0.0,0.0,0.0,0.0,0.0,0.0,0.0,0.0,0.0,0.0,0.0,0.0,0.0,-0.038,-0.0384,-0.0194,0.0,0.0,0.0,0.0,0.0,0.0,0.0,0.0,0.0,0.0,0.0,0.0,0.0,0.0,0.0,0.0,0.0,0.0,0.0,0.0,0.0,0.0,0.0,0.0,0.0,0.0,-0.0411,-0.0413,0.0,0.0,0.0,-0.0814,-0.2027,-0.2026,-0.0405,0.0,0.0,0.0,0.0,0.0,0.0,0.0,0.0,-0.2889,-0.3321,-0.2506,-0.0634,-0.0425,-0.0639,-0.1491,-0.2548,-0.3396,1.6558,1.5704,1.5431,1.4569,1.351,1.3461,1.3439,1.3647,1.3439,1.3357,1.3454,1.3243,1.3238,1.3238,1.3238,1.3243,1.3048,1.3048,1.3054,1.307,1.3134,1.3374,1.3587,1.3647,1.3681,1.3664,1.3455,1.3488,1.3537,1.3542,1.3564,1.3618,1.3618,1.3613,1.3607,1.3607,1.364,1.3912,1.3597,1.3531,1.352,1.3466,1.3439,1.3439,1.3461,1.1545,0.7518,0.2701,0.0,0.0,0.0,0.0,0.0,0.0,0.0,0.0,0.0,0.0,0.0,0.0,0.0,0.0,0.0,0.0,0.0,0.0,0.0,0.0,0.0,0.0,0.0,0.0,0.0,0.0,0.0,0.0,0.0,0.0,0.0,0.0,0.0,0.0,0.0,0.0,0.0,0.0,0.0,0.0,0.0,0.0,0.0,0.0,0.0,0.0,0.0,-0.0808,-0.101,-0.0,0.0,0.0,0.0,0.0,0.0,0.0,0.0,0.0,-0.2264,-0.3093,-0.2489,-0.1465,-0.0422,-0.0635,-0.1482,-0.2549,-0.3411,1.6558,1.6131,1.5493,1.4651,1.3591,1.3602,1.3607,1.3607,1.3602,1.3708,1.3548,1.3325,1.3319,1.3319,1.3319,1.3319,1.3319,1.3319,1.3319,1.333,1.3423,1.3675,1.3681,1.3564,1.3607,1.3607,1.3607,1.3607,1.3607,1.3629,1.3656,1.3678,1.3684,1.3684,1.3684,1.3684,1.3732,1.4034,1.3732,1.3684,1.3684,1.3684,1.3673,1.3645,1.3656,1.3667,1.3227,0.4857,0.0,0.0,0.0,0.0,0.0,0.0,0.0,0.0,0.0,0.0,0.0,0.0,0.0,0.0,0.0,0.0,0.0,0.0,0.0,0.0,0.0,0.0,0.0,0.0,0.0,0.0,0.0,0.0,0.0,0.0,0.0,0.0,0.0,0.0,0.0,0.0,0.0,0.0,0.0,0.0,0.0,0.0,0.0,0.0,0.0,0.0,0.0,0.0,0.0,0.0,0.0,0.0,0.0,0.0,0.0,0.0,0.0,0.0,-0.1227,-0.246,-0.2882,-0.2075,-0.1045,-0.042,-0.1469,-0.2534,-0.3403,1.6558,1.6131,1.5506,1.4657,1.3613,1.3613,1.3613,1.3613,1.3607,1.3597,1.3575,1.3575,1.3569,1.3569,1.3569,1.3564,1.3569,1.3569,1.3569,1.3569,1.358,1.3586,1.3597,1.3607,1.3607,1.3613,1.3613,1.3624,1.3635,1.3722,1.36,1.369,1.3701,1.3696,1.3696,1.3696,1.3707,1.3939,1.415,1.4144,1.3923,1.3923,1.3874,1.3557,1.3557,1.3514,1.3434,0.4879,0.0,0.0,0.0,0.0,0.0,0.0,0.0,0.0,0.0,0.0,0.0,0.0,0.0,0.0,0.0,0.0,0.0,0.0,0.0,0.0,0.0,0.0,0.0,0.0,0.0,0.0,0.0,0.0,0.0,0.0,0.0,0.0,0.0,0.0,0.0,0.0,0.0,0.0,0.0,0.0,0.0,0.0,0.0,0.0,0.0,0.0,0.0,0.0,0.0,0.0,0.0,0.0,0.0,0.0,0.0,0.0,0.0,0.0,-0.0816,-0.164,-0.3081,-0.2888,-0.1659,-0.0416,-0.1456,-0.2513,-0.338,1.7029,1.6809,1.6376,1.5088,1.3803,1.3809,1.3809,1.3594,1.3594,1.3809,1.3814,1.3814,1.3776,1.3711,1.3716,1.3749,1.3809,1.3594,1.3594,1.3594,1.3594,1.3594,1.3594,1.3814,1.3814,1.3814,1.3814,1.3809,1.3819,1.3863,1.3912,1.395,1.3955,1.3955,1.3955,1.3955,1.3993,1.4282,1.4288,1.4315,1.4146,1.4031,1.3934,1.3885,1.3605,1.3557,1.3306,0.9815,0.5519,0.0,0.0,0.0,0.0,0.0,0.0,0.0,0.0,0.0,0.0,0.0,0.0,0.0,0.0,0.0,0.0,0.0,0.0,0.0,0.0,0.0,0.0,0.0,0.0,0.0,0.0,0.0,0.0,0.0,0.0,0.0,0.0,0.0,0.0,0.0,0.0,0.0,0.0,0.0,0.0,0.0,0.0,0.0,0.0,0.0,0.0,0.0,0.0,0.0,0.0,0.0,0.0,0.0,0.0,0.0,0.0,0.0,0.0,-0.2236,-0.3258,-0.2864,-0.1645,-0.0412,-0.1451,-0.2508,-0.3159,1.7419,1.7203,1.6556,1.5248,1.3717,1.4166,1.3955,1.3733,1.3733,1.395,1.3961,1.3955,1.3934,1.3885,1.3852,1.3879,1.395,1.3739,1.3733,1.3733,1.3739,1.3733,1.3739,1.3955,1.4177,1.4177,1.395,1.3972,1.4004,1.4004,1.4021,1.4048,1.4277,1.4277,1.4277,1.4282,1.4321,1.4404,1.4409,1.4233,1.4287,1.4146,1.4042,1.4004,1.3923,1.3648,1.3589,1.353,0.939,0.0,0.0,0.0,0.0,0.0,0.0,0.0,0.0,0.0,0.0,0.0,0.0,0.0,0.0,0.0,0.0,0.0,0.0,0.0,0.0,0.0,0.0,0.0,0.0,0.0,0.0,0.0,0.0,0.0,0.0,0.0,0.0,0.0,0.0,0.0,0.0,0.0,0.0,0.0,0.0,0.0,0.0,0.0,0.0,0.0,0.0,0.0,0.0,0.0,0.0,0.0,0.0,0.0,0.0,0.0,0.0,0.0,0.0,-0.182,-0.2631,-0.2632,-0.1627,-0.041,-0.1444,-0.2499,-0.3144,1.7419,1.721,1.6131,1.5049,1.415,1.4611,1.4611,1.4411,1.4177,1.4177,1.42,1.4194,1.4244,1.4108,1.401,1.3955,1.3966,1.3977,1.3977,1.3977,1.4194,1.4183,1.4177,1.4177,1.4188,1.4211,1.3993,1.4031,1.4129,1.4129,1.4189,1.4287,1.4287,1.4292,1.4287,1.4282,1.4303,1.4298,1.4298,1.4309,1.432,1.4309,1.4238,1.436,1.4343,1.401,1.3616,1.3589,0.9435,0.0425,0.0,0.0,0.0,0.0,0.0,0.0,0.0,0.0,0.0,0.0,0.0,0.0,0.0,0.0,0.0,0.0,0.0,0.0,0.0,0.0,0.0,0.0,0.0,0.0,0.0,0.0,0.0,0.0,0.0,0.0,0.0,0.0,0.0,0.0,0.0,0.0,0.0,0.0,0.0,0.0,0.0,0.0,0.0,0.0,0.0,0.0,0.0,0.0,0.0,0.0,0.0,0.0,0.0,0.0,0.0,0.0,0.0,-0.0607,-0.1419,-0.142,-0.1015,-0.0613,-0.1442,-0.2483,-0.3125,1.7704,1.7704,1.6388,1.5723,1.5266,1.5058,1.5735,1.642,1.4844,1.4178,1.4409,1.4409,1.4216,1.4254,1.4211,1.4189,1.4189,1.4189,1.4189,1.4189,1.4189,1.4409,1.4409,1.4409,1.4415,1.4195,1.4189,1.4211,1.4249,1.4254,1.4276,1.4309,1.432,1.432,1.432,1.432,1.432,1.432,1.432,1.432,1.432,1.432,1.4298,1.4254,1.4178,1.4102,1.4015,1.3669,1.2058,0.8797,0.3199,0.0,0.0,0.0,0.0,0.0,0.0,0.0,0.0,0.0,0.0,0.0,0.0,0.0,0.0,0.0,0.0,0.0,0.0,0.0,0.0,0.0,0.0,0.0,0.0,0.0,0.0,0.0,0.0,0.0,0.0,0.0,0.0,0.0,0.0,0.0,0.0,0.0,0.0,0.0,0.0,0.0,0.0,0.0,0.0,0.0,0.0,0.0,0.0,0.0,0.0,0.0,0.0,0.0,0.0,0.0,0.0,0.0,0.0,0.0,0.0,-0.0615,-0.1445,-0.2494,-0.3136,1.786,1.7639,1.6533,1.6083,1.6065,1.564,1.633,1.7693,1.5652,1.4747,1.4314,1.432,1.432,1.432,1.432,1.432,1.432,1.432,1.432,1.432,1.432,1.432,1.432,1.432,1.432,1.432,1.432,1.432,1.432,1.432,1.432,1.432,1.432,1.432,1.432,1.432,1.432,1.432,1.432,1.432,1.432,1.432,1.432,1.4309,1.4238,1.4178,1.436,1.3993,1.3669,1.2531,0.6211,0.1494,0.0,0.0,0.0,0.0,0.0,0.0,0.0,0.0,0.0,0.0,0.0,0.0,0.0,0.0,0.0,0.0,0.0,0.0,0.0,0.0,0.0,0.0,0.0,0.0,0.0,0.0,0.0,0.0,0.0,0.0,0.0,0.0,0.0,0.0,0.0,0.0,0.0,0.0,0.0,0.0,0.0,0.0,0.0,0.0,0.0,0.0,0.0,0.0,0.0,0.0,0.0,0.0,0.0,0.0,0.0,0.0,0.0,0.0,0.0,-0.0414,-0.1457,-0.2511,-0.3156,1.786,1.7639,1.6539,1.6077,1.6059,1.6077,1.6773,1.7672,1.6545,1.5418,1.4303,1.4314,1.432,1.432,1.432,1.432,1.432,1.432,1.432,1.432,1.432,1.432,1.432,1.432,1.432,1.432,1.432,1.432,1.432,1.432,1.432,1.432,1.432,1.432,1.432,1.433,1.433,1.4325,1.433,1.433,1.432,1.432,1.432,1.432,1.4309,1.426,1.4376,1.4129,1.4037,1.3227,0.9054,0.4503,0.0,0.0,0.0,0.0,0.0,0.0,0.0,0.0,0.0,0.0,0.0,0.0,0.0,0.0,0.0,0.0,0.0,0.0,0.0,0.0,0.0,0.0,0.0,0.0,0.0,0.0,0.0,0.0,0.0,0.0,0.0,0.0,0.0,0.0,0.0,0.0,0.0,0.0,0.0,0.0,0.0,0.0,0.0,0.0,0.0,0.0,0.0,0.0,0.0,0.0,0.0,0.0,0.0,0.0,0.0,0.0,0.0,0.0,0.0,0.0,-0.1469,-0.2532,-0.3172,1.786,1.786,1.6982,1.6526,1.6292,1.6533,1.7223,1.7693,1.7001,1.5652,1.4536,1.432,1.432,1.432,1.432,1.432,1.432,1.432,1.432,1.432,1.432,1.432,1.432,1.432,1.432,1.432,1.432,1.432,1.432,1.432,1.432,1.432,1.4325,1.432,1.4336,1.4625,1.4641,1.4341,1.4407,1.4412,1.433,1.4325,1.4325,1.432,1.432,1.4298,1.4265,1.4184,1.4124,1.4086,0.9327,0.4719,0.0,0.0,0.0,0.0,0.0,0.0,0.0,0.0,0.0,0.0,0.0,0.0,0.0,0.0,0.0,0.0,0.0,0.0,0.0,0.0,0.0,0.0,0.0,0.0,0.0,0.0,0.0,0.0,0.0,0.0,0.0,0.0,0.0,0.0,0.0,0.0,0.0,0.0,0.0,0.0,0.0,0.0,0.0,0.0,0.0,0.0,0.0,0.0,0.0,0.0,0.0,0.0,0.0,0.0,0.0,0.0,0.0,0.0,0.0,0.0,0.0,-0.2337,-0.2976,1.8036,1.8036,1.7366,1.6913,1.6671,1.7079,1.7301,1.7753,1.6799,1.5652,1.4536,1.432,1.432,1.432,1.432,1.432,1.432,1.432,1.432,1.432,1.432,1.432,1.432,1.432,1.432,1.432,1.432,1.432,1.432,1.4325,1.4347,1.4379,1.4385,1.4412,1.445,1.4752,1.4752,1.4696,1.4532,1.451,1.4412,1.439,1.4369,1.433,1.432,1.432,1.4314,1.4243,1.4205,1.3052,0.8054,0.3011,0.0,0.0,0.0,0.0,0.0,0.0,0.0,0.0,0.0,0.0,0.0,0.0,0.0,0.0,0.0,0.0,0.0,0.0,0.0,0.0,0.0,0.0,0.0,0.0,0.0,0.0,0.0,0.0,0.0,0.0,0.0,0.0,0.0,0.0,0.0,0.0,0.0,0.0,0.0,0.0,0.0,0.0,0.0,0.0,0.0,0.0,0.0,0.0,0.0,0.0,0.0,0.0,0.0,0.0,0.0,0.0,0.0,0.0,0.0,0.0,0.0,0.0,-0.3195,1.8314,1.8321,1.7628,1.7608,1.7815,1.7246,1.7432,1.7643,1.662,1.5442,1.4542,1.432,1.432,1.432,1.432,1.432,1.432,1.432,1.432,1.432,1.432,1.432,1.432,1.432,1.432,1.432,1.432,1.433,1.4352,1.4352,1.439,1.4274,1.4285,1.4327,1.4397,1.4901,1.4906,1.4879,1.4901,1.4624,1.4279,1.4494,1.4439,1.433,1.432,1.432,1.432,1.4309,1.4054,1.2852,0.0,0.0,0.0,0.0,0.0,0.0,0.0,0.0,0.0,0.0,0.0,0.0,0.0,0.0,0.0,0.0,0.0,0.0,0.0,0.0,0.0,0.0,0.0,0.0,0.0,0.0,0.0,0.0,0.0,0.0,0.0,0.0,0.0,0.0,0.0,0.0,0.0,0.0,0.0,0.0,0.0,0.0,0.0,0.0,0.0,0.0,0.0,0.0,0.0,0.0,0.0,0.0,0.0,0.0,0.0,0.0,0.0,0.0,0.0,0.0,0.0,0.0,0.0,0.0,-0.3198,1.8321,1.8321,1.8094,1.8094,1.8094,1.8048,1.7815,1.7802,1.6759,1.5559,1.4417,1.4352,1.4336,1.4325,1.4325,1.432,1.433,1.4325,1.432,1.432,1.432,1.432,1.432,1.4325,1.4325,1.433,1.4347,1.4363,1.445,1.4455,1.429,1.4392,1.4397,1.4646,1.4906,1.5,1.4989,1.4934,1.5006,1.4934,1.4537,1.451,1.4445,1.4336,1.432,1.432,1.4325,1.4336,1.2492,0.8845,0.0,0.0,0.0,0.0,0.0,0.0,0.0,0.0,0.0,0.0,0.0,0.0,0.0,0.0,0.0,0.0,0.0,0.0,0.0,0.0,0.0,0.0,0.0,0.0,0.0,0.0,0.0,0.0,0.0,0.0,0.0,0.0,0.0,0.0,0.0,0.0,0.0,0.0,0.0,0.0,0.0,0.0,0.0,0.0,0.0,0.0,0.0,0.0,0.0,0.0,0.0,0.0,0.0,0.0,0.0,0.0,0.0,0.0,0.0,-0.0645,0.0,0.0,0.0,-0.1279,-0.2558,1.8504,1.8504,1.8504,1.8511,1.8504,1.8443,1.8423,1.7947,1.6903,1.5694,1.4763,1.4499,1.4466,1.4466,1.4423,1.4396,1.4396,1.4347,1.432,1.433,1.4374,1.4396,1.4401,1.4401,1.4423,1.4466,1.4466,1.451,1.4564,1.4575,1.4635,1.4493,1.4515,1.4776,1.5072,1.5116,1.4901,1.5088,1.5127,1.482,1.4829,1.4575,1.4472,1.4363,1.432,1.432,1.4325,1.433,1.2955,0.9325,0.0,0.0,0.0,0.0,0.0,0.0,0.0,0.0,0.0,0.0,0.0,0.0,0.0,0.0,0.0,0.0,0.0,0.0,0.0,0.0,0.0,0.0,0.0,0.0,0.0,0.0,0.0,0.0,0.0,0.0,0.0,0.0,0.0,0.0,0.0,0.0,0.0,0.0,0.0,0.0,0.0,0.0,0.0,0.0,0.0,0.0,0.0,0.0,0.0,0.0,0.0,0.0,0.0,0.0,0.0,0.0,0.0,-0.2838,-0.3029,-0.1937,-0.0856,-0.0213,-0.0426,-0.0639,-0.1918,1.8762,1.8762,1.8762,1.8762,1.8728,1.885,1.8802,1.8559,1.7263,1.5823,1.4895,1.4673,1.4635,1.4662,1.4553,1.4515,1.4494,1.4401,1.4363,1.4385,1.4445,1.4504,1.4327,1.4532,1.4796,1.4629,1.4668,1.4678,1.4689,1.4695,1.476,1.4611,1.4638,1.4928,1.4977,1.5021,1.5032,1.501,1.5005,1.4896,1.4928,1.4873,1.4542,1.4352,1.432,1.432,1.432,1.4325,1.4097,1.4119,0.5993,0.0,0.0,0.0,0.0,0.0,0.0,0.0,0.0,0.0,0.0,0.0,0.0,0.0,0.0,0.0,0.0,0.0,0.0,0.0,0.0,0.0,0.0,0.0,0.0,0.0,0.0,0.0,0.0,0.0,0.0,0.0,0.0,0.0,0.0,0.0,0.0,0.0,0.0,0.0,0.0,0.0,0.0,0.0,0.0,0.0,0.0,0.0,0.0,0.0,0.0,0.0,0.0,0.0,0.0,0.0,0.0,-0.154,-0.2391,-0.3022,-0.1934,-0.0856,-0.0213,-0.0639,-0.1279,1.8762,1.8762,1.8762,1.8762,1.8755,1.8728,1.8715,1.8701,1.7639,1.6416,1.5235,1.4711,1.4689,1.4678,1.4651,1.4591,1.4521,1.4472,1.4466,1.4696,1.4713,1.4624,1.4716,1.4923,1.489,1.4923,1.4678,1.4727,1.4793,1.4825,1.4874,1.4977,1.4983,1.501,1.5032,1.5037,1.5037,1.5037,1.5032,1.4907,1.4956,1.489,1.4553,1.4347,1.432,1.432,1.432,1.432,1.4325,1.3632,1.2015,0.73,0.0,0.0,0.0,0.0,0.0,0.0,0.0,0.0,0.0,0.0,0.0,0.0,0.0,0.0,0.0,0.0,0.0,0.0,0.0,0.0,0.0,0.0,0.0,0.0,0.0,0.0,0.0,0.0,0.0,0.0,0.0,0.0,0.0,0.0,0.0,0.0,0.0,0.0,0.0,0.0,0.0,0.0,0.0,0.0,0.0,0.0,0.0,0.0,0.0,0.0,0.0,0.0,0.0,0.0,0.0,-0.0221,-0.1307,-0.2169,-0.2804,-0.1713,-0.0853,-0.0853,-0.0853,1.8762,1.8762,1.8762,1.8762,1.8762,1.8762,1.8762,1.8749,1.8238,1.6792,1.5364,1.4852,1.4847,1.4836,1.4782,1.4695,1.4591,1.4295,1.4532,1.4586,1.4873,1.5006,1.489,1.4885,1.5077,1.5072,1.4847,1.489,1.4928,1.4939,1.4967,1.5032,1.5037,1.5032,1.5037,1.5037,1.5037,1.5021,1.4972,1.4858,1.4934,1.4619,1.4521,1.4358,1.432,1.432,1.432,1.432,1.432,1.4314,1.4076,1.1121,0.4422,0.0,0.0,0.0,0.0,0.0,0.0,0.0,0.0,0.0,0.0,0.0,0.0,0.0,0.0,0.0,0.0,0.0,0.0,0.0,0.0,0.0,0.0,0.0,0.0,0.0,0.0,0.0,0.0,0.0,0.0,0.0,0.0,0.0,0.0,0.0,0.0,0.0,0.0,0.0,0.0,0.0,0.0,0.0,0.0,0.0,0.0,0.0,0.0,0.0,0.0,0.0,0.0,0.0,0.0,0.0,0.0,-0.0871,-0.1513,-0.1286,-0.1492,-0.1492,-0.1066,1.8762,1.8762,1.8762,1.8762,1.8762,1.8762,1.8762,1.8769,1.8557,1.6884,1.5237,1.5026,1.4999,1.5005,1.4928,1.4809,1.4668,1.4333,1.4548,1.4884,1.5,1.489,1.4988,1.5005,1.5005,1.5037,1.501,1.5021,1.5021,1.5037,1.5021,1.5037,1.5037,1.5037,1.5037,1.5037,1.5037,1.5026,1.4928,1.4809,1.4912,1.4575,1.4455,1.4347,1.432,1.432,1.432,1.432,1.432,1.4325,1.4363,1.1617,0.7325,0.0,0.0,0.0,0.0,0.0,0.0,0.0,0.0,0.0,0.0,0.0,0.0,0.0,0.0,0.0,0.0,0.0,0.0,0.0,0.0,0.0,0.0,0.0,0.0,0.0,0.0,0.0,0.0,0.0,0.0,0.0,0.0,0.0,0.0,0.0,0.0,0.0,0.0,0.0,0.0,0.0,0.0,0.0,0.0,0.0,0.0,0.0,0.0,0.0,0.0,0.0,0.0,0.0,0.0,0.0,0.0,0.0,-0.1298,-0.2139,-0.2345,-0.2132,-0.1705,1.8762,1.8762,1.8762,1.8762,1.8762,1.8762,1.8762,1.853,1.7607,1.6419,1.5232,1.5026,1.5037,1.5026,1.5026,1.4885,1.47,1.4365,1.4586,1.4928,1.505,1.4939,1.5015,1.5037,1.5037,1.5037,1.5037,1.5037,1.5037,1.5037,1.5037,1.5037,1.5037,1.5037,1.5037,1.5037,1.5032,1.4999,1.4896,1.4776,1.4662,1.4542,1.4439,1.433,1.432,1.432,1.432,1.432,1.432,1.4325,1.4347,1.1639,0.7807,0.2889,0.0,0.0,0.0,0.0,0.0,0.0,0.0,0.0,0.0,0.0,0.0,0.0,0.0,0.0,0.0,0.0,0.0,0.0,0.0,0.0,0.0,0.0,0.0,0.0,0.0,0.0,0.0,0.0,0.0,0.0,0.0,0.0,0.0,0.0,0.0,0.0,0.0,0.0,0.0,0.0,0.0,0.0,0.0,0.0,0.0,0.0,0.0,0.0,0.0,0.0,0.0,0.0,0.0,0.0,0.0,0.0,0.0,0.0,-0.2985,-0.2772,-0.2558,1.8762,1.8762,1.8762,1.8762,1.8762,1.8762,1.8762,1.853,1.6884,1.5703,1.5237,1.5021,1.5037,1.5037,1.5037,1.4928,1.4782,1.4483,1.4488,1.5028,1.5127,1.4972,1.5032,1.5037,1.5037,1.5037,1.5037,1.5037,1.5037,1.5037,1.5037,1.5037,1.5037,1.5037,1.5037,1.5037,1.4999,1.4945,1.4825,1.4706,1.4586,1.4472,1.4379,1.4341,1.432,1.432,1.4325,1.433,1.433,1.433,1.4352,1.3014,0.9627,0.0,0.0,0.0,0.0,0.0,0.0,0.0,0.0,0.0,0.0,0.0,0.0,0.0,0.0,0.0,0.0,0.0,0.0,0.0,0.0,0.0,0.0,0.0,0.0,0.0,0.0,0.0,0.0,0.0,0.0,0.0,0.0,0.0,0.0,0.0,0.0,0.0,0.0,0.0,0.0,0.0,0.0,0.0,0.0,0.0,0.0,0.0,0.0,0.0,0.0,0.0,0.0,0.0,0.0,0.0,0.0,0.0,0.0,-0.2559,-0.2986,-0.3198,-0.2985,1.8762,1.8762,1.8762,1.8762,1.8762,1.8762,1.8762,1.8291,1.6407,1.5232,1.4999,1.5026,1.5037,1.5026,1.4999,1.4939,1.4852,1.4611,1.4606,1.4869,1.4967,1.5037,1.5037,1.5037,1.5037,1.5037,1.5037,1.5037,1.5037,1.5037,1.5037,1.5037,1.5037,1.5037,1.5037,1.5037,1.4961,1.4858,1.4733,1.4613,1.4477,1.4379,1.432,1.432,1.432,1.432,1.4325,1.433,1.4336,1.4336,1.4352,1.4156,1.2806,0.6046,0.0,0.0,0.0,0.0,0.0,0.0,0.0,0.0,0.0,0.0,0.0,0.0,0.0,0.0,0.0,0.0,0.0,0.0,0.0,0.0,0.0,0.0,0.0,0.0,0.0,0.0,0.0,0.0,0.0,0.0,0.0,0.0,0.0,0.0,0.0,0.0,0.0,0.0,0.0,0.0,0.0,0.0,0.0,0.0,0.0,0.0,0.0,0.0,0.0,0.0,0.0,0.0,0.0,0.0,0.0,0.0,0.0,-0.192,-0.2986,-0.3198,-0.3198,1.8291,1.8762,1.8291,1.8291,1.8762,1.8762,1.8762,1.8523,1.6884,1.5709,1.4994,1.5015,1.5026,1.4999,1.4923,1.4874,1.4858,1.4869,1.4874,1.4901,1.4988,1.5037,1.5037,1.5037,1.5037,1.5037,1.5037,1.5037,1.5037,1.5037,1.5037,1.5037,1.5037,1.5037,1.5037,1.5037,1.4972,1.4852,1.4493,1.4333,1.439,1.433,1.4325,1.432,1.432,1.432,1.4325,1.433,1.433,1.4341,1.4336,1.4363,1.3491,0.9418,0.4256,0.0,0.0,0.0,0.0,0.0,0.0,0.0,0.0,0.0,0.0,0.0,0.0,0.0,0.0,0.0,0.0,0.0,0.0,0.0,0.0,0.0,0.0,0.0,0.0,0.0,0.0,0.0,0.0,0.0,0.0,0.0,0.0,0.0,0.0,0.0,0.0,0.0,0.0,0.0,0.0,0.0,0.0,0.0,0.0,0.0,0.0,0.0,0.0,0.0,0.0,0.0,0.0,0.0,0.0,-0.1723,-0.2137,-0.2559,-0.3198,-0.3411,-0.3411,1.7826,1.8762,1.8059,1.8291,1.8762,1.8762,1.8762,1.8762,1.8078,1.6657,1.5221,1.4945,1.4901,1.4847,1.4836,1.4858,1.4874,1.4918,1.4956,1.4956,1.501,1.5037,1.5037,1.5037,1.5037,1.5037,1.5037,1.5037,1.5037,1.5037,1.5037,1.5037,1.5037,1.5037,1.5037,1.5037,1.4918,1.4754,1.4575,1.4428,1.4347,1.432,1.432,1.432,1.432,1.432,1.4325,1.4336,1.4336,1.4347,1.4341,1.4363,1.3262,0.9645,0.0,0.0,0.0,0.0,0.0,0.0,0.0,0.0,0.0,0.0,0.0,0.0,0.0,0.0,0.0,0.0,0.0,0.0,0.0,0.0,0.0,0.0,0.0,0.0,0.0,0.0,0.0,0.0,0.0,0.0,0.0,0.0,0.0,0.0,0.0,0.0,0.0,0.0,0.0,0.0,0.0,0.0,0.0,0.0,0.0,0.0,0.0,0.0,0.0,0.0,0.0,0.0,0.0,0.0,0.0,-0.1938,-0.2985,-0.3198,-0.3411,-0.3411,-0.3411,1.7594,1.8523,1.782,1.8065,1.8762,1.8769,1.8762,1.8769,1.8796,1.7374,1.5448,1.4901,1.4793,1.4711,1.4771,1.4814,1.4863,1.495,1.501,1.5026,1.5037,1.5037,1.5037,1.5037,1.5037,1.5037,1.5037,1.5037,1.5037,1.5037,1.5037,1.5037,1.5037,1.5037,1.5037,1.5021,1.4928,1.4689,1.4461,1.4347,1.432,1.432,1.432,1.432,1.432,1.432,1.4325,1.433,1.4341,1.4358,1.4352,1.4374,1.3735,1.1235,0.6277,0.0,0.0,0.0,0.0,0.0,0.0,0.0,0.0,0.0,0.0,0.0,0.0,0.0,0.0,0.0,0.0,0.0,0.0,0.0,0.0,0.0,0.0,0.0,0.0,0.0,0.0,0.0,0.0,0.0,0.0,0.0,0.0,0.0,0.0,0.0,0.0,0.0,0.0,0.0,0.0,0.0,0.0,0.0,0.0,0.0,0.0,0.0,0.0,0.0,0.0,0.0,0.0,0.0,-0.0435,-0.1721,-0.2772,-0.3198,-0.3411,-0.3411,-0.3411,1.7361,1.7826,1.7129,1.76,1.8776,1.8769,1.8762,1.8762,1.8796,1.7368,1.5188,1.4885,1.4771,1.4689,1.4673,1.4744,1.5083,1.5094,1.4945,1.501,1.5037,1.5037,1.5037,1.5037,1.5037,1.5037,1.5037,1.5037,1.5037,1.5037,1.5037,1.5037,1.5037,1.5037,1.5021,1.4988,1.4649,1.4429,1.4439,1.433,1.432,1.432,1.432,1.432,1.432,1.432,1.432,1.4325,1.4341,1.4374,1.4363,1.3466,1.283,1.3054,0.853,0.0,0.0,0.0,0.0,0.0,0.0,0.0,0.0,0.0,0.0,0.0,0.0,0.0,0.0,0.0,0.0,0.0,0.0,0.0,0.0,0.0,0.0,0.0,0.0,0.0,0.0,0.0,0.0,0.0,0.0,0.0,0.0,0.0,0.0,0.0,0.0,0.0,0.0,0.0,0.0,0.0,0.0,0.0,0.0,0.0,0.0,0.0,0.0,0.0,0.0,0.0,0.0,0.0,-0.087,-0.1717,-0.2345,-0.2985,-0.3411,-0.3411,-0.3411,1.7129,1.7129,1.6902,1.7607,1.8782,1.8769,1.8762,1.8769,1.8796,1.728,1.4803,1.4754,1.4635,1.4521,1.4548,1.4635,1.4744,1.5061,1.4923,1.5005,1.5037,1.5037,1.5037,1.5037,1.5037,1.5037,1.5037,1.5037,1.5037,1.5037,1.5037,1.5037,1.5037,1.5037,1.501,1.4907,1.4765,1.4424,1.4231,1.4325,1.432,1.432,1.432,1.432,1.432,1.432,1.432,1.432,1.4341,1.4358,1.4358,1.2796,1.1459,1.282,0.9181,0.0,0.0,0.0,0.0,0.0,0.0,0.0,0.0,0.0,0.0,0.0,0.0,0.0,0.0,0.0,0.0,0.0,0.0,0.0,0.0,0.0,0.0,0.0,0.0,0.0,0.0,0.0,0.0,0.0,0.0,0.0,0.0,0.0,0.0,0.0,0.0,0.0,0.0,0.0,0.0,0.0,0.0,0.0,0.0,0.0,0.0,0.0,0.0,0.0,0.0,0.0,0.0,0.0,-0.1303,-0.1715,-0.2559,-0.3198,-0.3411,-0.3411,-0.3411,1.6902,1.6663,1.6896,1.7368,1.8311,1.8537,1.8762,1.8769,1.8803,1.7236,1.4678,1.4668,1.4542,1.4401,1.4407,1.4515,1.4629,1.4744,1.4869,1.495,1.501,1.5032,1.5037,1.5037,1.5037,1.5037,1.5037,1.5037,1.5037,1.5037,1.5037,1.5037,1.5037,1.5037,1.4983,1.5044,1.4662,1.4349,1.422,1.4325,1.432,1.432,1.432,1.432,1.432,1.432,1.432,1.4325,1.433,1.4347,1.3678,1.1652,1.0755,0.9843,0.8468,0.0,0.0,0.0,0.0,0.0,0.0,0.0,0.0,0.0,0.0,0.0,0.0,0.0,0.0,0.0,0.0,0.0,0.0,0.0,0.0,0.0,0.0,0.0,0.0,0.0,0.0,0.0,0.0,0.0,0.0,0.0,0.0,0.0,0.0,0.0,0.0,0.0,0.0,0.0,0.0,0.0,0.0,0.0,0.0,0.0,0.0,0.0,0.0,0.0,0.0,0.0,0.0,0.0,-0.1302,-0.1711,-0.2561,-0.3411,-0.3411,-0.3411,-0.3411,1.6669,1.6198,1.6669,1.6896,1.7368,1.8298,1.8762,1.8762,1.855,1.6999,1.4917,1.4673,1.4542,1.4369,1.4347,1.4423,1.4537,1.4646,1.4765,1.4885,1.4994,1.5032,1.5037,1.5037,1.5037,1.5037,1.5037,1.5037,1.5037,1.5037,1.5037,1.5026,1.5021,1.501,1.5005,1.5022,1.4851,1.4279,1.4385,1.4336,1.432,1.432,1.432,1.432,1.432,1.432,1.432,1.432,1.433,1.4341,1.4363,1.2335,0.9624,1.2274,0.9772,0.0,0.0,0.0,0.0,0.0,0.0,0.0,0.0,0.0,0.0,0.0,0.0,0.0,0.0,0.0,0.0,0.0,0.0,0.0,0.0,0.0,0.0,0.0,0.0,0.0,0.0,0.0,0.0,0.0,0.0,0.0,0.0,0.0,0.0,0.0,0.0,0.0,0.0,0.0,0.0,0.0,0.0,0.0,0.0,0.0,0.0,0.0,0.0,0.0,0.0,0.0,0.0,0.0,-0.1301,-0.1711,-0.2775,-0.3411,-0.3411,-0.3411,-0.3411,1.643,1.5959,1.6663,1.7135,1.7374,1.8298,1.8762,1.8523,1.7104,1.5584,1.4934,1.4673,1.4542,1.4385,1.433,1.4385,1.4499,1.4392,1.4509,1.4858,1.4977,1.5026,1.5037,1.5037,1.5037,1.5037,1.5037,1.5037,1.5037,1.5037,1.5037,1.5026,1.495,1.4918,1.5088,1.4928,1.4763,1.4488,1.439,1.432,1.432,1.432,1.432,1.432,1.432,1.432,1.432,1.432,1.4325,1.4336,1.4358,1.3227,1.1625,1.4044,1.2612,0.7463,0.0,0.0,0.0,0.0,0.0,0.0,0.0,0.0,0.0,0.0,0.0,0.0,0.0,0.0,0.0,0.0,0.0,0.0,0.0,0.0,0.0,0.0,0.0,0.0,0.0,0.0,0.0,0.0,0.0,0.0,0.0,0.0,0.0,0.0,0.0,0.0,0.0,0.0,0.0,0.0,0.0,0.0,0.0,0.0,0.0,-0.0898,0.0,0.0,0.0,0.0,0.0,-0.1096,-0.1082,-0.15,-0.2776,-0.3411,-0.3411,-0.3411,-0.3411,1.6436,1.5731,1.643,1.6908,1.7613,1.853,1.8769,1.853,1.6597,1.5302,1.4695,1.4635,1.451,1.4363,1.433,1.4347,1.4455,1.4376,1.4456,1.4814,1.4967,1.5021,1.5037,1.5037,1.5037,1.5037,1.5037,1.5037,1.5037,1.5037,1.501,1.4945,1.4852,1.4771,1.47,1.4807,1.4713,1.4434,1.4347,1.432,1.432,1.432,1.432,1.432,1.432,1.432,1.432,1.432,1.432,1.4325,1.4336,1.4341,1.4309,1.4205,1.4118,1.1587,0.0,0.0,0.0,0.0,0.0,0.0,0.0,0.0,0.0,0.0,0.0,0.0,0.0,0.0,0.0,0.0,0.0,0.0,0.0,0.0,0.0,0.0,0.0,0.0,0.0,0.0,0.0,0.0,0.0,0.0,0.0,0.0,0.0,0.0,0.0,0.0,0.0,0.0,0.0,0.0,0.0,0.0,0.0,0.0,-0.2021,-0.2245,-0.1347,0.0,0.0,0.0,0.0,-0.1311,-0.1515,-0.2147,-0.2775,-0.3198,-0.3411,-0.3411,-0.3411,1.6203,1.5271,1.5731,1.6669,1.7613,1.8298,1.8782,1.8557,1.7467,1.594,1.4668,1.4564,1.4445,1.4341,1.432,1.433,1.4385,1.4343,1.4424,1.476,1.4934,1.4999,1.5037,1.5037,1.5037,1.5037,1.5037,1.5037,1.5037,1.5005,1.495,1.4847,1.4499,1.4397,1.4542,1.4713,1.4647,1.4363,1.4341,1.432,1.432,1.432,1.432,1.432,1.432,1.432,1.432,1.432,1.432,1.4325,1.4336,1.4341,1.4276,1.4124,1.4053,1.1745,0.5144,0.0,0.0,0.0,0.0,0.0,0.0,0.0,0.0,0.0,0.0,0.0,0.0,0.0,0.0,0.0,0.0,0.0,0.0,0.0,0.0,0.0,0.0,0.0,0.0,0.0,0.0,0.0,0.0,0.0,0.0,0.0,0.0,0.0,0.0,0.0,0.0,0.0,0.0,0.0,0.0,0.0,0.0,-0.0674,-0.2021,-0.3145,-0.247,-0.1796,-0.247,-0.2678,-0.2204,-0.2186,-0.2171,-0.28,-0.3202,-0.3198,-0.3411,-0.3411,-0.3411,1.6198,1.5037,1.6203,1.6902,1.7135,1.8298,1.8782,1.8557,1.7467,1.5928,1.4434,1.4553,1.4428,1.433,1.432,1.432,1.4407,1.4306,1.4408,1.4765,1.4923,1.5005,1.5037,1.5037,1.5037,1.5037,1.5037,1.5037,1.5015,1.4972,1.5088,1.4956,1.4397,1.4274,1.4423,1.4379,1.4352,1.4336,1.4325,1.432,1.432,1.432,1.432,1.432,1.432,1.432,1.432,1.432,1.432,1.4325,1.4325,1.433,1.4314,1.232,1.1086,1.2696,0.0,0.0,0.0,0.0,0.0,0.0,0.0,0.0,0.0,0.0,0.0,0.0,0.0,0.0,0.0,0.0,0.0,0.0,0.0,0.0,0.0,0.0,0.0,0.0,0.0,0.0,0.0,0.0,0.0,0.0,0.0,0.0,0.0,0.0,0.0,0.0,0.0,0.0,0.0,0.0,0.0,0.0,0.0,0.0,-0.1796,-0.2694,-0.292,-0.2694,-0.2245,-0.2671,-0.3075,-0.3056,-0.2828,-0.3012,-0.3411,-0.3411,-0.3411,-0.3411,-0.3411,1.6203,1.5271,1.6203,1.6663,1.7123,1.8291,1.8782,1.853,1.7403,1.5875,1.4424,1.4499,1.439,1.433,1.432,1.4325,1.4341,1.4322,1.444,1.4733,1.4923,1.4999,1.5037,1.5037,1.5037,1.5037,1.5037,1.5037,1.5005,1.4918,1.5028,1.4912,1.4559,1.4439,1.4363,1.4336,1.433,1.4325,1.432,1.432,1.432,1.432,1.432,1.432,1.432,1.432,1.432,1.432,1.432,1.432,1.432,1.4325,1.4065,1.2325,1.1465,1.1996,0.0,0.0,0.0,0.0,0.0,0.0,0.0,0.0,0.0,0.0,0.0,0.0,0.0,0.0,0.0,0.0,0.0,0.0,0.0,0.0,0.0,0.0,0.0,0.0,0.0,0.0,0.0,0.0,0.0,0.0,0.0,0.0,0.0,0.0,0.0,0.0,0.0,0.0,0.0,0.0,0.0,0.0,0.0,0.0,0.0,-0.247,-0.292,-0.2245,-0.1347,-0.1999,-0.3075,-0.3283,-0.3268,-0.3444,-0.3411,-0.3411,-0.3411,-0.3411,-0.3411,1.6203,1.5271,1.5731,1.6657,1.711,1.8291,1.8782,1.8543,1.7562,1.6038,1.4624,1.4423,1.433,1.432,1.432,1.432,1.4385,1.4327,1.444,1.4689,1.4923,1.5032,1.5037,1.5037,1.5037,1.5037,1.5037,1.5037,1.4999,1.4896,1.4754,1.4668,1.4526,1.4412,1.4336,1.4325,1.432,1.432,1.432,1.432,1.432,1.432,1.432,1.432,1.432,1.432,1.432,1.432,1.432,1.432,1.4325,1.433,1.399,1.3664,1.3653,1.2001,0.6592,0.0,0.0,0.0,0.0,0.0,0.0,0.0,0.0,0.0,0.0,0.0,0.0,0.0,0.0,0.0,0.0,0.0,0.0,0.0,0.0,0.0,0.0,0.0,0.0,0.0,0.0,0.0,0.0,0.0,0.0,0.0,0.0,0.0,0.0,0.0,0.0,0.0,0.0,0.0,0.0,0.0,0.0,0.0,0.0,-0.2694,-0.3145,-0.2021,-0.1122,-0.1778,-0.2641,-0.3071,-0.3483,-0.3435,-0.3411,-0.3411,-0.3411,-0.3411,-0.3411,1.643,1.5731,1.643,1.7361,1.8298,1.8059,1.8317,1.8563,1.7333,1.5823,1.4624,1.4215,1.432,1.432,1.432,1.4325,1.4385,1.4327,1.4424,1.4754,1.4934,1.5032,1.5037,1.5037,1.5037,1.5037,1.5037,1.5032,1.4994,1.4852,1.4706,1.4651,1.4494,1.4352,1.4325,1.432,1.432,1.432,1.432,1.432,1.432,1.432,1.432,1.432,1.432,1.432,1.432,1.432,1.432,1.432,1.432,1.4238,1.4086,1.4004,1.3868,1.3062,1.0869,0.6592,0.0,0.0,0.0,0.0,0.0,0.0,0.0,0.0,0.0,0.0,0.0,0.0,0.0,0.0,0.0,0.0,0.0,0.0,0.0,0.0,0.0,0.0,0.0,0.0,0.0,0.0,0.0,0.0,0.0,0.0,0.0,0.0,0.0,0.0,0.0,0.0,0.0,0.0,0.0,0.0,0.0,0.0,0.0,-0.3145,-0.3145,-0.202,-0.1344,-0.1777,-0.2425,-0.3071,-0.3478,-0.343,-0.3411,-0.3411,-0.3411,-0.3411,-0.3411,1.6896,1.643,1.7129,1.7833,1.8537,1.8059,1.76,1.7098,1.6869,1.5828,1.4408,1.4215,1.432,1.432,1.432,1.4363,1.4417,1.4354,1.4467,1.4574,1.4918,1.501,1.5037,1.5037,1.5037,1.5037,1.5037,1.5021,1.4994,1.4814,1.4673,1.4635,1.445,1.432,1.432,1.432,1.432,1.432,1.432,1.432,1.432,1.432,1.432,1.432,1.432,1.432,1.432,1.432,1.432,1.432,1.432,1.4238,1.344,1.1795,1.213,1.3108,1.2611,1.1289,0.6379,0.0,0.0,0.0,0.0,0.0,0.0,0.0,0.0,0.0,0.0,0.0,0.0,0.0,0.0,0.0,0.0,0.0,0.0,0.0,0.0,0.0,0.0,0.0,0.0,0.0,0.0,0.0,0.0,0.0,0.0,0.0,0.0,0.0,0.0,0.0,0.0,0.0,0.0,0.0,0.0,0.0,-0.2021,-0.292,-0.3145,-0.2469,-0.1791,-0.1556,-0.2209,-0.3072,-0.3472,-0.3426,-0.3414,-0.3411,-0.3411,-0.3411,-0.3411,1.7588,1.7129,1.7588,1.8291,1.853,1.8059,1.6651,1.5437,1.6163,1.5828,1.4408,1.4423,1.4336,1.432,1.4325,1.4412,1.4504,1.4386,1.4493,1.4616,1.4972,1.5021,1.5037,1.5037,1.5037,1.5037,1.5037,1.5037,1.5026,1.4809,1.4662,1.4619,1.4483,1.432,1.432,1.432,1.432,1.432,1.432,1.432,1.432,1.432,1.432,1.432,1.432,1.432,1.432,1.432,1.432,1.432,1.4314,1.4243,1.369,1.1809,1.1928,1.292,1.3684,1.3005,1.1064,0.0,0.0,0.0,0.0,0.0,0.0,0.0,0.0,0.0,0.0,0.0,0.0,0.0,0.0,0.0,0.0,0.0,0.0,0.0,0.0,0.0,0.0,0.0,0.0,0.0,0.0,0.0,0.0,0.0,0.0,0.0,0.0,0.0,0.0,0.0,0.0,-0.1347,-0.2245,0.0,0.0,0.0,-0.1572,-0.2694,-0.3368,-0.3143,-0.2683,-0.2002,-0.2429,-0.3287,-0.3465,-0.3423,-0.3415,-0.3411,-0.3411,-0.3411,-0.3411,1.782,1.7588,1.782,1.8304,1.8563,1.7607,1.6198,1.5226,1.524,1.4901,1.4386,1.4215,1.432,1.432,1.432,1.4396,1.4537,1.464,1.4515,1.4627,1.4988,1.5026,1.5037,1.5037,1.5037,1.5037,1.5037,1.5037,1.4999,1.4803,1.4673,1.4657,1.4434,1.4325,1.432,1.432,1.432,1.432,1.432,1.432,1.432,1.432,1.432,1.432,1.432,1.432,1.432,1.432,1.432,1.432,1.4314,1.4265,1.3942,1.2937,1.3042,1.2946,1.3711,1.364,1.1704,1.0432,0.7444,0.0,0.0,0.0,0.0,0.0,0.0,0.0,0.0,0.0,0.0,0.0,0.0,0.0,0.0,0.0,0.0,0.0,0.0,0.0,0.0,0.0,0.0,0.0,0.0,0.0,0.0,0.0,0.0,0.0,0.0,0.0,0.0,0.0,0.0,0.0,-0.292,-0.2245,-0.1572,-0.1347,-0.1572,-0.2694,-0.3143,-0.3366,-0.291,-0.245,-0.2873,-0.3502,-0.3467,-0.343,-0.3418,-0.3411,-0.3411,-0.3411,-0.3411]}]]